GFSSGP_850_spd_000.txt.gz
Wind_Speed
3 5 2 3 6 11 17 16 15 12 12 13 8 8 17 13 11 13 20 16 18 17 15 17 18 19 18 20 20 20 20 22 23 24 24 23 19 17 16 16 16 14 14 10 8 7 5 4 3
1 3 3 5 12 15 11 14 15 15 15 14 12 9 12 17 18 21 22 19 16 17 16 15 17 17 18 19 19 18 19 21 22 21 22 20 16 15 14 15 14 11 9 7 7 5 4 3 2
3 2 5 7 12 15 13 12 14 16 9 7 9 15 9 11 19 18 21 20 17 16 16 18 18 18 19 19 18 18 18 21 22 21 21 18 14 13 12 12 12 9 7 6 4 3 2 1 2
3 3 5 11 18 15 16 13 13 12 12 17 18 15 15 18 11 20 22 19 17 16 15 18 17 17 19 17 16 17 18 21 21 18 17 15 11 11 10 9 8 6 5 4 2 1 1 2 2
3 6 8 12 15 16 14 11 7 12 10 10 16 13 18 9 17 24 21 18 17 15 15 16 16 16 17 15 15 15 15 18 19 16 14 10 9 9 8 6 5 4 3 2 1 1 2 4 4
6 6 9 12 14 13 12 10 14 15 16 19 25 23 9 14 24 22 20 19 16 16 14 15 16 16 15 14 13 14 14 15 15 14 10 9 8 7 6 5 4 3 3 2 2 4 6 7 6
6 3 10 13 12 10 9 6 12 16 14 16 17 10 10 18 22 22 20 18 16 15 15 14 13 14 14 13 12 12 13 13 13 12 10 8 7 6 6 6 6 5 4 6 8 8 9 10 10
4 4 8 7 9 12 10 10 10 14 15 13 12 8 13 23 23 22 20 18 14 15 14 16 14 12 11 11 11 10 11 12 11 10 8 6 5 5 6 7 7 8 9 10 10 9 11 12 12
4 5 7 8 8 10 13 12 8 9 13 6 3 15 23 29 24 22 20 18 16 14 13 12 11 11 11 9 10 11 11 11 11 10 9 8 4 7 7 9 12 11 12 11 12 11 10 12 12
8 5 9 6 7 11 8 8 10 10 12 12 16 19 27 28 26 23 21 20 17 16 15 13 12 11 11 10 9 9 9 9 10 9 9 7 8 9 9 11 11 12 12 12 11 11 11 10 7
1 11 6 6 7 12 14 11 7 6 8 9 19 27 26 26 23 21 19 17 17 15 14 13 13 11 11 11 9 7 7 8 8 10 10 8 9 8 8 8 8 8 12 8 9 10 8 10 9
7 9 11 11 11 13 14 14 17 17 13 15 23 23 23 21 20 19 18 17 17 16 14 13 12 12 11 9 9 8 8 8 8 9 11 10 7 9 9 8 9 11 8 9 9 9 9 10 10
13 12 13 12 12 15 16 16 15 19 18 22 22 19 18 16 15 15 15 15 15 15 13 13 12 12 11 12 10 10 9 8 9 10 11 11 10 10 10 11 9 11 10 10 11 11 11 10 11
11 16 16 14 15 17 17 14 13 13 17 19 18 17 15 14 13 13 13 14 14 13 13 13 12 12 13 12 12 11 10 10 10 11 11 14 12 12 11 12 10 11 12 13 11 14 13 12 12
18 16 12 13 9 16 17 14 15 15 15 16 16 15 13 12 11 11 11 11 11 11 11 12 11 12 13 13 12 11 9 10 11 12 14 15 15 13 15 11 12 15 16 17 15 15 15 14 14
12 14 11 10 14 7 8 12 11 14 14 14 14 14 12 11 11 10 9 9 9 10 10 10 9 10 13 13 12 12 10 12 14 14 14 16 17 17 16 18 18 17 17 17 18 17 19 17 15
13 12 11 13 14 2 9 14 14 14 13 14 13 13 12 12 11 10 9 8 8 7 7 7 7 8 9 9 9 10 12 12 12 13 15 17 18 18 20 21 22 21 23 22 23 21 20 20 19
15 11 12 12 14 8 5 12 14 15 14 15 14 12 12 12 11 10 9 8 7 8 7 6 6 7 7 7 7 9 10 11 12 14 15 18 20 21 20 20 22 22 24 25 23 25 21 22 21
13 16 12 10 5 10 6 12 14 16 14 14 16 14 13 13 11 11 9 9 8 7 7 6 5 5 5 5 7 8 10 11 11 14 15 15 16 16 18 20 20 20 20 20 22 23 24 24 22
12 12 11 6 6 11 8 11 12 14 16 15 15 16 15 14 14 12 12 10 8 6 6 5 5 5 4 6 8 8 9 9 10 13 13 12 11 14 16 16 15 17 18 21 22 22 22 22 21
14 15 12 13 9 11 8 10 12 14 13 15 14 15 15 16 16 15 14 12 11 9 7 7 6 6 6 5 5 6 8 10 9 9 11 13 13 16 17 15 15 17 20 19 19 22 23 21 22
14 10 13 15 14 12 16 10 18 17 16 17 20 18 18 17 16 16 16 13 14 11 8 6 3 2 4 7 6 8 9 9 9 9 11 14 13 18 19 16 15 16 17 19 19 19 22 22 22
6 8 9 12 17 7 13 9 3 16 18 20 22 22 21 20 19 18 18 16 15 13 11 7 3 4 5 8 5 6 7 7 8 8 11 11 11 13 13 12 13 13 14 17 17 18 21 22 23
13 13 7 8 7 10 12 12 12 10 18 19 24 24 23 22 21 21 21 19 16 14 12 7 4 4 6 6 9 12 10 9 7 8 8 9 9 8 9 10 13 14 16 16 18 18 18 21 23
12 15 8 9 8 10 5 7 13 2 5 13 21 27 27 25 24 24 25 22 19 16 13 8 5 6 7 7 10 11 10 10 8 10 10 10 8 8 9 11 10 11 14 16 16 18 20 22 23
17 15 6 7 9 6 3 7 6 2 4 13 14 23 28 26 27 27 26 23 20 17 13 9 6 7 8 9 12 12 11 6 7 8 8 6 7 8 10 9 10 11 13 13 15 15 16 19 23
11 10 5 1 3 8 7 6 9 8 8 10 12 17 28 26 27 28 26 23 21 18 14 11 8 9 10 9 13 10 8 6 7 8 9 7 9 7 9 11 11 10 11 11 13 14 17 19 21
8 11 9 9 6 9 6 6 3 5 7 8 14 19 25 26 27 27 27 24 21 18 15 12 10 11 12 11 12 8 7 6 7 7 8 8 8 9 12 12 11 10 10 10 12 14 16 17 18
8 11 8 5 5 7 6 3 6 2 2 4 10 18 23 29 29 29 28 25 23 19 17 14 11 13 11 12 10 9 6 6 7 7 8 9 10 10 12 14 14 13 13 12 13 13 15 18 21
15 18 16 10 11 6 7 8 4 4 3 3 5 13 21 28 29 28 28 26 24 22 18 15 12 11 10 9 9 8 7 7 8 9 9 11 12 13 16 17 16 15 15 15 14 16 18 22 27

GFSSGP_850_spd_003.txt.gz
Wind_Speed
2 5 6 8 7 12 17 14 15 15 16 13 21 17 18 20 10 13 21 14 16 15 12 16 17 17 18 19 20 19 20 21 21 22 20 19 17 15 15 14 12 10 10 7 7 5 5 5 5
1 7 10 11 12 15 16 19 18 16 16 13 8 24 23 22 27 26 21 18 18 15 14 15 17 17 18 19 18 17 19 20 19 19 17 15 15 14 15 14 12 10 7 5 5 5 5 5 5
3 8 11 11 15 16 17 18 15 12 10 14 21 17 14 19 18 20 21 19 17 16 15 15 15 15 15 15 14 15 18 19 17 17 14 12 11 12 12 11 10 8 5 4 4 4 4 5 5
5 4 10 16 21 20 17 12 15 16 18 20 21 16 24 16 20 22 21 18 15 17 14 16 16 16 15 15 14 14 16 17 15 13 12 10 10 10 10 9 7 6 4 4 3 3 4 5 6
5 14 12 17 19 18 13 10 16 15 13 18 25 23 18 16 22 21 18 16 17 14 13 14 14 15 13 13 13 14 16 16 14 13 11 7 6 6 6 5 4 3 3 3 3 3 4 6 6
22 6 13 14 18 16 13 15 17 15 15 22 26 21 18 20 21 18 18 16 14 16 14 13 14 14 13 12 13 13 14 15 12 10 6 5 5 4 2 1 1 2 2 2 4 6 8 8 8
22 12 15 16 15 15 9 16 17 17 22 22 19 17 16 21 20 19 17 16 17 13 15 12 11 11 11 11 11 12 12 12 12 9 5 4 3 3 3 3 5 4 4 5 8 9 10 10 10
20 8 3 14 14 16 10 14 18 17 17 13 18 10 20 24 21 19 17 17 15 15 12 14 11 11 9 10 10 10 10 10 9 7 5 3 1 2 4 5 7 8 10 10 10 9 12 13 11
8 12 8 17 15 16 13 14 11 15 16 8 2 20 26 26 22 20 17 15 12 9 12 10 12 10 11 8 9 9 10 10 9 8 6 4 2 6 8 5 10 13 12 12 11 11 11 13 10
12 1 15 12 12 14 11 18 15 14 13 13 17 24 27 25 22 20 18 16 15 13 11 13 9 8 10 9 7 6 6 6 6 6 6 5 7 9 8 9 13 14 12 13 10 11 12 11 5
9 16 9 4 15 15 14 10 5 12 20 17 23 27 27 24 21 19 16 15 14 13 12 11 10 10 10 10 5 6 6 7 7 8 8 6 12 4 7 7 8 8 9 9 9 12 9 4 9
7 5 14 11 7 15 18 15 11 16 19 20 24 25 25 23 21 19 17 16 15 14 12 11 11 11 11 8 7 7 9 7 6 7 10 9 7 7 8 7 8 8 7 9 9 6 10 14 10
13 8 13 10 14 14 17 17 15 17 21 24 24 22 20 19 17 16 16 15 15 14 13 12 10 12 13 13 8 9 11 7 8 9 8 8 9 10 9 8 10 8 9 12 14 9 12 12 11
15 11 13 13 14 13 16 17 16 19 22 23 20 19 17 15 15 14 15 15 15 14 13 12 11 12 11 12 14 13 7 9 8 10 12 10 11 12 8 13 9 9 11 10 11 11 12 13 13
16 12 11 10 14 13 15 15 15 19 19 20 18 17 15 14 12 13 14 15 14 13 13 14 13 13 11 11 10 12 9 8 10 11 10 14 14 14 15 15 13 11 15 18 17 15 14 13 13
17 15 15 13 12 21 36 11 15 19 19 19 17 16 14 13 12 12 12 13 13 13 12 12 11 11 12 12 11 10 10 12 12 11 12 13 14 17 18 18 19 19 19 13 16 16 16 16 18
17 12 14 12 13 20 17 13 17 17 19 19 18 17 15 13 12 12 11 12 11 10 10 10 10 8 10 10 11 9 11 11 11 13 14 16 20 21 20 20 21 21 20 18 18 22 22 18 19
16 17 15 13 13 7 17 13 17 16 18 19 19 18 16 16 14 13 12 11 10 9 8 8 8 9 10 10 11 11 12 13 12 13 15 16 17 17 18 17 17 18 17 18 19 22 21 22 22
13 14 14 7 13 12 6 16 15 17 16 17 20 20 17 16 16 15 14 12 11 10 8 7 7 9 8 6 6 7 8 9 10 12 13 14 14 14 15 15 15 16 18 19 19 20 23 22 20
9 13 11 11 9 7 6 14 14 17 16 18 19 20 21 20 20 18 16 13 12 11 10 9 7 7 6 6 7 8 5 7 9 10 10 8 9 11 11 13 14 16 18 21 24 25 25 22 18
15 16 14 8 11 13 12 13 16 16 19 17 19 20 22 23 23 21 18 16 13 11 11 9 8 6 5 5 6 7 6 7 7 6 6 7 10 13 13 15 16 17 17 18 20 20 20 23 19
18 15 12 10 9 13 17 12 18 17 17 20 23 24 22 23 22 22 21 20 17 13 11 10 8 6 4 3 6 10 9 8 8 10 10 16 12 11 12 13 13 16 14 17 20 17 18 20 21
6 13 9 15 13 16 14 13 17 9 18 21 24 25 25 24 23 24 23 22 19 16 13 11 10 5 7 4 4 5 7 8 7 9 11 10 9 10 9 10 12 13 11 16 19 18 17 18 21
11 8 8 11 11 13 15 9 12 18 27 23 26 29 29 27 26 23 23 23 22 19 16 14 10 4 3 3 2 4 5 5 6 8 8 8 9 8 9 10 12 12 12 13 16 18 18 19 21
13 12 8 9 11 13 7 11 7 7 9 7 22 30 32 30 29 27 26 25 24 22 19 15 11 6 4 4 3 4 6 6 7 7 7 10 7 8 9 14 8 9 12 14 14 15 17 16 18
15 14 11 7 10 11 9 8 12 10 9 7 11 28 28 29 29 29 28 27 24 23 21 18 13 8 7 6 4 6 6 4 8 7 8 7 8 8 11 8 10 11 12 12 13 13 14 16 17
15 16 17 13 5 10 4 12 9 9 7 5 10 13 28 30 29 29 29 28 26 25 23 20 14 10 8 7 6 4 6 7 7 11 9 7 11 8 9 10 11 12 12 13 13 13 16 16 17
9 11 10 7 8 10 9 6 5 10 9 9 10 12 17 28 30 29 30 28 27 26 23 19 16 11 9 7 6 6 7 7 7 8 8 9 10 10 11 10 12 13 13 14 14 13 12 13 15
13 11 12 13 7 6 6 4 14 6 7 4 6 7 14 23 28 30 30 30 28 26 24 21 17 13 10 8 7 7 6 6 8 8 8 9 11 12 12 13 14 14 13 15 17 16 14 17 20
20 22 17 10 11 8 9 4 6 5 6 4 3 4 11 19 26 30 31 31 29 29 26 23 19 14 11 9 9 8 7 7 7 9 10 10 11 12 14 15 16 16 16 15 17 17 17 19 20

GFSSGP_850_spd_006.txt.gz
Wind_Speed
2 10 10 13 6 11 14 16 16 15 17 17 31 19 15 11 9 15 20 22 16 11 16 18 19 20 20 20 20 21 21 22 23 22 21 18 16 15 14 13 12 11 9 8 7 7 7 7 7
8 5 13 12 6 15 13 18 18 14 11 27 30 30 30 26 34 27 21 17 16 16 14 17 19 19 18 18 18 19 20 21 21 20 19 17 16 15 14 13 12 10 8 7 7 7 8 8 8
16 12 13 6 11 15 14 15 11 15 14 24 29 27 21 25 21 20 25 21 21 16 14 17 18 18 18 17 17 18 18 18 17 16 15 14 14 15 13 11 9 7 6 5 5 6 7 7 8
26 15 20 14 20 19 18 17 18 21 23 25 24 15 30 28 29 28 26 21 21 16 14 17 17 16 15 15 15 16 16 15 14 12 11 11 12 12 11 9 8 6 5 5 5 6 6 7 7
6 9 6 15 18 17 17 22 19 16 23 25 27 21 30 29 28 24 22 20 19 15 17 18 18 16 15 14 13 14 14 12 12 11 10 8 9 8 7 6 6 5 4 4 4 5 7 8 9
4 9 7 15 18 19 17 17 20 23 29 25 25 27 28 26 22 23 19 22 19 17 14 17 17 16 14 13 13 14 14 12 11 9 7 7 7 6 4 3 2 3 4 4 5 7 9 10 10
8 9 10 21 23 13 7 22 18 21 26 23 26 22 25 23 21 23 17 28 20 17 13 15 14 12 13 12 12 12 12 11 9 7 5 5 5 3 1 2 3 3 4 7 9 11 11 11 11
21 4 11 2 22 11 17 18 26 23 18 25 27 15 21 23 24 25 20 20 19 16 12 9 12 12 12 12 11 10 11 10 9 7 5 3 2 2 4 5 5 6 10 11 12 12 12 11 11
47 8 8 8 16 20 23 17 21 19 20 17 13 29 28 25 24 24 24 20 18 16 14 13 11 9 8 8 12 10 10 10 9 7 3 1 4 9 4 7 7 9 9 11 9 11 10 9 9
7 2 14 10 13 21 34 9 19 13 15 16 22 28 27 25 21 23 19 14 16 14 11 12 11 8 10 8 5 5 5 7 6 3 3 2 2 7 6 9 7 6 8 7 7 8 10 8 12
4 11 7 19 18 35 37 22 24 31 15 20 30 31 27 24 20 17 19 17 17 9 17 13 14 10 11 14 5 3 1 1 4 3 4 6 7 9 5 9 7 7 11 8 8 7 10 5 7
6 15 15 11 22 15 19 32 26 34 16 22 26 27 25 23 20 17 15 15 14 13 12 12 6 12 8 4 6 6 8 8 6 7 5 7 7 7 7 6 9 4 7 12 14 8 8 11 10
9 14 9 13 20 22 23 20 22 27 16 24 25 24 22 20 17 16 14 14 14 14 11 11 11 13 12 13 10 8 7 7 7 7 8 2 7 9 9 10 10 8 9 8 12 12 10 12 12
12 12 10 16 13 13 16 18 20 18 22 23 22 20 19 17 16 15 14 15 14 13 12 11 11 11 16 15 14 12 13 8 11 9 11 13 12 11 13 13 9 10 9 13 13 12 15 15 13
10 10 9 12 18 13 21 16 15 19 19 21 20 18 17 14 14 14 14 14 14 13 13 13 10 10 9 12 13 16 11 8 7 11 13 14 13 16 16 17 15 15 15 18 16 13 15 16 14
13 14 11 16 21 6 9 11 15 18 18 19 18 18 16 14 13 12 14 14 14 14 14 15 13 12 10 10 11 12 13 12 10 13 13 12 13 16 19 17 18 18 18 19 19 17 15 16 16
14 13 14 13 23 12 4 11 17 20 18 17 18 17 17 14 16 17 16 15 16 15 13 13 13 12 13 8 10 10 9 8 10 13 14 12 15 19 20 19 19 18 18 17 15 16 19 21 22
17 18 20 13 13 15 14 11 14 21 20 18 18 16 17 18 16 16 15 12 15 13 12 11 13 7 7 8 6 10 11 14 13 14 17 18 20 22 19 18 17 17 18 19 19 20 21 24 25
15 12 17 14 22 25 13 16 18 21 21 19 21 19 19 18 21 17 17 15 19 16 12 11 10 12 13 13 8 8 9 8 8 10 12 15 15 14 13 13 13 12 15 18 17 20 24 22 22
19 9 11 15 17 11 17 17 17 17 20 23 23 21 21 21 22 21 19 16 16 16 11 11 10 10 8 5 5 6 7 6 10 9 11 11 9 9 14 12 17 14 17 19 16 22 26 24 21
15 10 10 14 12 4 8 20 11 14 18 22 22 23 23 24 25 25 23 21 19 17 16 15 12 7 6 6 5 5 2 6 7 4 2 3 9 13 13 14 14 16 16 12 16 18 20 20 18
18 12 18 16 13 11 15 13 18 22 17 16 25 26 26 27 27 26 25 24 22 20 18 16 15 11 7 7 5 9 10 8 8 10 10 15 19 20 16 14 11 13 16 13 15 18 16 17 18
13 16 17 12 12 14 14 9 15 16 17 17 25 28 28 29 29 29 27 24 23 21 21 19 16 14 13 6 9 8 6 8 5 8 12 16 8 12 14 9 13 16 14 13 18 17 16 16 18
18 9 14 8 11 14 17 12 6 10 18 18 13 29 29 29 29 29 30 30 26 24 21 18 21 14 8 4 0 1 2 6 9 10 9 4 7 6 10 12 17 16 11 12 16 16 16 16 17
14 12 8 10 11 13 16 15 11 19 19 20 21 44 30 28 28 26 30 34 30 27 24 23 20 13 8 5 4 3 4 5 4 4 4 9 5 6 11 16 16 11 11 13 13 15 12 13 15
13 16 10 13 11 13 13 9 16 14 24 33 37 44 33 33 31 31 28 33 33 29 26 23 20 16 11 9 8 5 3 2 2 6 11 12 7 6 12 15 10 13 12 14 15 14 13 13 14
16 17 18 18 14 7 6 9 10 8 7 4 8 12 27 25 32 34 31 34 34 30 30 26 23 18 14 12 8 3 3 4 6 12 14 5 6 8 9 11 15 12 13 16 16 16 14 13 12
17 17 13 12 10 11 8 10 10 15 9 10 8 6 9 30 35 35 33 35 35 32 30 28 26 21 15 14 7 1 4 7 7 6 7 8 9 11 13 14 12 12 14 16 16 18 16 17 18
15 12 9 13 11 9 10 4 13 11 9 7 7 9 5 12 21 26 27 33 36 32 31 30 26 24 19 16 11 11 10 7 8 8 7 8 10 12 14 15 15 17 16 18 18 20 19 16 17
20 17 11 9 9 8 10 4 13 11 11 10 7 1 6 4 16 28 27 30 34 32 31 30 26 24 20 17 12 9 8 6 10 10 8 10 12 12 14 15 16 18 18 20 20 19 19 19 22

GFSSGP_850_spd_009.txt.gz
Wind_Speed
1 1 2 1 2 2 10 17 12 16 11 12 25 5 7 5 2 10 22 14 18 22 23 23 24 24 25 25 24 23 24 25 26 24 22 21 20 18 16 16 15 13 11 10 9 10 10 10 12
7 4 9 5 2 9 5 9 12 17 24 30 17 24 27 19 27 26 25 16 15 22 23 24 23 24 24 23 23 25 25 24 23 21 19 17 16 15 14 13 12 9 9 9 9 9 10 10 10
11 1 5 4 3 9 6 8 18 31 36 31 20 25 11 23 19 23 25 22 19 22 22 23 22 23 22 22 22 24 24 22 20 20 18 17 16 15 13 11 8 8 8 8 8 9 10 10 9
16 5 5 2 10 15 12 16 25 27 32 29 25 12 16 25 23 32 27 23 19 19 21 22 22 20 20 21 21 21 20 19 18 16 16 15 15 13 11 9 8 7 7 7 7 7 8 8 8
18 8 4 7 15 13 11 22 27 19 26 32 35 18 18 24 33 28 24 20 21 20 20 20 19 18 18 18 19 18 17 15 14 14 14 13 12 10 8 7 6 5 5 5 5 6 7 8 8
16 7 3 9 9 5 13 32 32 28 27 32 35 29 21 27 28 25 24 20 19 22 21 20 18 17 17 17 17 16 15 14 14 12 10 10 8 6 5 5 4 4 5 6 8 10 9 8 9
13 4 4 6 5 5 4 36 26 22 25 20 33 19 26 29 25 28 23 19 16 18 20 19 17 16 14 14 15 15 13 12 11 10 10 9 7 4 3 1 2 4 7 9 11 11 9 8 7
13 5 4 16 6 5 4 23 37 28 24 30 33 14 24 32 29 33 24 21 15 13 17 17 15 14 14 14 12 13 12 10 9 8 9 7 4 3 1 5 4 6 7 8 7 8 8 7 7
7 2 9 14 3 3 24 17 21 34 34 30 9 29 30 36 37 34 28 22 17 13 13 13 13 13 12 12 12 11 10 10 9 8 7 4 1 3 3 8 6 8 7 8 4 7 8 10 8
7 4 13 16 14 17 19 16 10 12 26 29 31 29 35 35 31 28 26 25 22 16 15 13 10 9 11 11 7 6 6 6 6 5 5 4 2 3 4 5 11 6 6 9 7 8 9 7 7
18 9 21 17 20 26 13 12 10 11 13 34 35 33 31 33 28 25 23 19 14 13 18 15 11 9 11 10 4 8 5 6 4 3 4 4 3 6 7 4 5 6 8 9 10 13 10 6 6
9 24 24 21 31 16 8 15 9 17 6 36 35 32 26 27 31 24 15 22 14 15 18 11 14 14 8 6 6 4 2 2 3 1 0 3 6 6 6 6 6 5 5 7 10 12 14 11 10
8 12 29 36 31 29 26 15 7 11 21 32 32 28 25 21 19 22 21 20 16 13 21 11 16 9 9 9 6 8 6 8 4 4 2 5 3 6 7 9 10 9 12 13 12 13 10 12 13
6 13 27 27 29 29 25 11 13 10 21 30 29 26 24 22 22 18 19 18 16 13 20 10 10 9 10 13 14 15 9 9 5 6 7 6 9 13 16 14 14 11 8 12 12 15 18 14 10
12 8 13 19 29 22 34 14 11 25 26 25 26 25 24 23 22 20 18 19 17 18 12 9 11 11 9 14 14 15 13 14 9 8 10 11 13 15 16 16 14 15 15 18 17 16 16 16 14
7 8 6 10 15 19 18 14 16 26 25 25 25 27 25 23 24 21 17 18 18 16 17 13 11 8 8 9 11 14 16 13 11 10 13 14 16 14 15 16 17 16 17 17 18 17 17 17 18
6 6 14 6 8 6 7 16 24 31 29 27 28 27 27 24 23 21 20 18 16 16 15 15 13 10 11 9 7 9 11 13 17 14 13 14 15 15 17 18 20 20 18 17 16 16 16 19 20
8 6 16 12 9 7 9 10 19 31 30 28 27 29 27 26 27 22 25 22 21 17 17 14 12 11 9 9 6 6 9 9 11 14 13 13 15 18 18 19 16 13 13 12 13 15 15 18 21
11 10 10 7 9 8 8 15 17 25 24 21 27 30 30 26 31 24 22 21 22 18 13 16 11 12 13 11 8 8 8 8 8 8 10 12 10 12 11 9 10 11 12 11 12 15 18 22 24
10 12 12 14 17 9 9 12 12 11 6 30 27 28 30 29 35 26 22 22 23 22 19 16 16 15 14 11 6 5 4 4 2 5 6 8 8 7 5 11 13 16 15 18 18 18 19 23 21
11 6 13 13 18 13 11 3 4 13 25 28 34 31 30 32 32 31 26 24 28 25 20 14 16 13 13 11 7 4 4 3 5 6 5 7 6 10 13 16 18 15 15 12 12 16 17 19 17
7 5 5 4 17 9 12 6 7 20 15 18 30 34 32 38 35 31 29 26 30 27 20 15 17 14 11 8 7 6 6 6 5 8 9 8 11 10 8 10 6 7 13 13 11 13 17 15 16
7 8 6 8 5 5 11 5 9 18 13 10 19 33 35 43 40 37 32 29 30 27 23 20 17 15 12 11 13 12 12 11 11 9 11 13 7 6 7 7 8 14 18 12 12 13 15 14 14
6 4 5 7 1 2 7 8 6 15 19 17 20 31 38 43 44 41 38 35 35 32 27 24 22 20 17 15 11 11 11 13 17 16 16 11 3 6 5 9 13 17 12 8 10 10 12 10 10
5 4 2 3 1 7 8 7 8 20 19 21 16 31 31 45 47 47 44 42 40 39 31 27 26 24 18 15 10 3 1 2 5 6 6 6 6 5 8 11 15 9 9 9 9 11 10 10 11
8 9 6 7 4 10 12 8 6 22 31 32 34 35 33 34 42 49 47 47 45 43 38 32 27 24 21 16 10 6 4 7 6 5 8 7 8 9 10 11 12 10 9 8 11 14 11 11 11
10 6 10 3 4 3 4 6 6 13 15 22 28 28 36 39 27 41 50 51 47 47 42 35 30 27 24 19 15 8 5 6 10 9 10 12 11 8 9 10 13 15 10 9 11 14 13 14 14
11 8 4 3 3 6 6 2 3 6 10 10 14 23 34 38 35 47 48 49 48 48 44 38 33 29 26 22 17 10 4 2 4 7 6 6 6 9 9 10 11 11 12 11 12 16 15 15 16
2 5 4 7 6 6 2 3 4 9 10 10 10 26 34 36 41 28 34 40 51 51 46 41 35 31 28 25 18 12 8 8 8 6 5 5 6 8 10 12 12 13 14 14 14 18 19 16 16
9 9 10 5 6 2 5 5 12 11 9 16 14 18 16 13 33 41 42 45 48 52 47 42 38 33 30 26 20 16 15 13 12 9 9 7 8 9 10 10 11 15 17 16 15 17 16 17 17

GFSSGP_850_spd_012.txt.gz
Wind_Speed
10 7 4 2 2 3 5 6 3 8 2 3 9 9 12 11 4 8 19 21 22 24 25 26 26 27 26 26 25 25 26 26 27 27 23 21 21 21 20 17 14 12 11 10 10 10 10 9 9
8 9 4 2 4 4 4 12 10 10 10 12 15 13 15 7 17 24 25 20 23 26 26 26 26 26 26 24 25 26 26 26 24 22 21 20 18 17 16 14 11 10 9 9 9 10 10 9 8
7 6 3 3 2 11 9 13 12 19 19 13 10 16 9 12 24 22 23 22 24 26 26 26 25 25 25 25 27 26 24 21 19 18 17 16 15 15 15 11 10 9 9 8 8 8 8 8 8
9 6 2 2 5 15 18 17 24 21 17 10 15 11 13 14 20 24 24 24 25 26 25 25 24 24 25 25 26 25 23 21 19 19 18 17 16 14 12 10 9 8 7 7 7 7 8 8 7
7 3 4 3 5 18 19 31 29 18 13 20 17 11 10 14 26 25 25 23 25 26 25 24 23 23 23 24 23 21 19 18 17 17 17 15 14 12 10 8 7 6 7 7 7 8 8 7 7
6 4 5 4 6 13 19 31 29 23 27 26 22 19 9 30 26 24 22 21 22 24 23 22 20 21 22 22 21 19 16 15 14 13 13 12 11 9 7 5 4 5 6 6 7 7 6 5 5
9 4 3 3 14 16 18 34 23 27 21 11 20 10 23 27 23 23 21 20 21 22 22 21 20 20 19 19 19 17 15 14 11 10 11 10 8 6 3 3 3 4 4 4 5 6 6 4 4
9 4 1 1 4 8 18 12 30 34 13 28 32 8 17 30 27 24 21 20 19 21 20 20 19 19 18 18 18 16 14 12 10 9 8 7 5 4 6 7 3 5 5 5 4 6 7 7 5
8 5 4 4 2 1 17 24 22 21 34 16 7 30 36 34 28 26 22 20 19 18 17 17 16 17 16 16 15 14 12 10 9 8 6 4 3 1 2 5 7 5 4 5 4 6 6 7 8
5 4 8 3 4 4 18 29 23 19 25 23 26 31 37 36 35 30 27 23 18 19 18 16 15 15 14 13 12 12 10 8 7 6 4 4 1 3 2 3 6 4 4 5 4 6 6 3 3
8 3 9 6 11 17 17 18 16 28 14 36 35 42 41 42 36 29 25 16 14 15 17 16 16 15 15 13 9 10 9 8 6 5 2 4 2 2 3 2 3 4 4 4 4 8 6 4 5
6 4 14 16 18 17 12 15 8 19 22 33 42 45 42 40 34 31 23 19 17 18 15 18 14 15 12 8 12 10 9 8 4 6 3 0 5 4 4 5 6 7 7 7 8 9 9 9 10
8 14 22 27 23 18 15 11 11 20 32 34 40 38 40 35 30 29 17 20 18 19 18 18 14 15 12 13 11 9 9 9 6 4 3 3 4 6 8 10 11 10 11 11 12 11 10 11 13
23 28 28 29 22 17 17 10 14 25 34 34 33 34 35 31 28 28 25 22 20 15 17 14 12 13 11 12 10 10 7 9 8 9 5 4 6 10 13 12 14 14 11 12 13 14 15 13 10
35 16 15 16 20 11 30 9 12 29 34 31 30 25 25 28 28 27 25 23 20 17 16 14 12 12 9 9 11 13 11 11 9 6 7 9 10 11 12 11 12 12 15 16 17 16 17 17 15
10 15 8 7 23 16 12 6 11 32 32 27 30 29 27 26 24 26 26 25 21 20 18 15 13 8 9 8 14 18 17 16 16 13 9 12 12 14 15 14 15 14 14 17 14 14 12 12 14
5 9 16 8 8 10 6 9 18 33 32 29 31 31 33 31 31 28 25 23 22 19 19 17 15 12 12 11 11 13 15 18 18 17 12 11 14 13 15 15 15 17 14 13 12 12 13 14 14
5 9 17 14 11 3 11 9 21 29 29 30 31 30 29 36 36 32 27 24 21 20 19 18 16 16 11 11 9 8 11 14 15 19 17 15 13 11 13 12 11 10 9 11 12 12 11 13 16
4 11 13 13 11 10 18 13 20 28 28 28 29 30 32 36 35 32 28 26 23 21 22 21 21 14 15 14 11 10 8 9 10 9 11 13 13 9 9 7 7 12 16 15 14 16 17 16 15
4 7 12 3 12 7 13 17 20 25 30 32 31 32 35 35 35 34 30 28 26 25 23 24 19 17 14 12 10 9 7 7 8 7 7 9 9 9 8 11 16 14 13 13 14 12 12 13 15
5 10 13 9 7 7 12 1 6 14 25 24 32 43 44 41 38 35 31 30 28 28 23 22 20 20 17 15 12 10 9 8 9 8 7 10 8 9 11 12 13 14 10 8 11 13 13 12 12
8 11 18 9 15 7 8 7 7 14 15 10 24 33 38 43 41 38 35 31 28 30 25 24 20 19 18 15 15 14 11 11 11 9 10 11 10 11 9 11 8 2 9 14 10 9 10 9 10
12 9 11 12 16 7 5 4 18 7 14 14 18 35 39 45 45 43 41 36 32 30 29 22 20 20 18 18 15 13 13 15 14 13 12 12 12 10 6 8 5 9 14 12 7 7 7 7 7
14 4 7 5 5 2 11 12 4 10 26 18 18 33 37 45 49 47 43 38 34 33 30 25 24 24 22 18 14 14 15 15 15 16 15 14 16 11 7 8 8 13 15 7 6 5 7 6 6
5 6 1 2 0 7 8 10 14 21 24 23 25 38 41 49 51 51 46 43 39 38 37 32 30 29 26 21 17 15 16 15 15 17 18 17 14 10 9 9 11 13 7 5 3 4 6 7 7
8 10 6 7 3 6 7 6 10 17 35 40 34 46 44 48 51 54 52 49 46 45 43 40 35 34 30 26 23 19 14 10 10 12 10 10 9 11 13 12 11 8 8 7 6 5 7 9 10
9 4 9 7 1 3 4 8 8 6 17 25 26 36 41 46 47 48 55 52 49 50 47 45 42 38 35 31 27 21 12 10 10 9 8 10 13 13 11 10 11 12 11 8 9 9 9 11 13
13 7 3 3 6 4 5 5 6 5 13 14 16 28 34 43 45 50 55 52 50 53 52 49 46 41 37 32 29 21 15 12 11 10 10 11 13 12 11 12 11 9 8 9 10 10 11 12 13
1 3 3 6 5 6 3 6 7 9 16 18 17 32 32 43 48 52 50 54 52 56 55 55 51 45 40 35 31 26 20 16 11 9 9 9 9 9 9 9 9 9 9 9 12 12 12 12 13
9 10 8 6 5 2 5 6 4 11 16 22 21 29 34 37 44 49 53 54 57 58 57 58 55 49 43 37 34 29 23 17 11 9 9 7 7 7 8 9 8 9 9 10 10 9 10 12 15

GFSSGP_850_spd_015.txt.gz
Wind_Speed
18 14 11 9 1 4 0 2 2 3 4 3 8 8 10 13 3 4 16 19 20 22 23 23 23 22 21 21 22 22 22 24 26 25 21 20 19 17 16 14 11 10 9 9 8 8 7 7 7
16 14 8 2 4 3 3 2 4 3 8 20 14 9 13 5 11 20 21 20 22 24 25 25 23 24 23 22 21 21 22 24 25 20 18 18 18 17 15 12 11 9 8 7 7 7 7 6 6
12 10 4 3 3 5 4 2 5 11 15 6 7 13 6 4 20 25 24 24 24 25 24 24 24 23 22 22 22 23 23 23 20 19 19 16 15 14 12 10 10 8 7 6 6 7 6 6 5
12 8 4 4 4 3 6 6 7 10 6 9 19 9 10 7 15 21 24 24 24 24 23 24 24 22 23 24 24 23 20 19 18 17 15 14 14 13 10 9 8 7 6 6 6 5 5 5 5
11 3 4 4 2 3 5 16 19 7 5 16 12 8 8 13 18 23 24 24 25 25 24 23 23 23 24 24 23 21 19 18 17 17 16 14 13 12 10 9 6 5 5 5 4 5 4 3 3
1 3 6 3 3 4 6 16 19 11 13 15 17 12 6 16 24 24 23 24 23 24 23 22 22 23 24 24 21 19 17 16 16 15 15 13 11 9 7 5 4 4 3 3 4 4 4 4 4
4 5 4 5 6 8 8 18 10 18 15 11 16 6 17 22 23 23 22 23 23 23 23 22 22 22 22 22 19 17 15 14 13 13 12 10 8 6 3 2 3 2 3 3 3 4 4 4 3
4 5 4 2 9 5 13 9 16 17 6 20 24 6 14 28 23 20 19 21 22 21 20 20 21 21 20 20 18 16 15 13 11 11 10 8 6 5 5 4 1 3 2 3 3 4 6 6 6
6 5 3 6 7 6 19 6 17 5 20 12 9 20 33 29 25 24 23 23 21 20 19 19 19 19 19 18 17 15 14 12 10 9 8 6 5 3 2 2 4 2 2 3 3 4 5 4 6
5 3 6 8 7 12 16 21 18 13 18 12 23 29 32 31 29 27 26 24 23 22 20 18 17 17 17 17 17 15 13 11 9 8 6 4 3 3 1 2 4 2 2 4 2 3 5 3 4
5 6 6 9 14 29 23 18 14 24 7 31 34 39 38 35 32 28 25 22 21 21 20 18 17 17 16 14 13 12 11 10 9 8 6 3 3 2 1 1 2 5 4 3 4 5 5 5 5
4 8 10 13 20 20 18 20 12 17 10 33 38 39 40 36 33 30 27 22 22 23 20 18 17 16 15 12 11 10 10 9 8 8 5 3 1 1 2 2 4 6 7 8 8 7 5 6 7
8 6 14 19 21 23 19 8 9 13 23 29 37 37 38 35 32 28 22 20 20 21 19 19 17 18 16 12 12 12 11 9 7 8 6 5 6 2 4 8 7 8 10 10 10 8 9 10 11
10 6 12 16 17 14 14 12 15 18 27 33 37 37 37 37 34 30 27 24 21 23 21 19 15 17 15 16 13 11 13 12 14 11 9 5 4 7 9 11 9 10 11 11 13 13 14 13 13
18 5 7 6 6 6 22 4 8 31 33 33 33 37 36 35 34 31 27 26 23 21 21 15 14 14 14 11 12 12 13 10 12 11 11 10 9 7 10 11 9 10 11 13 13 15 15 14 13
9 5 6 4 7 13 6 5 13 30 34 32 31 34 36 35 33 29 27 25 23 21 20 16 17 14 12 10 10 13 15 15 14 13 11 12 13 12 13 13 12 13 13 16 15 15 15 14 14
5 13 5 6 10 4 2 5 18 30 30 29 29 34 34 35 33 30 29 26 26 25 23 21 19 14 10 12 11 12 17 20 20 18 15 14 12 13 14 14 15 14 16 13 13 12 12 12 12
11 8 8 11 16 6 6 6 18 30 29 29 29 31 33 33 36 33 31 29 27 23 22 21 19 15 13 13 14 14 16 20 20 20 19 17 13 13 13 11 13 11 9 13 14 13 12 13 15
10 8 17 10 8 5 8 8 20 30 27 26 28 28 32 37 36 34 32 30 30 24 22 23 22 18 17 18 17 16 14 12 14 14 15 16 16 13 10 10 8 10 15 18 17 13 14 14 13
8 9 13 2 9 5 7 8 18 24 29 33 33 32 36 39 38 37 36 34 31 26 24 24 21 20 19 19 17 14 13 12 12 12 11 10 9 8 9 9 11 17 17 14 13 11 10 12 11
5 8 10 8 10 5 9 4 12 13 19 26 30 36 34 40 42 41 40 36 33 30 26 27 24 22 22 17 16 16 14 12 11 12 10 11 9 10 9 13 15 13 9 7 11 11 10 10 8
4 8 8 10 17 8 8 5 9 13 15 15 26 31 34 37 42 42 44 38 35 32 27 26 24 27 22 21 20 17 14 12 11 12 12 11 11 14 15 14 10 4 6 11 9 6 7 6 6
9 9 9 9 15 5 5 4 6 13 10 21 26 32 36 41 46 46 46 41 33 32 31 29 25 25 24 24 21 18 17 14 14 13 12 13 12 12 13 11 7 7 8 13 7 6 6 4 2
2 4 8 6 5 5 12 8 5 10 27 26 24 32 38 43 49 49 47 42 35 31 30 33 29 28 27 26 23 19 17 15 14 15 17 16 14 13 11 10 8 7 12 12 7 5 4 4 3
5 7 2 3 2 6 9 7 11 18 24 28 27 35 39 44 47 52 50 47 42 37 35 37 34 32 31 29 25 22 18 15 15 15 16 17 15 15 12 10 10 11 9 8 5 5 5 6 6
7 10 6 7 5 6 7 7 12 18 28 38 34 39 34 41 49 51 53 51 48 44 40 39 39 36 36 33 29 24 18 16 15 16 16 16 13 12 10 10 12 10 9 10 9 8 8 9 10
4 4 9 5 1 3 5 6 8 7 11 24 33 29 35 42 48 53 53 53 51 47 45 43 43 41 39 36 32 27 20 19 17 14 13 13 14 12 10 11 11 10 12 10 10 11 10 12 12
13 7 1 2 6 5 4 3 5 6 6 12 14 25 37 43 44 50 51 53 54 52 48 45 45 44 42 40 35 30 24 20 19 18 17 15 13 13 13 12 11 10 10 9 11 12 13 13 12
3 3 3 5 4 7 4 7 9 8 8 14 19 36 39 40 46 48 51 54 57 56 52 50 49 48 46 43 39 33 28 24 18 17 16 14 11 12 13 11 11 10 9 8 10 12 12 12 11
7 10 9 7 6 1 4 7 3 9 9 18 23 30 35 45 47 49 53 53 56 58 55 55 53 52 50 47 43 38 30 29 23 19 17 14 13 13 12 11 9 8 7 8 9 9 10 13 14

GFSSGP_850_spd_018.txt.gz
Wind_Speed
19 17 10 6 2 4 3 3 2 4 2 3 6 5 10 10 2 5 18 14 18 18 19 19 19 21 21 21 21 20 20 20 20 19 21 19 16 13 12 9 8 8 7 6 7 6 6 5 6
18 17 8 2 3 3 2 3 6 3 8 17 13 8 10 5 7 19 18 19 19 20 21 20 19 20 21 20 20 21 21 22 22 19 18 15 13 13 11 9 8 7 6 6 6 6 6 5 5
13 9 1 1 3 1 1 3 8 12 11 5 6 10 5 3 16 22 20 22 21 21 21 20 19 20 21 20 20 21 23 23 18 17 16 15 15 13 10 8 7 6 5 5 6 6 5 5 4
12 4 1 4 3 2 1 7 15 11 5 6 15 7 9 9 17 19 22 22 22 22 22 21 21 20 21 20 21 21 22 18 16 16 15 13 12 10 8 7 6 5 4 5 4 4 4 4 4
11 2 3 4 4 4 4 9 15 5 6 10 5 6 9 7 16 22 23 23 23 22 21 21 20 19 20 20 21 21 19 17 16 15 12 11 10 8 7 6 4 4 3 3 4 5 5 5 6
4 2 5 2 2 3 4 9 9 10 10 12 13 10 5 10 19 22 22 22 20 21 21 20 19 20 21 21 19 17 15 14 15 14 12 11 9 8 6 4 2 2 2 4 5 5 5 5 6
3 3 4 4 3 1 2 12 6 6 13 8 17 5 11 18 20 22 22 21 21 20 20 20 21 21 21 20 18 16 15 14 13 12 11 9 7 5 3 1 1 2 3 4 4 6 6 5 5
4 4 4 2 5 3 5 6 8 10 4 20 18 6 11 26 24 22 22 21 20 20 19 19 20 21 21 20 17 15 13 13 11 11 9 7 5 4 4 2 1 3 4 4 5 4 5 6 6
6 4 3 6 8 4 14 4 14 5 18 4 7 15 25 31 27 24 24 22 21 21 19 19 20 21 20 19 16 14 13 12 9 10 9 7 6 3 2 0 2 2 3 4 3 4 4 2 5
3 4 9 8 8 7 16 13 11 7 14 5 12 22 32 31 28 26 27 26 24 23 21 20 20 19 19 18 16 15 14 12 9 9 8 5 5 4 2 1 1 3 4 5 3 4 4 2 4
1 4 6 8 21 26 13 15 6 18 3 12 30 35 34 30 28 27 26 25 24 21 20 20 18 17 18 17 16 14 13 12 11 9 7 5 5 3 1 1 3 4 5 4 6 5 4 4 5
2 5 8 11 18 25 16 17 10 12 6 16 32 37 35 32 29 28 26 24 23 23 20 18 18 17 16 15 15 13 13 12 11 9 6 5 4 2 1 1 3 5 6 7 8 7 6 8 9
4 4 8 15 21 22 24 11 7 12 9 24 33 34 34 33 29 26 24 22 22 22 21 18 17 17 16 14 13 13 12 11 8 10 6 5 5 5 4 6 6 6 8 9 8 8 10 11 12
1 9 14 14 17 13 11 7 15 13 22 27 34 34 33 33 30 28 27 23 21 20 19 18 17 17 17 12 13 11 11 12 10 10 8 7 6 7 10 10 8 8 9 9 11 12 13 14 14
16 6 8 7 9 4 18 2 7 23 30 32 33 34 32 30 30 29 27 24 19 21 18 17 14 16 16 12 13 11 11 12 13 14 13 13 12 11 12 12 12 9 10 12 14 15 15 14 13
5 5 5 4 8 13 10 6 4 29 32 29 29 31 33 32 31 29 28 26 24 23 22 16 14 14 13 13 11 13 13 14 12 12 12 12 13 13 13 12 11 11 11 14 16 14 15 15 15
5 6 4 5 10 7 3 4 10 29 29 27 29 29 31 33 33 32 29 27 27 23 23 22 19 16 11 12 13 11 12 15 16 17 16 15 15 14 13 14 13 13 14 13 11 13 15 15 15
6 7 1 6 7 8 6 5 12 25 26 28 29 31 32 33 36 33 31 29 28 26 25 24 22 20 14 12 14 15 16 17 19 20 20 18 16 15 13 12 10 11 8 12 16 17 15 15 15
8 7 12 3 1 2 6 4 15 24 23 23 26 29 33 36 34 33 33 31 31 29 28 27 25 21 18 17 18 19 17 16 16 17 17 18 17 16 12 10 10 8 11 18 19 16 12 11 11
9 8 11 1 4 2 1 4 9 19 26 28 27 27 33 38 35 35 36 36 34 32 28 27 25 24 19 20 18 19 16 16 15 14 15 15 13 11 8 8 9 11 16 17 13 10 11 11 10
7 17 7 18 7 3 5 4 7 10 19 22 26 33 32 34 37 36 35 36 35 35 31 25 23 26 23 21 20 22 20 17 15 16 15 12 8 8 9 9 13 14 14 8 10 11 9 9 8
7 8 14 10 12 8 7 5 7 14 16 16 29 30 35 39 38 39 39 38 39 35 31 27 25 27 24 22 23 23 21 17 13 12 13 14 13 13 11 13 13 13 6 6 9 6 6 6 6
8 8 10 12 10 6 2 2 7 13 13 21 28 35 37 44 43 42 42 42 40 36 34 31 25 27 28 27 26 26 24 19 15 14 14 14 15 15 14 13 13 8 7 6 7 5 5 3 3
10 8 7 5 4 2 9 10 6 7 21 25 23 36 39 43 45 44 42 40 41 39 36 34 31 29 29 30 30 27 25 21 18 16 15 14 15 16 15 13 10 8 6 8 5 5 4 3 2
6 7 1 3 1 5 6 5 13 10 14 23 22 36 40 40 44 46 44 43 43 44 40 38 35 35 34 34 32 30 26 22 18 15 15 15 16 16 14 12 10 8 7 7 7 7 7 6 5
7 9 6 7 6 5 3 9 14 21 23 24 25 29 32 36 45 48 48 46 46 46 43 40 40 39 37 37 35 31 27 24 19 18 17 15 16 15 14 12 10 10 11 9 9 8 7 8 8
5 4 7 7 2 3 5 8 7 7 9 14 27 24 34 42 45 50 49 49 47 47 49 46 45 42 41 40 37 34 30 26 21 19 17 16 16 15 13 12 12 12 11 10 9 8 8 9 9
8 8 4 2 5 4 4 4 6 5 11 11 8 26 37 41 41 46 50 49 51 50 51 49 45 44 43 43 41 38 33 28 22 20 18 17 14 15 15 14 13 12 12 10 9 9 9 11 11
3 3 5 5 4 7 4 6 9 11 12 12 15 31 33 40 45 47 49 49 51 54 53 53 50 47 47 47 44 42 38 32 26 22 20 18 16 16 17 15 14 13 11 10 9 9 10 11 10
11 10 9 6 5 3 4 7 5 11 8 7 21 28 30 37 42 44 46 46 48 52 55 56 55 52 50 50 47 45 41 36 30 25 20 19 18 17 15 14 15 14 11 10 9 8 9 11 12

GFSSGP_850_spd_021.txt.gz
Wind_Speed
16 9 6 6 1 5 7 5 3 8 4 3 5 4 9 9 3 9 22 19 22 24 24 22 24 24 23 21 21 21 21 21 20 20 19 17 15 12 9 8 6 6 6 7 7 7 7 7 8
15 9 3 2 3 6 3 3 8 5 9 13 11 6 7 5 7 19 18 22 20 21 21 20 19 19 20 20 20 20 21 20 20 20 19 14 11 9 7 6 5 6 6 7 6 7 7 8 8
11 7 2 2 3 5 5 6 8 14 8 4 5 9 5 4 13 17 18 22 20 20 20 19 20 20 20 21 21 20 20 20 19 17 15 11 10 9 6 5 4 5 5 5 6 7 7 8 8
9 1 1 3 7 7 4 12 17 13 7 6 11 10 8 11 7 17 23 22 21 21 20 20 20 20 20 19 20 22 21 18 16 15 13 12 10 7 5 4 4 3 4 4 5 6 7 7 7
7 1 1 4 6 6 10 15 15 7 6 8 5 7 11 4 13 22 23 22 21 21 20 19 19 19 19 19 21 21 17 14 14 13 11 9 8 5 4 4 2 2 3 5 7 8 7 7 6
3 1 2 4 5 7 8 13 8 5 10 10 15 14 6 9 18 22 22 21 21 20 19 19 18 18 19 20 20 18 14 13 13 10 9 9 7 5 3 2 1 2 4 6 6 7 7 7 6
2 1 3 5 5 6 6 12 8 9 8 8 15 9 8 14 19 22 21 20 19 19 19 18 17 17 19 18 16 14 13 13 12 11 10 8 6 4 1 1 1 3 4 5 5 6 6 7 7
3 1 5 3 6 5 9 8 9 9 5 14 15 7 10 19 22 22 20 18 17 18 18 18 19 20 19 17 15 14 13 12 12 11 9 7 5 4 2 1 1 4 4 4 5 5 5 6 7
4 2 5 7 9 6 14 7 8 6 15 5 6 11 16 26 25 23 20 18 18 18 17 18 19 20 19 18 16 13 12 11 10 10 8 6 5 3 2 1 3 2 5 5 4 4 4 3 6
6 3 11 10 10 9 14 12 12 5 17 7 7 15 26 27 26 25 23 21 20 20 19 19 20 20 19 17 15 13 13 12 10 9 8 7 6 5 3 2 2 3 5 6 5 5 4 4 4
4 3 6 10 15 18 16 12 10 11 13 12 15 25 30 26 24 24 22 21 21 20 20 20 19 19 19 19 16 14 13 11 9 9 8 6 6 4 3 3 3 3 5 4 7 6 5 4 5
5 4 8 11 18 20 20 15 9 18 3 14 20 29 28 26 24 22 22 23 23 22 20 20 20 20 19 18 16 15 13 12 11 10 9 6 6 4 3 2 4 4 5 6 6 5 6 8 10
4 4 6 6 18 19 20 17 8 16 2 15 25 29 27 26 24 22 20 21 23 23 21 20 20 19 18 17 16 16 15 14 12 12 9 8 6 6 5 6 7 7 7 8 7 7 10 11 12
5 6 9 10 17 20 18 12 12 13 13 20 27 28 26 25 23 20 21 23 24 23 22 20 19 18 18 17 16 15 14 14 13 11 11 6 7 7 10 10 10 9 8 9 10 11 12 13 14
14 9 10 12 17 9 18 9 13 16 17 22 26 25 24 24 22 24 25 22 21 21 21 21 18 18 18 16 15 15 13 14 14 12 12 11 12 12 11 12 12 9 11 11 13 14 14 12 12
5 6 7 8 14 11 18 13 13 20 23 24 25 24 25 23 25 23 25 22 21 21 21 19 18 17 18 16 15 14 13 14 15 12 12 13 14 14 13 14 12 11 11 12 15 13 13 14 13
3 7 10 10 12 9 14 6 14 22 24 24 26 26 25 23 24 25 26 25 24 22 21 21 19 16 12 14 15 14 15 16 16 16 14 13 14 13 15 14 11 12 13 12 10 14 16 17 16
12 8 8 8 13 9 13 9 6 19 23 25 26 26 26 26 27 26 28 27 27 25 24 24 22 20 15 13 16 16 16 16 16 17 18 18 16 14 12 12 11 10 9 9 13 17 20 14 13
15 15 16 9 10 11 14 12 7 17 22 24 25 27 27 29 29 28 29 30 29 29 28 27 26 23 22 19 19 20 19 18 15 16 16 17 17 16 14 13 11 8 9 11 16 19 12 8 10
15 15 14 7 12 12 11 14 10 17 27 28 27 28 29 28 26 27 30 30 32 32 31 29 29 28 26 24 21 21 19 18 16 16 16 15 14 15 14 11 9 8 10 14 17 13 11 10 8
12 17 14 14 12 4 6 15 15 14 22 24 28 29 28 30 28 28 31 33 34 34 34 32 28 29 28 25 25 24 22 21 18 17 15 14 13 11 10 10 10 10 13 15 9 12 10 7 8
17 15 16 16 12 13 12 11 11 16 18 22 29 31 32 30 29 28 30 33 34 35 33 33 29 27 28 29 28 27 23 20 17 14 12 13 12 12 13 11 10 13 14 8 7 7 6 6 5
12 12 18 17 18 9 9 7 14 8 16 23 31 35 36 33 32 31 32 34 31 31 34 34 32 29 27 29 29 26 25 22 18 14 13 14 15 16 16 15 14 13 9 8 7 5 3 4 4
10 12 6 5 9 9 17 14 13 9 15 22 27 35 36 35 35 33 34 35 37 36 35 35 34 32 29 29 30 28 26 24 21 17 15 15 15 16 17 16 14 12 10 8 6 4 3 2 2
14 16 7 8 7 9 12 12 17 11 19 22 20 34 41 39 36 37 35 34 39 39 38 37 37 36 33 32 32 31 29 26 23 19 17 16 15 16 17 15 14 13 11 8 6 5 4 4 4
21 20 11 17 10 10 4 11 13 17 29 18 21 20 28 36 40 41 42 44 41 41 39 39 39 39 37 37 37 35 33 30 27 22 19 16 15 14 14 15 13 13 11 9 8 8 8 8 9
15 13 17 9 1 7 7 6 10 13 15 18 27 21 27 33 40 45 42 46 43 42 40 40 41 40 39 41 39 37 36 33 29 24 19 16 16 16 16 16 13 12 12 11 10 10 10 10 10
16 15 10 8 17 15 8 5 7 6 13 16 15 22 28 33 34 38 44 49 47 42 41 41 42 43 41 41 42 41 39 34 28 23 19 15 18 17 17 15 13 13 14 13 13 11 11 11 12
8 9 5 7 9 15 15 13 8 13 13 12 16 23 28 28 34 38 44 46 47 44 44 45 44 44 44 42 45 44 42 37 30 27 18 16 15 14 15 14 14 16 15 15 14 12 13 13 12
24 20 18 11 12 6 11 14 5 14 14 12 18 20 16 21 28 31 33 34 39 45 46 46 46 46 46 46 47 46 44 40 31 24 21 17 12 13 15 17 18 18 17 16 15 13 14 13 12

GFSSGP_850_spd_024.txt.gz
Wind_Speed
8 4 5 4 6 5 12 8 11 7 6 11 8 5 9 14 13 11 20 17 21 20 24 25 27 26 24 23 22 20 21 20 20 19 17 14 12 10 9 8 9 10 9 8 10 9 9 9 9
9 5 3 7 4 5 8 7 9 9 12 13 11 6 7 12 13 22 18 19 19 19 18 21 23 22 21 21 20 21 20 19 18 17 16 13 10 8 7 7 7 7 7 8 8 9 9 9 8
10 7 6 3 5 7 9 7 10 12 10 5 5 10 6 11 20 16 19 19 17 14 14 17 17 18 20 20 19 18 18 19 18 17 13 10 8 7 6 5 5 6 6 7 7 8 8 8 8
6 4 6 1 10 6 9 9 13 12 8 4 10 12 14 14 13 15 19 17 16 14 13 17 17 18 18 18 17 19 19 18 17 14 11 10 9 6 4 4 4 5 5 7 8 9 8 7 7
4 4 3 9 10 8 10 11 11 8 8 9 11 12 15 10 15 20 19 17 17 16 15 16 17 17 18 19 21 20 17 16 14 12 11 9 6 4 4 3 3 3 5 6 7 8 8 7 7
7 6 5 10 12 9 9 9 8 7 10 10 19 21 10 16 20 19 18 18 17 16 16 16 17 17 18 19 20 16 13 13 13 10 8 7 5 4 2 1 2 3 5 6 6 7 7 7 7
6 7 8 10 11 10 10 9 6 9 11 10 18 13 15 20 19 20 19 19 17 16 18 16 15 16 17 17 16 13 12 12 10 8 8 7 5 3 0 1 2 4 5 5 6 5 7 8 7
7 5 5 6 7 12 10 9 9 9 8 15 12 7 17 23 22 21 20 19 17 16 15 16 16 15 15 15 15 12 11 10 9 9 8 6 4 1 3 4 3 4 5 5 5 5 5 6 6
5 7 4 5 5 10 15 10 9 7 14 9 7 11 22 25 24 22 21 19 18 16 16 14 14 15 14 12 12 12 11 11 10 9 7 5 2 3 3 4 3 2 4 5 4 4 5 4 8
10 8 3 5 7 13 15 10 12 10 15 13 10 16 25 26 25 24 22 21 19 17 15 17 16 15 15 12 11 10 9 8 7 7 8 5 6 5 3 4 2 4 5 4 7 6 7 8 3
10 10 3 5 8 17 16 11 11 9 13 15 15 22 28 26 24 23 21 20 20 18 17 17 17 16 15 13 11 9 9 9 8 9 8 6 5 4 3 4 4 3 8 3 5 5 2 1 2
9 3 1 7 11 16 16 15 10 12 8 13 14 25 27 25 24 23 21 21 20 19 18 17 17 17 16 13 12 11 11 10 9 8 9 7 5 5 4 4 4 4 3 5 5 4 4 4 7
12 5 5 4 12 13 15 14 10 14 4 14 18 27 27 25 23 22 20 19 19 19 18 18 18 17 16 17 13 13 12 11 10 9 9 8 7 7 6 6 5 6 5 6 6 5 7 7 8
11 6 3 7 13 14 14 15 12 13 8 18 23 26 26 25 24 21 21 21 20 19 19 18 18 18 17 16 16 14 12 12 12 11 11 11 8 9 10 8 7 8 7 8 7 7 9 8 8
8 9 6 9 14 11 15 13 13 17 15 18 23 25 24 24 24 23 22 22 21 20 19 19 19 19 18 18 16 15 13 12 12 11 12 13 13 13 11 8 10 8 10 9 8 8 8 9 9
13 11 10 11 15 10 17 14 16 19 19 19 23 24 24 24 24 22 22 21 20 20 21 20 18 19 19 18 17 15 13 12 12 15 13 15 13 13 13 11 10 9 11 9 8 7 7 9 9
13 14 15 11 16 10 15 7 18 19 20 20 22 24 24 23 23 22 22 21 20 20 20 20 20 19 19 19 16 15 15 15 12 15 14 12 12 11 11 12 10 12 10 8 6 6 9 11 10
17 18 16 13 16 12 16 9 4 18 22 21 22 23 24 25 26 24 24 22 20 19 19 19 19 19 18 16 17 15 15 14 13 13 13 14 13 10 11 9 9 11 8 5 6 10 11 9 7
15 15 15 14 14 16 15 14 11 13 19 21 24 25 26 27 25 25 25 24 22 21 20 21 21 21 19 17 15 15 14 14 12 12 13 13 13 14 13 10 10 9 5 6 8 9 10 6 7
18 18 17 13 9 15 13 15 13 14 19 22 25 26 27 26 26 26 26 26 26 24 24 23 25 24 23 18 16 14 12 13 13 11 13 12 11 11 10 11 9 8 6 7 6 7 6 6 5
21 20 18 14 12 15 9 14 15 16 19 20 25 27 29 29 28 29 30 29 28 27 26 26 27 27 27 23 18 16 15 14 12 12 11 11 10 10 9 8 7 9 5 7 8 6 6 4 5
23 21 18 16 14 13 14 11 13 16 18 19 25 29 31 31 30 29 30 31 31 30 27 27 29 30 29 29 24 21 16 13 11 9 9 8 9 8 8 9 9 9 6 9 6 6 3 3 4
23 17 17 18 18 17 14 9 13 5 14 18 25 30 32 31 31 32 32 32 33 30 29 27 30 31 30 29 29 24 21 16 13 11 11 8 10 10 10 11 12 12 7 8 8 8 4 3 1
20 12 15 18 16 19 21 14 14 13 15 16 18 29 33 34 32 31 30 30 31 31 31 29 30 32 32 31 29 31 26 20 15 15 11 10 10 11 14 14 14 13 9 8 7 7 5 3 4
21 18 12 15 15 15 20 16 16 9 12 14 14 23 30 32 33 33 32 32 32 33 32 32 33 33 34 34 31 31 31 26 21 18 13 11 10 10 12 14 14 11 10 10 8 8 6 5 4
28 26 15 25 16 14 18 16 19 19 24 24 19 14 21 31 35 36 37 36 35 35 35 34 35 35 35 35 34 33 32 25 21 18 14 12 11 10 14 12 14 13 12 12 10 7 6 8 7
28 27 25 23 20 17 18 15 22 14 17 19 19 18 20 26 34 39 38 39 38 37 39 40 39 36 36 37 36 36 35 30 21 20 19 17 16 12 16 13 13 13 13 13 11 7 9 10 8
28 23 24 21 25 23 21 21 13 17 19 19 17 16 21 24 28 34 39 41 40 38 37 38 39 38 36 37 39 37 35 33 29 28 25 21 19 17 16 14 12 14 14 13 13 10 11 11 9
21 20 25 23 22 18 18 18 16 14 13 12 12 15 17 17 25 30 36 39 41 38 36 36 37 38 37 37 39 39 38 35 34 32 29 26 21 18 17 13 7 14 16 14 15 14 13 13 11
25 25 27 18 25 20 21 17 18 20 18 24 25 20 14 14 17 24 30 34 38 40 38 35 35 36 39 38 39 40 41 40 39 36 32 30 25 20 19 11 16 16 21 18 16 16 13 13 12

GFSSGP_850_spd_027.txt.gz
Wind_Speed
12 9 13 9 4 3 5 7 13 5 8 14 8 10 13 10 10 11 16 20 16 20 23 25 27 26 25 24 23 22 22 21 20 18 15 13 12 11 10 10 11 11 10 11 12 11 10 11 11
15 12 14 10 3 3 10 15 10 12 18 14 11 8 19 23 28 25 21 20 21 21 20 23 25 23 22 20 20 20 20 19 18 16 13 12 10 9 9 9 9 9 9 11 11 10 10 10 10
11 11 18 6 7 8 12 11 14 17 13 12 8 12 13 22 23 20 25 24 21 20 20 22 22 20 19 19 19 19 18 18 17 15 12 9 7 7 7 7 7 8 9 10 10 9 9 9 8
9 10 15 8 11 11 14 13 14 13 10 9 18 15 26 19 23 26 24 21 16 18 17 19 18 18 18 18 18 18 17 17 16 12 10 9 8 6 6 6 6 7 8 9 9 9 9 8 8
12 16 10 9 8 14 12 12 12 7 12 13 24 22 20 16 24 23 21 18 21 16 16 18 19 19 19 18 18 17 16 15 13 10 10 8 6 6 5 5 5 5 7 8 8 9 8 7 7
15 12 3 10 11 8 11 5 11 15 13 10 23 23 14 21 22 20 19 20 18 19 17 17 18 18 18 17 17 16 15 14 12 10 8 6 5 5 3 3 4 5 6 7 8 8 8 8 8
15 9 9 13 10 10 9 5 7 13 14 19 20 19 21 22 21 20 20 19 19 18 17 15 15 17 17 18 17 14 13 12 10 8 7 5 3 3 5 3 3 6 6 6 6 7 8 8 8
17 13 5 10 13 11 10 5 11 12 14 19 19 12 23 24 22 21 19 20 20 17 17 15 15 15 14 17 14 12 11 10 7 6 6 4 2 3 6 7 6 5 5 5 4 5 4 7 10
11 4 12 6 10 15 11 11 8 10 16 12 8 21 26 25 23 22 21 20 20 15 15 14 15 13 13 11 11 10 10 9 7 6 5 4 1 4 7 8 7 5 5 7 7 7 7 6 7
13 4 8 6 13 16 10 12 12 13 16 15 11 23 26 26 24 23 22 20 18 17 14 15 15 14 13 10 10 7 6 5 5 5 7 2 5 5 4 5 6 6 9 8 10 9 7 5 2
17 8 10 9 7 16 12 14 11 14 12 18 20 25 27 26 24 22 21 20 19 16 15 17 16 15 13 13 8 8 6 7 6 9 8 5 5 4 5 5 6 6 7 4 9 3 4 7 3
16 15 7 10 6 12 12 15 11 11 14 17 18 25 27 25 24 23 21 20 19 19 17 18 18 17 15 11 10 9 9 8 7 6 9 7 4 5 5 5 5 6 4 5 3 9 5 5 7
14 8 4 6 8 13 15 11 14 9 10 17 18 26 27 24 23 21 20 20 20 20 19 19 18 18 17 14 11 11 10 9 8 8 8 7 7 8 6 6 4 7 6 8 5 6 5 7 8
12 13 1 5 13 10 10 15 13 14 11 19 21 26 26 25 24 22 21 21 21 20 20 19 18 17 16 15 13 12 11 9 10 9 9 10 8 8 9 8 7 6 6 8 4 7 6 7 9
18 5 8 8 14 12 13 15 14 19 15 20 21 24 25 24 24 23 22 22 21 21 20 20 19 18 18 16 14 13 11 10 11 10 11 11 10 9 14 7 7 8 11 9 7 7 8 8 8
15 15 14 15 13 13 19 18 18 20 19 21 22 23 24 24 24 23 22 22 21 20 21 20 18 18 17 16 15 14 12 11 11 11 10 9 12 12 11 9 9 8 7 11 7 7 7 9 9
17 16 20 15 16 13 18 12 18 22 19 20 22 24 24 24 24 24 23 23 22 22 21 21 20 19 18 17 16 14 13 13 11 12 11 11 13 10 9 10 9 11 9 8 10 4 7 9 10
21 21 20 19 17 12 14 7 18 18 21 20 22 23 24 25 26 25 25 24 23 21 22 22 21 20 19 17 17 14 14 15 12 12 13 15 9 11 10 10 8 8 8 6 7 7 9 8 6
22 20 11 15 23 18 17 13 13 18 18 21 25 25 26 26 25 25 25 25 24 23 22 22 22 22 21 19 16 15 13 15 11 12 19 10 14 13 12 9 12 7 7 5 4 8 9 7 6
27 22 18 14 20 19 18 18 15 20 17 20 23 27 27 27 27 27 26 27 27 26 24 25 24 24 24 19 17 16 14 13 11 11 11 9 10 9 10 10 9 9 4 8 3 5 4 5 5
26 25 17 17 20 17 18 19 18 17 21 21 21 24 28 29 30 30 30 30 29 29 28 27 28 27 25 23 19 17 13 14 9 12 12 12 9 11 11 8 9 6 6 3 1 4 5 2 4
25 25 19 19 16 13 19 15 21 20 21 20 24 25 27 30 31 31 32 32 32 31 29 30 30 30 28 26 21 20 16 15 12 11 9 9 9 9 8 8 7 7 5 8 5 3 2 2 2
25 25 22 22 18 23 23 17 12 21 24 19 22 27 27 29 32 33 34 34 33 32 32 31 33 32 29 28 26 22 21 16 13 11 9 9 8 10 10 9 9 7 4 9 7 3 2 2 1
23 24 24 23 19 16 19 18 19 17 19 20 26 27 27 28 30 31 31 32 33 34 33 32 34 35 32 32 28 29 23 21 16 14 11 9 9 9 12 11 11 11 7 6 3 4 3 4 5
29 25 16 17 17 19 26 20 20 16 15 18 19 24 26 27 29 31 33 33 33 36 36 35 35 36 35 33 31 28 32 23 21 14 16 12 11 11 14 15 15 12 9 7 5 6 6 3 3
31 28 20 26 18 20 25 23 21 18 10 20 15 18 27 28 30 33 34 34 35 36 39 38 37 38 35 35 33 31 28 27 25 23 19 15 14 13 18 13 12 10 10 7 8 5 3 6 4
30 29 27 27 24 20 20 23 19 7 19 17 18 19 18 26 29 35 35 36 36 38 40 41 39 39 39 34 34 33 33 31 28 25 23 18 17 15 20 15 14 10 9 8 9 6 8 7 7
34 24 27 23 28 26 25 23 16 20 17 18 16 19 21 20 27 30 35 37 37 37 39 41 42 40 41 37 34 35 36 36 34 29 27 23 21 21 21 17 16 14 2 13 13 7 9 10 10
22 28 25 26 24 21 19 19 19 19 18 22 22 26 23 25 25 28 33 36 40 39 39 41 42 42 42 39 38 37 37 35 35 33 33 31 27 27 27 22 20 16 11 12 16 9 14 12 11
28 29 31 18 28 20 22 19 14 17 15 13 20 19 15 22 23 29 29 33 38 42 41 41 40 38 39 38 40 40 39 38 38 38 36 34 33 31 29 25 23 21 15 15 14 13 11 14 14

GFSSGP_850_spd_030.txt.gz
Wind_Speed
12 9 11 2 3 4 1 7 9 5 11 12 26 10 9 7 4 13 16 16 19 22 26 26 25 27 25 24 25 25 24 21 20 17 15 14 14 13 12 12 12 13 12 12 12 12 12 11 11
18 14 8 6 4 3 9 17 11 8 16 18 23 28 26 23 26 24 21 20 22 22 23 25 25 25 24 23 23 22 21 19 17 15 14 13 12 11 11 11 11 11 11 12 11 11 10 10 9
18 20 17 5 1 1 11 18 12 18 17 21 8 15 13 24 21 22 26 24 23 22 20 25 24 22 20 21 21 19 19 17 15 13 12 10 10 9 10 10 10 9 11 11 10 10 9 9 8
19 18 12 11 15 10 19 8 14 17 23 28 29 17 26 22 25 28 26 26 26 20 21 23 21 19 19 19 19 17 17 16 15 12 10 9 8 8 8 8 8 9 9 9 10 9 9 8 8
18 15 12 1 14 15 11 21 20 12 29 27 31 26 28 28 29 28 24 23 22 20 20 20 19 19 19 19 18 17 17 16 12 10 10 8 7 7 7 7 8 8 8 8 9 9 9 8 8
18 10 11 6 7 17 11 12 14 20 27 31 30 23 22 33 29 23 22 24 17 20 17 19 19 18 18 18 18 17 15 13 11 10 8 7 7 7 7 6 7 7 7 8 9 9 10 10 9
18 12 18 11 11 11 6 20 7 19 25 26 26 20 26 29 25 25 23 22 21 21 17 20 20 19 19 18 17 15 13 12 10 8 7 6 7 7 10 7 7 7 7 7 8 8 10 11 11
27 9 18 1 14 14 7 24 21 21 19 27 29 20 19 27 27 24 23 22 27 21 15 15 18 19 19 18 15 13 13 11 8 7 6 6 7 6 10 9 10 7 7 8 7 7 7 12 14
15 5 7 9 17 16 10 12 22 21 21 23 17 27 30 26 33 24 22 18 21 18 16 16 14 13 12 15 13 12 12 9 7 6 6 6 7 6 6 9 9 8 9 11 10 9 9 6 8
13 5 6 18 12 15 13 12 15 14 16 20 27 28 28 30 23 26 27 20 17 19 20 17 16 17 12 12 10 10 9 7 6 3 2 3 5 2 8 7 6 11 9 6 9 8 6 6 5
5 5 24 34 20 19 14 15 12 20 14 14 32 30 28 28 27 37 25 21 24 21 24 12 23 11 15 18 5 5 2 2 2 3 4 2 3 3 10 5 4 7 6 6 2 10 5 5 5
13 25 29 2 9 18 15 18 9 13 20 22 25 28 28 26 24 23 25 23 27 22 24 18 24 15 16 18 6 8 9 4 7 9 3 8 3 1 2 6 7 4 6 7 7 2 8 10 11
16 24 37 10 6 12 22 15 12 10 23 23 26 28 29 26 24 22 21 21 21 18 18 27 22 18 20 14 9 13 11 9 7 9 8 3 4 3 10 7 4 7 3 9 7 4 9 8 9
21 24 20 6 11 13 15 18 15 13 20 24 27 29 28 27 25 23 22 23 23 21 19 21 21 20 25 21 16 15 14 6 12 7 11 9 6 6 5 5 4 11 5 8 10 9 9 6 5
25 19 14 7 11 10 8 14 12 21 16 23 27 28 27 26 25 25 23 24 23 23 22 21 19 19 19 24 17 19 10 11 8 8 9 10 10 10 11 8 4 5 11 8 11 4 6 6 13
22 20 14 16 14 13 16 4 8 22 21 23 26 27 27 26 26 25 24 24 24 23 25 22 18 19 16 18 16 15 11 12 10 9 16 15 12 12 13 8 5 5 10 11 4 6 3 9 10
20 16 17 9 13 16 11 13 19 10 21 24 25 27 27 26 26 26 25 25 26 25 25 25 22 22 22 16 16 13 15 13 12 19 11 10 12 9 9 6 4 7 6 10 4 6 6 10 8
22 19 20 17 18 18 21 13 17 34 21 25 26 27 27 28 28 28 27 26 25 26 26 25 24 22 24 18 16 16 14 15 16 11 13 12 13 11 10 7 7 4 5 9 9 5 7 6 9
24 20 24 14 18 19 19 17 16 39 27 25 27 27 28 28 28 28 28 28 27 27 28 28 27 26 22 22 19 19 19 16 16 15 16 17 17 11 12 12 7 9 5 8 3 6 6 2 7
28 26 24 22 26 27 17 25 32 32 24 27 29 28 29 29 29 30 30 29 30 30 30 30 30 29 30 24 22 17 11 15 13 7 13 11 8 8 10 5 5 4 4 4 5 9 3 2 4
27 26 22 10 24 23 16 18 22 23 27 26 27 33 31 31 31 33 32 32 32 33 33 33 32 32 30 26 21 21 14 18 10 15 8 9 13 9 10 11 11 9 4 7 2 3 5 1 3
26 26 26 14 17 13 20 14 17 21 23 22 27 27 34 33 33 33 35 34 33 34 34 34 31 32 31 28 25 21 24 16 13 12 13 14 13 7 9 9 10 7 9 4 4 5 2 2 3
25 26 24 22 17 19 18 13 14 18 20 24 22 29 29 35 34 34 37 37 35 35 37 36 33 29 32 30 30 24 20 17 16 13 17 14 12 11 9 11 10 11 12 9 10 10 4 4 4
26 25 25 22 18 14 16 13 25 19 19 7 24 30 30 30 35 35 35 38 41 38 37 39 38 34 31 31 33 27 23 23 18 16 16 16 16 12 17 15 15 16 16 13 9 6 4 9 8
28 25 15 17 17 17 23 22 14 12 15 5 12 27 35 34 33 38 38 38 43 43 42 39 42 39 33 35 32 33 31 25 27 20 19 13 12 15 16 20 19 17 14 14 10 5 8 4 8
25 26 16 20 18 19 23 20 14 23 23 15 36 37 37 34 32 36 40 40 40 45 43 42 42 43 37 34 37 33 33 34 30 30 20 24 18 18 18 17 20 18 15 16 11 6 7 5 4
26 26 26 25 23 17 18 17 21 17 16 28 40 12 11 17 30 35 37 40 39 42 46 46 42 42 40 35 37 37 35 36 38 31 28 20 19 19 24 22 21 17 16 11 12 11 7 9 10
28 18 24 20 26 25 20 20 12 19 20 15 17 22 29 32 43 36 35 38 39 39 43 46 46 43 42 41 38 39 39 36 36 36 32 30 24 24 24 26 25 21 16 15 15 11 13 9 7
20 23 24 21 21 17 17 16 16 18 22 19 22 25 29 19 29 38 40 40 42 40 41 46 46 46 44 44 41 41 40 40 36 35 35 35 33 29 31 28 23 20 19 19 15 14 12 11 9
30 29 28 18 22 18 19 16 16 7 21 20 19 23 22 22 28 31 39 39 40 43 42 46 45 47 47 46 43 44 41 40 40 39 39 40 37 35 36 34 29 23 24 23 16 17 19 16 13

GFSSGP_850_spd_033.txt.gz
Wind_Speed
7 13 12 5 2 2 3 4 2 13 8 9 11 10 12 7 4 7 20 22 24 27 27 26 26 25 25 26 27 25 23 21 19 18 17 16 15 15 14 14 14 13 13 12 11 10 10 10 10
11 14 6 2 1 2 2 5 5 14 18 25 30 24 17 9 17 25 22 23 28 29 27 26 26 24 25 25 26 24 21 18 17 16 15 14 14 13 13 13 12 12 11 11 9 8 9 9 9
17 6 2 1 1 4 5 9 7 18 27 20 13 18 10 15 15 22 28 28 29 28 26 27 25 24 24 24 23 21 19 17 16 14 12 13 12 11 12 11 11 10 10 10 10 8 8 8 9
15 9 5 4 7 5 7 11 17 22 30 29 26 13 18 22 24 33 30 26 24 26 27 26 25 23 22 22 21 19 18 16 14 12 11 11 10 10 10 10 9 9 10 10 9 8 8 9 10
17 4 5 6 10 8 5 19 27 23 25 30 36 20 16 19 31 32 32 28 23 25 26 24 22 21 21 21 19 18 17 15 12 12 11 9 9 9 9 9 9 10 10 9 9 11 12 13 13
10 2 3 3 9 14 10 31 28 29 32 29 35 24 14 30 31 27 28 24 21 26 25 22 21 21 21 20 19 18 17 14 12 11 9 9 9 10 9 9 11 10 10 11 12 14 15 16 15
12 4 5 13 7 11 19 28 25 29 32 23 34 19 25 33 26 28 21 22 20 24 23 22 22 21 20 20 19 18 16 13 12 10 8 9 9 11 12 12 13 11 11 11 12 13 14 13 13
9 6 10 6 11 14 16 14 30 34 22 35 44 11 25 31 29 30 27 25 20 16 22 23 22 21 20 19 18 17 14 13 10 9 8 9 10 7 10 13 12 13 12 12 10 9 10 11 12
25 2 9 8 7 8 17 14 27 33 44 31 10 37 37 35 27 28 30 28 24 18 21 22 22 21 21 19 17 15 14 11 9 9 9 9 6 7 8 7 9 8 7 12 11 9 8 8 6
7 3 8 11 0 1 25 31 28 26 29 12 34 31 44 37 35 30 31 31 21 18 20 20 21 21 20 17 13 12 10 8 8 8 6 6 4 2 5 3 4 6 10 6 6 10 6 8 11
12 8 11 14 22 10 18 20 28 27 16 34 37 37 47 38 36 35 30 29 26 18 18 15 18 19 16 15 9 8 7 8 6 5 4 2 6 2 2 4 6 5 4 8 7 9 6 8 9
6 21 12 7 18 20 12 24 22 25 27 42 43 46 46 39 40 35 34 31 27 26 23 19 17 17 18 15 7 11 8 8 1 1 4 1 2 4 1 6 5 3 7 7 11 2 5 6 8
6 7 13 30 33 20 22 16 18 22 41 42 39 37 39 38 38 33 28 33 28 27 26 25 22 19 18 15 10 7 6 5 3 3 1 2 4 4 5 3 2 2 5 5 5 4 5 5 4
18 16 16 17 28 17 12 13 20 31 42 39 37 34 29 31 36 35 33 37 33 24 29 29 26 23 20 19 15 13 11 11 4 6 4 4 6 7 3 4 3 2 3 6 5 6 2 2 4
11 10 13 18 19 17 22 9 10 35 40 38 35 32 28 26 28 33 36 35 28 24 28 30 31 27 24 24 23 21 17 11 14 9 8 7 9 9 11 7 3 2 4 9 8 2 1 1 5
14 9 8 10 10 20 19 3 16 31 37 34 36 33 32 32 30 30 33 29 28 25 24 31 31 25 20 29 25 22 20 16 12 11 10 11 12 12 8 8 5 4 5 8 8 4 3 5 7
8 10 10 3 3 5 8 6 11 13 30 32 35 34 33 34 34 33 30 33 31 26 29 28 26 22 19 18 29 23 20 18 11 14 11 14 13 9 7 4 2 3 6 7 9 3 6 9 6
10 8 11 7 10 7 9 7 11 16 11 32 35 36 34 36 37 36 34 33 31 30 32 31 25 22 22 17 13 17 19 17 16 15 13 15 14 12 7 3 7 4 5 7 9 7 5 6 3
14 15 13 5 11 7 4 12 16 18 15 19 35 37 37 39 35 37 35 34 32 32 32 34 31 27 23 23 20 17 18 18 18 19 16 11 12 13 11 9 10 7 8 7 5 5 9 3 2
21 18 19 12 7 9 16 16 16 15 22 24 31 37 39 39 39 37 38 37 35 35 35 34 33 31 28 25 24 17 16 17 10 18 19 21 12 10 8 4 10 9 7 8 7 4 3 2 3
23 20 15 10 5 7 7 11 11 13 20 25 27 42 43 45 44 42 43 40 40 39 38 36 35 32 32 27 23 19 16 15 17 18 16 15 13 12 9 11 10 10 9 8 7 6 2 4 3
20 21 21 15 15 8 13 8 15 15 19 16 28 39 41 44 46 46 45 45 43 42 39 37 36 34 34 33 29 26 26 19 20 9 15 13 14 13 7 12 13 11 14 11 9 6 1 10 7
23 13 18 18 7 14 12 3 8 18 17 21 24 38 42 45 49 47 50 49 47 44 44 41 38 35 32 36 33 27 28 25 24 15 15 12 19 15 9 13 15 17 14 13 10 8 6 11 11
15 15 20 15 6 4 16 9 8 9 23 23 24 36 46 45 46 47 50 51 49 46 46 45 41 38 33 29 34 32 29 25 27 21 20 20 21 18 14 17 18 15 19 17 13 11 9 9 14
20 15 12 10 10 5 20 15 13 13 10 26 23 30 36 46 45 48 48 51 53 51 49 48 46 42 37 30 34 36 33 30 25 23 22 22 19 18 18 21 21 18 17 18 14 10 9 10 12
18 17 13 10 11 9 7 10 10 16 18 27 37 34 28 30 47 50 52 53 55 54 52 50 49 45 41 35 33 36 37 32 31 28 21 22 21 16 15 16 20 17 16 15 12 10 9 8 9
8 20 14 6 10 6 7 9 6 19 7 13 23 31 31 32 30 48 55 53 55 56 55 53 50 48 44 40 34 36 38 40 35 35 33 24 22 19 16 18 16 15 17 17 14 12 11 11 9
18 6 14 12 15 18 15 9 7 18 14 14 12 15 14 21 35 37 52 57 55 56 57 54 52 49 46 42 39 35 37 40 40 36 36 34 28 27 20 25 24 20 19 19 19 16 14 13 10
8 17 10 7 14 9 8 14 6 10 20 19 20 33 33 37 42 48 55 58 59 54 56 57 55 50 48 44 41 38 36 39 40 40 40 35 31 29 30 28 27 26 24 23 22 18 15 16 15
24 14 11 9 5 5 10 15 8 7 23 27 27 31 36 51 55 58 50 54 55 57 54 58 57 55 50 46 42 40 39 38 41 41 41 40 40 38 34 32 32 30 28 25 26 23 19 19 18

GFSSGP_850_spd_036.txt.gz
Wind_Speed
10 10 6 2 1 1 3 2 4 3 2 5 9 10 11 15 3 5 24 24 30 29 29 29 28 29 32 30 27 25 23 21 20 20 18 17 16 16 15 13 13 12 11 11 12 12 12 12 12
10 10 5 1 2 1 2 4 3 4 15 26 20 14 13 6 12 26 26 29 30 30 29 28 27 29 30 29 25 23 20 20 19 18 16 15 15 14 13 12 12 12 12 12 11 11 11 12 12
11 5 1 1 1 3 2 6 11 16 19 8 8 17 7 6 22 29 31 32 30 29 29 27 26 27 28 27 24 21 19 18 17 16 15 14 14 13 12 11 11 12 12 12 11 11 12 12 12
7 2 2 2 5 5 3 14 20 16 11 13 21 11 10 9 18 25 32 32 30 28 28 27 26 26 26 25 22 19 17 16 15 13 13 13 13 12 11 11 12 12 13 14 13 13 14 13 12
11 2 3 4 4 2 8 19 24 13 10 21 16 11 11 16 27 32 33 31 30 29 28 26 25 25 25 23 21 19 17 15 13 12 12 13 12 11 12 13 13 13 14 15 16 16 15 15 14
4 7 4 4 4 7 7 26 21 19 22 26 21 17 9 28 29 29 29 29 28 30 27 25 24 23 23 22 20 18 16 14 13 13 13 13 14 14 14 14 14 13 12 14 14 14 14 14 13
8 1 4 9 12 13 19 29 21 22 19 8 22 9 19 29 27 25 23 24 27 26 26 24 23 22 22 21 20 18 16 14 13 12 13 13 15 15 14 15 13 12 10 11 11 13 15 13 10
10 4 4 7 10 10 21 17 26 33 9 24 29 8 19 32 29 28 24 23 25 25 22 23 23 23 22 21 19 18 15 14 13 12 12 12 11 12 12 12 13 13 11 10 9 10 12 12 10
14 4 3 7 3 11 30 16 23 17 30 16 5 30 37 36 34 32 28 24 24 22 22 23 24 22 22 20 19 17 15 13 12 12 11 10 9 7 6 10 10 9 8 9 9 7 8 9 7
6 3 6 10 5 8 27 34 25 17 26 10 26 32 35 38 36 34 31 29 26 26 25 24 23 22 21 20 18 16 14 11 12 13 9 8 6 3 2 5 7 8 7 6 5 3 7 9 7
6 6 5 13 4 12 25 31 26 33 15 36 37 38 39 40 37 36 34 30 25 23 25 25 24 23 22 19 16 14 12 11 11 10 8 5 7 3 7 9 6 6 6 7 3 4 4 7 6
5 10 13 14 28 6 14 28 24 35 21 45 44 46 44 40 39 40 35 32 26 24 24 24 24 24 22 17 13 13 14 13 12 10 6 7 5 3 3 3 4 5 3 3 5 2 2 3 5
7 7 22 22 20 13 17 24 25 21 37 37 43 46 45 43 40 35 31 33 28 25 24 21 23 23 23 20 14 16 13 13 9 9 7 7 5 2 4 2 3 0 3 1 2 2 1 3 4
13 13 20 31 24 17 15 18 17 29 39 39 47 47 44 45 39 38 39 34 29 24 25 23 24 22 24 19 14 16 12 10 10 9 8 6 5 3 4 3 3 2 3 2 4 2 4 2 1
22 7 15 16 27 9 18 6 16 41 45 43 45 42 39 43 43 42 38 35 30 27 27 24 27 24 20 19 17 16 14 13 14 12 7 10 8 5 3 7 6 6 2 3 4 1 3 5 4
3 2 4 14 17 8 9 11 21 43 43 40 42 39 37 41 43 41 38 36 35 30 32 29 29 27 24 23 23 21 17 12 11 10 8 12 9 5 6 6 8 8 5 4 4 5 5 5 5
2 4 7 5 13 6 4 5 24 41 38 37 37 39 36 36 41 42 40 37 35 32 30 31 32 30 28 27 25 23 24 19 16 12 12 10 12 9 7 6 3 4 6 6 6 5 4 5 3
6 3 2 4 17 29 11 5 22 35 36 37 38 38 38 37 38 37 40 39 36 35 31 27 34 34 30 24 28 28 24 23 21 20 14 12 13 12 10 7 7 8 7 5 5 5 4 7 3
5 7 7 4 7 18 17 14 23 32 30 31 34 37 38 44 41 36 35 38 40 36 34 30 33 34 29 27 23 23 31 28 26 19 15 15 15 16 11 11 9 9 9 6 7 5 6 6 3
12 15 13 5 3 2 11 16 19 16 30 38 36 35 38 40 43 44 42 40 43 41 37 32 33 33 31 29 26 22 17 23 25 19 20 18 16 11 9 7 8 15 10 11 10 7 5 7 5
13 17 8 6 3 4 7 2 6 6 6 23 31 40 40 45 46 47 49 48 45 45 42 38 36 37 35 31 26 24 18 17 23 22 24 20 18 13 12 11 9 12 12 12 10 7 7 6 6
14 15 9 7 5 9 8 5 8 15 12 14 29 35 39 44 50 50 52 53 50 48 44 41 39 39 38 33 30 30 27 23 25 20 21 19 15 17 15 12 13 11 14 13 11 7 4 9 9
14 10 9 9 6 3 3 3 6 10 19 13 22 36 43 46 51 52 54 56 55 50 47 45 43 41 39 35 34 33 31 25 23 22 15 18 18 20 19 13 13 16 16 14 12 8 5 7 9
11 8 6 4 4 10 13 13 6 9 10 20 22 37 41 42 45 52 56 54 56 54 51 49 47 44 41 37 35 35 34 28 31 24 20 21 18 22 21 14 14 16 16 15 12 9 8 9 13
11 6 5 5 6 10 11 11 12 19 13 21 25 36 37 46 46 50 50 54 55 57 56 53 50 48 45 41 37 34 33 30 33 27 26 22 22 24 22 17 19 17 16 17 15 10 10 10 13
10 16 9 8 4 5 6 9 10 12 20 38 44 46 41 47 50 53 57 59 60 59 58 57 54 51 48 44 40 34 33 33 31 29 31 28 25 21 17 19 21 19 16 15 15 13 12 12 14
10 11 11 7 3 2 4 7 8 12 8 19 36 36 40 48 50 55 60 61 61 62 61 60 58 54 51 47 43 38 34 37 34 30 31 30 24 21 20 18 18 19 18 17 16 16 13 13 12
19 7 5 1 12 15 5 7 6 8 14 17 24 33 43 47 51 51 54 60 60 60 62 60 59 57 53 49 46 42 36 38 36 35 36 33 26 25 25 22 20 18 18 17 17 17 16 13 13
8 11 3 6 9 13 8 15 8 10 12 14 21 44 45 43 50 51 49 55 60 57 58 60 60 59 57 52 48 45 41 37 39 39 38 39 36 32 30 28 25 24 23 21 20 19 19 16 16
21 16 13 11 8 5 16 19 3 10 10 15 24 37 42 38 45 45 58 54 51 53 55 60 59 59 58 55 49 47 44 41 39 42 42 41 42 40 36 33 33 30 27 27 24 23 24 21 18

GFSSGP_850_spd_039.txt.gz
Wind_Speed
11 9 5 2 1 1 3 3 2 2 2 2 8 7 11 9 2 5 30 29 33 31 30 30 28 30 28 27 26 25 23 22 20 19 17 15 14 14 13 12 12 11 11 11 11 12 12 10 10
12 10 2 1 1 2 3 2 1 4 10 21 15 11 6 5 8 25 28 37 29 31 30 28 28 30 27 26 25 23 21 21 19 18 16 14 14 13 13 12 12 12 11 11 11 11 11 9 9
13 3 3 1 1 3 3 3 4 12 15 7 6 11 5 4 19 29 34 34 31 32 29 28 28 30 27 25 23 21 19 19 17 16 14 13 13 12 12 13 12 12 12 12 11 11 11 9 9
5 1 2 2 4 4 3 6 7 11 5 8 18 8 8 4 22 25 35 33 32 30 28 27 27 29 26 23 21 19 17 17 15 14 13 13 12 12 13 12 13 13 13 12 12 12 11 10 8
4 4 4 7 5 3 2 9 12 5 5 13 7 7 9 11 17 32 34 32 32 30 27 27 27 28 26 22 19 17 16 15 14 13 13 12 12 13 13 13 13 14 13 13 13 13 12 11 9
4 7 1 4 7 4 6 15 8 9 12 16 17 10 6 14 26 31 31 30 29 28 26 26 26 26 25 22 19 17 15 14 14 13 13 13 14 12 12 12 12 13 12 12 12 12 11 9 6
5 3 5 6 8 5 6 17 13 14 16 9 15 5 15 24 28 30 29 27 28 26 26 25 26 25 23 21 19 17 15 14 13 13 15 15 13 13 12 12 12 11 10 11 11 10 8 6 6
6 2 3 6 4 6 15 13 17 15 6 21 25 8 13 31 30 27 26 26 27 26 25 25 25 24 22 21 19 17 15 15 13 13 14 13 11 11 12 12 12 11 9 9 10 9 7 5 6
7 3 4 5 8 4 20 7 15 4 20 9 7 22 35 34 30 27 26 26 27 25 24 23 23 23 22 21 19 18 16 15 14 14 13 10 8 8 8 10 9 9 10 8 7 6 5 4 5
5 4 8 5 4 12 22 20 20 8 15 3 14 27 36 34 32 31 30 30 30 28 25 23 24 23 22 21 20 18 16 14 13 12 11 7 5 4 5 6 6 7 6 6 2 5 3 2 3
6 5 3 5 12 21 23 16 11 23 8 15 34 40 39 37 34 32 31 30 30 27 25 25 24 23 23 22 20 18 16 14 13 13 9 6 6 5 8 6 7 7 8 5 1 3 3 1 1
4 15 10 3 3 27 18 18 9 27 11 32 40 46 43 40 37 34 33 31 30 29 26 25 25 23 22 20 19 17 15 14 13 11 11 7 6 6 5 4 6 4 3 3 3 3 1 1 1
5 12 12 15 4 18 26 22 15 27 9 32 37 42 44 42 38 34 32 30 27 27 27 27 26 25 23 21 19 17 16 15 14 11 9 8 5 3 3 1 4 2 1 1 1 5 4 2 1
8 25 20 17 12 10 20 22 16 27 25 35 40 41 42 43 40 37 35 34 30 25 27 27 28 26 25 21 19 18 18 15 13 10 10 8 5 4 5 3 3 2 1 1 2 3 5 2 1
24 3 9 16 10 9 20 7 17 24 34 35 38 38 42 42 39 39 37 35 33 28 27 28 28 28 28 25 20 20 17 15 13 12 12 11 10 5 4 5 6 6 2 4 4 4 3 4 3
3 5 4 11 16 17 16 9 16 33 36 34 36 35 37 41 40 37 33 32 33 28 31 27 27 27 29 27 21 22 17 14 15 16 14 12 11 8 7 6 8 10 8 5 6 7 7 8 7
5 4 6 2 11 7 11 6 9 38 37 33 35 36 35 34 39 38 36 33 32 32 31 31 29 29 28 26 24 21 19 17 16 16 14 12 12 10 6 7 6 6 5 6 7 6 8 7 7
5 3 2 5 5 13 7 5 19 34 34 35 36 35 36 35 46 42 39 36 35 34 32 32 30 30 27 25 25 25 24 22 20 16 14 11 10 9 10 8 10 8 7 6 6 6 6 7 7
6 3 4 4 8 1 13 6 21 31 28 28 32 34 36 39 49 44 41 38 39 38 37 34 35 33 31 32 30 30 28 27 27 23 19 15 13 14 13 10 11 11 10 9 10 11 9 11 6
6 6 6 5 6 9 10 9 19 22 32 37 37 37 40 37 37 46 47 44 44 41 39 39 38 34 33 33 31 28 27 31 28 26 25 19 16 13 13 10 11 15 14 14 12 10 8 4 7
6 10 5 7 0 2 5 3 12 18 12 24 30 37 40 42 41 43 45 47 46 47 44 42 40 37 33 32 32 29 25 24 28 31 28 23 20 15 14 14 14 13 17 15 12 11 7 6 7
10 5 6 8 5 5 6 5 14 17 18 17 27 33 36 39 45 47 48 47 47 49 47 43 41 38 35 36 35 33 31 29 24 27 27 24 22 22 20 19 16 13 15 14 12 11 8 8 8
9 6 7 6 5 1 5 2 7 18 16 21 25 39 40 42 46 50 54 53 53 50 49 47 44 42 38 36 37 35 33 30 23 24 24 23 23 19 21 20 18 16 15 14 14 11 7 5 9
5 3 2 0 3 7 12 8 9 10 26 23 26 38 46 46 48 52 56 54 55 52 52 50 48 46 43 39 38 38 35 31 26 27 28 25 25 23 23 22 20 16 16 16 14 10 9 7 8
6 7 4 3 4 11 10 7 15 9 15 21 24 40 46 49 50 52 51 50 53 56 56 55 53 51 48 44 42 40 37 32 29 29 30 28 24 25 24 24 22 18 14 16 15 12 11 8 8
10 14 6 8 4 7 5 10 13 16 18 30 31 42 45 46 49 52 56 57 58 59 59 59 58 56 53 48 45 43 38 34 29 30 33 32 28 25 23 22 22 17 15 16 15 15 13 9 9
8 12 12 3 2 3 5 8 6 9 11 14 20 23 34 44 47 50 56 59 59 60 61 61 62 59 56 51 48 45 41 38 34 32 31 33 32 26 25 23 21 17 17 17 17 16 15 12 11
14 8 4 2 11 14 5 7 6 10 17 12 10 23 34 40 45 51 53 57 58 59 60 60 61 61 56 55 50 47 43 41 35 32 34 37 35 32 27 25 22 18 18 20 20 17 17 16 15
3 9 4 7 6 10 2 10 9 9 11 13 15 30 38 41 47 53 52 52 57 58 59 60 60 60 59 57 53 50 46 43 40 35 37 36 35 33 32 28 24 21 21 20 21 19 19 20 18
19 14 12 5 10 6 11 10 3 17 14 9 15 28 41 45 45 44 51 50 51 52 54 59 59 59 59 58 57 52 48 45 44 39 39 39 38 37 34 30 29 27 26 25 25 23 22 22 22

GFSSGP_850_spd_045.txt.gz
Wind_Speed
9 9 6 3 2 2 1 4 1 7 4 3 8 3 5 7 3 4 18 27 31 32 27 24 24 26 26 26 25 23 21 19 17 15 14 13 11 10 10 10 9 9 9 9 9 9 8 7 8
10 7 3 2 2 0 3 2 6 2 7 14 11 8 5 4 5 19 26 34 33 32 26 26 25 27 27 25 23 21 19 18 16 15 14 13 11 10 10 9 9 9 8 8 8 7 8 8 7
9 3 1 2 1 3 3 3 11 13 13 6 6 7 4 4 14 25 28 33 33 31 27 27 27 26 25 24 21 19 18 17 15 14 13 12 10 10 10 9 10 9 8 8 7 8 8 7 7
5 1 1 2 4 3 3 7 15 13 7 4 12 9 7 4 20 20 35 32 33 30 27 27 26 25 24 22 20 18 17 16 14 13 12 11 10 9 9 11 10 8 7 8 8 8 8 7 6
4 1 2 2 3 2 4 11 12 6 5 9 6 7 9 12 13 31 32 29 32 29 27 27 25 23 22 20 18 17 15 14 13 12 11 10 9 9 9 11 9 10 10 10 10 10 9 9 7
3 0 3 1 2 2 2 12 9 6 8 10 15 15 7 7 23 31 28 27 29 27 26 25 25 22 20 19 16 15 14 13 12 11 10 9 9 9 9 9 10 10 11 11 11 11 10 9 8
3 2 1 2 4 2 4 11 6 9 11 8 15 8 10 17 30 30 28 27 25 25 26 25 25 22 20 17 15 13 12 11 11 10 11 10 9 9 9 8 8 9 9 10 9 10 11 9 9
2 2 3 2 3 0 8 9 8 9 5 16 13 7 10 24 32 28 29 26 23 25 29 28 26 23 20 17 14 12 11 11 11 11 10 9 8 9 8 7 7 8 9 8 8 8 9 8 8
1 2 2 3 4 2 13 7 7 6 17 5 5 12 20 31 30 28 28 25 24 25 27 27 27 24 20 17 15 13 12 11 11 10 9 8 8 7 7 6 6 6 6 6 5 7 8 8 5
3 2 5 4 5 4 13 12 14 7 17 7 10 17 31 33 30 30 30 29 26 26 28 28 27 24 21 18 16 15 13 13 11 10 8 7 6 5 4 3 3 4 3 2 1 3 6 6 6
7 4 2 4 8 5 12 11 12 12 12 13 21 29 34 34 31 29 29 29 30 29 28 28 27 25 22 20 18 16 15 14 13 11 8 6 4 3 3 2 2 2 2 2 1 3 4 5 6
5 13 9 3 2 3 13 11 10 13 4 14 22 34 38 34 33 32 31 30 30 31 29 28 27 25 23 21 19 17 16 15 14 12 8 5 5 4 2 2 2 0 1 1 2 0 3 4 6
11 5 4 12 12 8 12 16 10 15 3 15 25 33 33 33 32 29 29 30 32 32 30 28 27 25 23 21 20 19 17 15 14 13 9 6 6 5 2 1 3 1 2 2 4 1 3 1 3
6 13 11 9 12 7 12 10 8 11 15 20 30 34 32 31 32 29 29 32 34 32 30 28 26 25 23 22 20 19 18 16 15 13 9 8 6 5 3 3 2 2 1 2 4 5 3 1 1
12 9 7 12 11 6 10 8 13 13 18 24 26 32 30 30 28 31 34 35 34 32 29 28 26 25 24 22 21 20 19 17 16 13 10 8 7 4 2 4 4 3 4 3 2 4 3 1 1
4 5 7 6 12 9 17 12 16 22 26 26 27 28 30 30 31 29 29 34 34 32 32 28 27 26 25 24 22 21 20 18 17 15 12 10 10 8 6 5 4 6 6 7 5 5 7 4 6
2 7 9 4 15 7 15 13 14 29 26 27 30 29 30 29 30 30 30 33 34 33 32 30 29 28 26 24 23 21 20 21 20 17 13 15 12 11 9 6 5 6 5 5 5 5 6 5 7
8 8 5 9 6 11 16 17 5 29 29 30 32 30 30 32 35 32 31 31 34 34 31 28 28 29 27 26 25 24 24 24 22 19 17 17 14 11 12 9 8 6 6 7 6 6 5 5 6
9 7 13 9 6 6 13 16 13 23 27 27 30 32 32 35 30 29 30 30 31 35 33 29 28 29 30 31 31 29 30 27 24 21 17 17 14 12 11 9 11 8 9 8 7 7 8 7 9
17 17 17 9 6 4 7 11 10 17 27 32 34 34 35 29 30 31 32 32 35 38 37 34 31 31 31 33 33 34 30 28 26 23 21 18 15 14 11 12 10 9 9 9 10 8 8 7 6
23 23 18 8 4 5 8 12 6 13 19 24 29 31 28 34 35 33 34 38 37 39 40 38 35 34 32 32 32 34 33 31 29 28 27 25 20 18 15 13 13 13 11 11 11 12 8 7 5
23 20 21 17 9 10 4 13 8 13 18 21 28 31 34 34 33 32 35 36 41 42 39 39 38 36 34 33 36 35 34 32 29 27 27 26 22 21 18 16 16 15 15 13 11 11 10 7 6
17 14 17 19 14 12 15 9 16 8 15 22 27 34 36 38 37 37 38 44 45 44 42 41 39 39 36 37 38 37 36 33 29 25 24 23 25 26 25 22 19 17 17 14 12 11 9 8 7
11 10 8 3 9 16 22 14 16 12 19 18 25 33 34 36 38 38 38 38 42 42 42 43 44 42 41 40 40 40 38 37 35 31 27 24 23 23 23 23 22 20 19 16 14 13 12 10 9
20 17 8 10 11 14 14 13 19 9 17 19 21 33 37 39 39 40 38 37 42 44 47 47 47 46 45 44 43 42 40 38 37 33 29 27 25 24 25 25 24 21 19 16 15 16 14 12 10
28 23 9 15 16 14 7 15 13 17 24 22 26 29 32 33 38 41 44 46 50 49 48 49 49 47 47 46 47 44 43 41 37 33 33 31 28 25 25 24 23 22 20 20 18 17 16 14 13
19 25 23 12 1 5 12 15 12 11 17 24 24 25 26 32 37 41 44 49 53 53 51 50 49 46 47 46 45 47 46 44 41 35 31 33 29 27 27 26 24 24 23 22 20 19 19 18 15
14 19 10 13 14 15 8 10 14 18 20 19 20 25 28 31 33 37 41 45 51 54 53 52 49 49 45 46 44 44 45 46 43 39 35 32 32 29 30 30 27 26 25 24 23 22 21 21 19
11 20 13 12 12 10 9 11 7 16 19 22 23 31 32 31 33 36 39 44 48 49 49 53 54 52 50 47 46 44 45 46 46 44 39 35 31 32 33 34 34 31 29 27 27 26 25 25 23
24 19 26 12 12 15 8 8 2 12 11 15 22 27 28 27 30 29 32 36 37 46 48 52 52 54 54 50 47 46 44 43 45 46 43 39 36 34 34 35 37 36 34 30 30 29 29 29 27

GFSSGP_850_spd_048.txt.gz
Wind_Speed
13 11 9 6 3 4 0 4 2 8 5 4 12 2 9 11 5 8 28 32 32 25 27 25 25 23 24 23 23 21 19 17 14 13 12 11 11 9 10 9 9 9 9 9 9 9 9 9 8
12 11 5 5 4 2 5 3 5 6 9 11 11 8 8 6 7 19 24 39 31 26 23 26 25 24 24 23 22 20 18 16 14 13 12 11 10 10 10 9 8 8 7 8 9 8 8 8 9
11 5 4 3 3 3 4 5 6 9 11 7 5 6 5 6 15 23 33 36 26 23 22 25 26 26 25 22 20 18 17 15 14 12 11 10 9 10 12 11 10 8 8 9 9 8 7 7 7
10 3 5 4 5 7 7 6 10 11 7 4 8 10 9 6 20 22 33 29 27 22 21 27 28 26 23 21 19 17 16 15 14 12 11 9 10 11 11 10 8 8 9 10 10 9 9 8 7
4 4 5 6 6 4 6 10 6 4 3 7 6 8 11 13 17 32 30 29 26 25 23 25 26 24 22 20 18 16 15 14 12 12 10 9 9 10 9 9 10 11 12 12 12 12 11 10 7
6 4 6 2 6 4 8 10 6 5 8 7 8 16 6 15 28 29 30 28 26 25 25 24 25 23 21 19 17 16 14 12 11 11 10 10 9 9 10 10 11 11 12 13 13 12 11 10 9
7 5 3 1 5 6 9 9 4 7 9 9 17 11 13 21 28 28 29 26 25 25 24 22 21 22 20 18 16 14 13 12 10 10 9 9 8 8 9 9 9 9 11 11 11 11 11 10 8
5 4 7 4 5 11 11 7 7 8 8 16 14 8 16 27 29 28 27 26 25 26 23 21 19 17 16 16 15 13 12 11 10 11 10 9 9 10 10 9 7 9 9 9 8 8 8 9 10
5 6 7 4 4 10 13 11 8 7 15 8 6 11 24 32 29 28 29 26 24 25 24 22 20 17 15 12 13 12 11 11 10 9 9 9 5 6 6 6 6 6 6 6 8 8 8 8 8
10 8 2 5 1 5 12 8 12 10 15 12 9 16 31 33 28 30 31 27 25 27 25 23 20 18 16 12 12 10 9 7 7 7 6 6 4 4 5 3 4 4 3 4 4 5 8 8 4
8 5 1 3 3 3 11 9 9 10 11 15 17 27 34 33 28 30 29 27 27 27 25 23 21 18 16 13 11 9 9 8 7 9 7 5 3 1 1 1 2 1 3 4 4 3 4 3 3
8 12 5 5 5 1 5 8 10 11 6 15 19 29 36 34 32 31 30 28 27 26 25 23 21 19 17 14 12 11 10 9 8 7 7 4 2 1 2 2 2 3 1 1 2 0 2 3 3
16 8 7 10 8 7 6 10 7 12 7 16 22 29 33 32 31 29 27 27 26 26 24 23 21 20 19 18 13 12 11 10 9 8 7 5 4 4 1 2 3 1 3 2 3 2 1 2 0
10 16 10 9 9 6 9 8 10 12 11 19 25 29 32 31 31 28 28 27 27 25 25 23 22 20 20 19 18 14 12 11 10 9 8 8 6 4 3 1 1 1 0 1 1 2 2 2 1
13 10 11 13 12 7 9 11 12 16 17 21 25 28 30 30 30 30 30 28 27 25 24 23 22 21 21 21 20 16 13 12 11 10 10 8 7 4 4 1 1 2 3 2 2 4 1 1 2
14 15 14 16 14 9 15 11 16 19 21 22 25 28 29 30 31 29 29 28 27 25 25 24 22 21 22 20 20 17 14 13 12 11 9 10 9 7 4 1 2 3 4 4 2 2 3 0 3
13 14 19 11 16 9 15 9 16 22 23 23 27 29 30 29 30 30 30 29 28 27 25 25 23 22 22 23 20 19 17 18 13 13 11 11 10 9 7 4 3 3 1 1 1 3 2 3 1
17 18 16 16 15 13 15 15 6 22 23 24 26 28 30 31 34 31 31 30 28 27 26 25 24 23 24 21 24 18 17 17 16 15 13 13 13 11 10 10 7 3 6 2 3 3 2 1 1
13 12 18 15 9 13 16 15 12 16 22 23 26 28 30 31 30 30 30 30 29 28 28 27 28 28 27 26 23 21 20 18 18 17 17 15 15 13 11 9 8 8 5 3 3 2 3 2 4
22 17 19 13 7 9 16 15 13 13 22 25 26 29 30 28 29 32 32 32 33 32 31 30 31 31 32 28 26 22 20 19 19 17 16 18 16 14 11 11 8 8 6 5 4 3 2 2 1
23 23 18 15 11 14 13 15 15 11 17 23 26 28 27 30 31 33 34 36 34 34 33 31 33 31 32 28 25 24 20 20 20 20 18 18 19 17 16 12 11 9 9 6 4 4 4 2 2
25 24 18 16 12 13 15 15 19 20 17 18 25 27 31 33 32 32 34 35 37 36 34 33 33 33 30 32 26 29 27 23 22 19 18 18 19 19 17 15 13 13 9 9 6 5 6 3 3
21 17 18 21 18 17 21 10 16 12 18 19 21 29 31 33 36 36 36 38 39 36 35 33 33 36 34 34 32 28 29 24 18 19 19 21 20 23 20 16 14 15 13 12 10 9 5 5 5
11 18 15 15 17 19 24 20 17 17 18 18 22 27 31 32 35 36 36 35 36 35 34 32 34 39 38 37 36 36 30 29 22 22 18 17 16 18 21 20 19 19 17 14 11 11 9 8 7
23 20 11 14 17 20 19 21 20 9 17 20 19 26 30 33 34 37 37 36 36 37 37 37 39 42 41 40 38 38 38 35 33 25 20 19 17 18 19 21 22 19 22 17 14 13 12 11 9
29 25 13 20 15 18 18 17 22 22 24 8 23 23 25 30 33 36 39 40 39 39 42 42 41 45 43 42 41 39 38 36 32 30 25 21 21 19 18 19 21 23 20 18 19 15 14 14 13
25 27 25 17 9 10 15 19 16 13 18 25 24 22 27 27 32 35 38 41 40 38 41 47 49 47 46 45 44 43 41 40 33 33 31 28 24 21 20 20 22 24 23 21 20 18 19 19 16
19 24 22 17 22 20 13 18 13 18 23 19 22 28 25 27 30 34 35 39 42 41 42 44 47 48 47 49 48 46 45 42 41 40 37 34 30 28 24 22 23 26 25 25 24 21 22 23 22
22 18 23 17 17 13 14 13 16 17 17 22 21 27 29 29 28 32 35 35 38 40 38 40 42 47 48 46 47 48 47 45 42 44 43 40 37 35 30 30 26 28 28 27 28 26 22 26 26
27 24 27 14 23 20 15 10 8 5 12 18 21 25 27 26 26 26 28 29 30 35 39 41 42 41 43 46 45 45 45 46 44 43 44 42 40 38 35 33 32 32 30 30 32 31 27 30 29

GFSSGP_850_spd_054.txt.gz
Wind_Speed
10 12 7 4 3 5 2 6 5 1 9 21 12 15 14 12 2 5 31 35 33 26 23 24 22 21 20 19 18 15 13 13 14 13 13 13 12 11 12 13 13 12 12 11 11 11 12 10 10
11 12 9 4 3 3 4 12 3 11 13 24 23 20 14 11 11 28 38 41 33 21 23 23 22 20 20 19 18 15 13 14 13 12 12 11 11 11 11 12 12 12 12 12 12 12 12 11 11
10 10 3 3 2 3 4 11 11 15 17 17 10 14 8 10 23 25 46 38 27 20 18 23 22 20 20 19 17 15 14 13 12 11 11 12 12 12 13 12 12 13 12 12 11 11 10 10 12
9 5 8 3 9 12 7 8 15 14 24 26 20 12 17 18 21 32 42 31 30 22 20 23 22 20 20 18 16 15 14 12 11 11 12 12 12 12 12 13 13 14 13 12 12 10 10 9 9
7 6 3 1 7 8 20 17 10 13 21 21 23 16 15 23 23 36 32 29 26 23 21 24 22 21 19 17 15 15 13 11 10 11 11 11 11 12 13 15 15 15 14 13 12 10 9 8 7
6 6 3 5 7 16 8 13 20 21 26 22 25 26 10 23 35 28 31 27 25 25 23 24 21 20 18 17 15 14 12 11 10 10 11 12 13 14 14 15 15 15 14 13 12 11 10 11 11
14 9 8 11 9 14 6 15 8 14 15 23 25 14 19 31 39 33 33 27 27 23 23 23 22 19 18 17 15 13 11 10 10 10 11 13 14 13 12 12 13 14 13 13 13 11 10 10 12
20 12 24 12 10 4 4 12 12 20 20 23 28 11 22 41 36 30 28 26 31 26 22 20 21 18 17 16 15 12 11 10 11 12 16 17 16 14 10 10 10 11 11 11 11 10 11 10 13
20 9 11 13 7 12 18 15 21 20 24 17 11 35 41 42 34 32 29 33 29 26 23 20 20 16 14 14 14 13 11 12 12 15 15 15 11 10 7 6 6 8 9 10 10 8 9 13 13
15 8 7 21 4 4 10 14 16 13 18 20 32 38 37 38 33 35 28 31 26 29 24 21 19 16 13 12 12 12 12 10 9 9 2 7 10 8 5 8 6 7 7 10 5 7 10 13 10
24 2 11 8 4 21 10 5 15 17 14 31 36 39 37 39 34 30 29 27 28 28 26 23 22 18 15 17 8 7 7 3 2 10 9 4 10 5 1 4 6 5 10 5 3 4 7 9 7
16 14 25 23 17 9 3 19 16 17 22 27 32 37 39 38 32 30 30 28 26 28 28 25 27 20 17 17 10 8 5 8 7 3 5 5 5 1 2 3 4 2 7 5 7 9 7 5 10
21 24 35 38 35 28 36 17 10 20 25 27 32 35 36 36 33 31 28 33 27 29 27 28 25 22 20 14 14 11 11 9 11 6 3 5 8 1 2 3 5 1 2 0 5 3 5 5 6
20 22 23 15 8 30 24 19 11 15 26 27 32 34 34 34 35 34 32 32 26 28 26 28 24 21 24 20 16 11 13 10 9 4 7 5 3 2 2 5 4 1 3 6 2 5 4 6 7
24 14 17 15 16 13 20 10 12 2 26 28 31 33 32 34 34 36 41 39 31 29 29 27 26 21 26 23 18 16 13 9 11 8 11 9 10 5 3 4 3 1 3 6 5 3 5 5 4
19 16 15 21 22 23 21 16 12 23 26 25 28 32 33 33 32 37 37 36 34 31 31 26 22 21 21 24 20 19 12 11 10 9 11 7 8 9 5 3 4 2 2 5 2 4 5 5 2
19 17 23 22 18 18 19 18 21 13 22 26 27 31 32 32 33 32 31 31 32 30 32 30 24 25 21 21 19 18 13 15 12 11 10 11 7 8 5 4 6 3 1 9 5 3 3 1 2
19 21 20 21 18 24 22 16 19 23 37 38 29 30 32 33 33 33 31 31 31 31 30 31 27 25 24 20 19 15 17 17 15 12 11 15 11 10 6 3 3 2 2 2 4 2 4 4 4
20 22 23 21 21 24 21 20 24 17 8 23 33 35 33 33 33 33 31 32 32 32 33 33 30 29 27 24 23 21 19 17 15 15 13 13 13 9 11 8 8 7 4 4 3 4 3 2 4
27 25 23 21 12 6 20 25 25 23 37 51 30 27 34 32 33 34 34 35 35 36 36 35 36 33 29 28 24 22 19 17 16 16 16 19 16 11 13 9 3 4 7 9 3 9 8 4 4
28 27 24 21 17 11 22 10 27 29 32 40 36 41 34 35 34 35 37 37 38 39 39 38 38 36 36 30 27 21 20 19 20 17 17 20 18 15 10 13 8 9 9 7 2 5 7 6 3
27 28 27 24 18 14 20 9 26 16 20 23 33 35 34 37 35 36 38 38 39 39 41 40 38 39 38 35 26 29 29 26 25 20 19 20 18 14 16 14 12 13 8 9 5 2 6 6 7
26 25 25 25 19 17 20 16 14 20 18 21 22 35 34 38 40 41 40 42 41 40 40 41 39 38 38 37 32 27 29 27 21 21 19 21 21 19 16 17 15 14 12 10 7 9 8 8 7
24 22 24 23 18 17 22 18 19 16 20 20 22 29 38 38 40 40 41 39 41 39 40 39 40 39 38 37 38 33 30 29 26 22 24 22 23 21 19 19 18 16 11 16 13 15 11 12 10
24 23 14 17 17 17 21 20 14 16 23 18 21 29 31 39 40 40 42 41 42 40 40 40 41 41 39 40 39 40 36 30 30 28 25 24 22 21 21 18 22 23 19 16 14 11 10 12 14
28 26 14 24 17 18 22 21 19 21 18 27 29 36 32 32 39 42 42 43 44 45 45 44 45 43 41 41 43 39 41 39 33 32 30 26 24 20 23 19 19 16 20 16 19 19 15 14 14
26 25 24 20 21 17 18 22 24 25 23 19 14 31 35 35 34 40 42 45 45 45 46 49 48 47 43 42 44 44 40 42 41 35 34 27 25 24 17 21 21 19 17 24 23 21 19 14 14
30 21 21 17 22 22 19 22 18 23 20 26 20 19 26 36 35 40 41 43 44 48 48 50 49 49 45 43 43 46 45 42 41 40 36 36 29 24 19 22 23 21 18 23 22 24 22 20 21
21 22 25 20 16 15 15 14 16 24 25 20 19 26 23 33 37 37 40 42 45 48 47 48 49 49 48 46 44 44 46 45 42 42 40 36 36 34 28 18 24 26 22 20 27 28 24 24 24
27 28 26 12 20 16 14 10 14 11 23 18 16 30 30 26 36 37 38 42 44 43 45 48 49 49 51 49 46 45 45 45 45 43 42 40 36 33 31 33 24 28 26 21 27 30 29 25 26

GFSSGP_850_spd_057.txt.gz
Wind_Speed
6 9 6 2 2 2 4 3 3 5 2 13 17 12 9 5 3 5 32 37 31 27 26 25 23 24 23 21 16 15 14 15 15 15 14 14 14 15 14 15 15 14 13 13 13 12 11 13 16
9 8 4 3 2 2 2 3 12 6 26 29 24 16 9 5 8 30 45 35 30 28 27 24 23 24 22 19 15 14 14 14 14 13 12 12 13 13 13 14 14 13 13 14 13 12 13 15 16
9 7 2 2 2 3 3 6 7 15 25 19 8 13 8 6 22 43 43 38 26 27 27 26 23 22 20 18 16 14 14 13 13 12 13 13 14 13 14 14 13 14 13 13 12 12 13 16 16
10 6 7 1 2 9 6 12 15 19 20 16 21 11 12 17 34 32 41 34 26 27 26 23 23 21 20 19 16 15 13 13 12 12 13 14 13 12 13 14 14 14 14 13 12 12 12 13 15
11 3 2 3 3 5 11 19 22 15 13 21 12 9 19 13 25 46 38 32 27 27 26 24 22 21 20 18 16 14 13 12 11 12 13 12 13 14 14 14 14 14 13 13 12 11 10 11 14
6 5 3 3 8 14 17 18 20 21 25 24 22 20 9 22 50 39 31 32 27 29 27 24 22 20 19 17 16 13 12 12 12 13 13 13 13 15 14 15 15 14 14 14 13 13 14 14 13
7 3 6 4 6 11 16 9 20 23 23 17 30 9 24 44 40 36 31 28 27 25 27 25 22 21 18 17 16 13 12 13 14 14 15 14 13 13 13 14 14 14 13 12 11 11 13 15 15
18 3 3 6 10 6 4 11 35 31 19 32 26 9 23 41 38 33 27 28 23 23 26 25 23 21 19 17 15 13 12 13 14 16 16 17 15 13 12 12 12 12 11 9 10 11 13 16 16
28 8 8 1 2 8 12 6 26 25 37 13 16 35 44 40 38 37 36 32 27 23 25 25 22 20 18 17 15 13 13 15 17 16 15 14 13 11 9 10 9 11 10 8 9 9 10 15 16
17 5 5 8 8 4 19 9 25 18 26 27 33 35 43 39 41 37 38 35 33 27 26 24 22 20 19 16 14 14 16 16 15 11 11 12 12 9 9 8 7 9 9 6 8 10 11 15 14
20 10 2 8 13 17 10 8 13 27 20 41 41 44 41 40 36 35 37 34 35 26 25 23 22 18 17 16 13 16 16 12 7 13 9 9 11 8 5 4 6 9 8 2 4 8 9 10 10
14 9 9 12 15 7 5 3 18 26 24 42 51 45 41 37 36 33 38 37 32 28 25 21 19 18 18 15 10 14 12 9 5 8 5 9 7 5 6 5 4 4 3 7 5 5 5 10 10
16 13 21 15 18 20 22 2 4 38 44 44 46 40 36 36 40 31 36 32 34 29 30 26 22 19 17 19 9 12 8 5 7 3 3 5 4 4 4 5 5 8 1 1 5 6 6 9 8
21 23 25 21 14 11 12 12 7 35 44 42 42 40 36 33 35 35 32 34 35 31 36 31 28 24 20 18 16 12 10 10 9 5 3 6 6 6 5 3 2 6 7 7 4 5 1 8 8
29 16 17 17 22 1 16 5 8 14 41 41 39 40 38 32 31 36 33 41 35 34 34 36 32 27 26 23 22 16 18 14 12 9 8 5 5 4 4 7 7 4 8 9 5 5 3 6 7
20 19 16 12 23 15 22 5 12 12 6 33 36 38 39 40 39 39 39 41 37 34 33 36 32 28 28 26 26 21 22 14 10 11 8 5 11 7 9 9 5 5 5 3 4 3 8 5 5
11 13 10 7 11 12 19 12 20 33 18 14 34 35 39 41 43 42 38 47 40 38 34 36 32 28 25 28 29 25 24 17 12 12 11 8 4 10 10 3 1 5 4 6 5 2 2 2 3
11 8 9 15 18 21 14 15 20 32 27 18 17 23 37 42 45 47 44 42 43 41 37 33 28 24 21 21 30 27 23 20 17 16 14 11 9 7 10 6 5 7 8 6 3 4 2 4 4
14 17 12 14 17 14 10 19 25 25 27 29 29 26 27 40 44 43 48 47 43 43 40 38 32 28 26 23 27 27 28 23 23 19 15 13 12 9 10 8 8 4 6 5 3 7 5 4 2
19 20 17 15 18 12 19 23 21 23 17 33 35 31 33 38 38 40 42 46 47 47 43 41 38 32 30 27 24 25 23 23 20 22 18 14 13 10 10 10 6 7 7 7 4 10 8 8 12
19 19 19 14 13 10 16 9 14 8 10 19 27 45 42 44 43 43 46 44 45 44 43 42 39 37 34 30 26 22 22 19 21 17 22 18 18 17 10 10 11 11 9 9 5 9 11 9 9
18 21 21 21 11 5 11 8 12 17 17 16 33 40 39 42 45 45 50 46 47 47 45 42 40 40 38 34 31 28 29 28 25 21 16 20 21 17 14 11 12 12 11 11 5 8 10 10 7
18 11 19 21 15 9 7 6 11 25 23 21 32 43 44 43 50 50 54 53 51 49 49 44 41 39 41 39 35 31 29 28 25 23 22 18 18 16 14 13 12 14 12 12 9 10 10 10 7
16 15 17 18 14 13 9 11 7 22 24 25 35 46 51 47 50 52 55 50 51 47 48 46 44 41 41 43 40 36 34 31 29 27 25 21 20 20 19 16 14 15 13 14 14 12 10 10 13
19 12 7 9 9 11 10 6 8 10 11 30 34 51 55 54 53 53 49 50 49 49 48 49 46 44 42 42 44 41 36 32 30 28 25 25 24 24 21 20 18 16 16 13 18 16 13 14 18
19 20 7 11 6 10 8 8 8 11 2 23 46 59 53 54 55 54 55 55 54 52 50 50 49 47 44 42 42 42 41 36 33 29 30 25 25 23 21 18 20 16 10 13 18 20 15 13 15
12 19 11 4 6 2 5 8 12 18 10 8 16 44 51 52 55 54 56 56 58 55 53 53 51 48 45 42 42 42 43 43 38 33 31 30 28 25 23 23 21 22 18 14 16 23 20 17 14
19 11 13 9 9 11 9 9 14 13 17 10 12 26 41 50 52 53 56 55 57 56 54 54 52 50 45 42 42 42 42 43 43 38 34 33 30 27 28 21 19 23 21 19 17 22 24 21 18
12 12 15 6 6 6 5 11 11 17 21 18 16 23 37 36 51 53 54 56 56 54 53 54 54 51 48 44 41 41 42 41 42 43 38 35 34 29 27 27 21 23 25 22 18 22 26 27 23
18 19 11 11 13 4 4 10 5 10 26 22 15 27 34 40 52 53 53 56 57 53 54 53 54 53 50 44 43 42 41 42 42 43 41 38 35 37 32 30 30 24 25 24 20 19 27 27 28

GFSSGP_850_spd_060.txt.gz
Wind_Speed
6 11 5 2 1 1 1 3 3 2 3 13 22 6 9 9 2 3 38 34 32 30 29 28 26 24 22 19 17 16 16 15 15 16 16 16 15 15 15 15 14 14 13 13 12 11 12 13 15
8 8 3 1 1 1 1 2 11 5 6 27 15 11 7 4 6 31 41 33 31 31 29 28 26 24 21 17 16 16 15 15 14 14 14 14 14 14 15 13 13 13 13 13 13 13 15 15 17
6 4 2 2 1 2 2 7 7 12 18 11 7 12 6 4 16 46 39 37 32 30 28 27 26 24 19 16 15 15 14 14 14 14 14 14 14 13 14 13 12 13 13 12 13 15 15 15 16
6 1 4 2 3 2 3 4 4 17 8 7 19 9 7 3 40 32 39 35 33 31 27 27 25 22 19 17 15 15 14 14 14 14 14 14 13 14 13 13 12 12 12 12 12 12 13 14 14
7 2 2 2 3 5 8 10 15 9 5 9 5 8 12 26 26 42 37 33 33 31 29 26 24 21 19 17 15 14 14 14 14 14 14 14 15 15 14 13 13 13 13 12 11 10 12 12 13
6 4 0 3 2 4 11 14 11 9 10 15 18 16 8 13 43 36 33 30 30 31 28 26 24 21 19 17 16 14 14 13 14 15 16 15 16 17 16 15 15 15 14 14 14 13 11 13 13
4 3 1 3 7 6 12 2 17 12 13 8 21 6 13 29 37 34 30 28 29 28 27 27 25 21 19 17 15 14 14 14 15 16 17 17 16 16 16 15 15 15 13 13 12 12 11 11 15
3 2 5 4 4 5 5 5 22 21 6 22 25 8 18 50 36 30 30 26 28 28 26 26 24 21 19 17 15 14 14 15 16 17 17 17 16 16 15 14 13 12 11 11 12 12 11 10 13
6 3 5 5 2 4 6 13 17 5 23 5 10 22 50 44 34 35 30 28 27 28 26 25 23 21 19 16 15 14 15 16 17 18 17 18 17 15 14 13 11 9 9 9 9 12 11 9 11
10 4 7 7 9 4 12 16 13 10 13 13 21 37 45 42 37 36 34 33 30 30 27 25 23 21 19 16 15 15 17 18 18 15 14 15 15 14 12 10 8 7 9 10 9 12 11 10 9
13 6 6 8 14 12 6 11 15 23 7 31 42 46 42 40 36 37 34 32 30 30 28 26 23 21 19 17 16 17 18 16 12 13 12 14 13 12 11 8 6 8 9 7 10 10 11 9 7
6 13 21 16 8 7 5 5 14 16 12 30 45 56 47 44 41 40 35 34 30 29 28 26 23 22 20 18 17 18 16 13 13 10 10 10 8 7 6 3 3 3 5 6 12 9 10 7 6
12 17 15 18 10 8 5 9 16 11 29 34 44 45 47 41 40 36 33 32 30 28 27 26 24 23 23 19 18 17 14 12 14 11 9 7 9 8 6 8 5 3 5 8 10 9 8 8 7
8 22 16 7 10 4 10 6 8 18 36 40 43 38 41 42 38 39 35 34 33 27 29 26 25 24 22 18 18 15 12 11 10 7 7 3 6 7 8 5 5 5 5 7 10 7 7 7 8
25 15 11 14 16 3 20 7 8 27 31 41 37 36 33 35 38 38 41 37 33 29 29 29 26 23 20 18 18 15 12 12 10 8 7 5 4 5 5 7 7 5 7 8 7 6 7 7 6
6 11 13 16 12 12 8 1 8 32 36 35 37 35 34 36 40 38 42 38 31 34 33 30 28 26 22 22 23 16 15 14 13 12 9 6 6 7 5 7 4 7 8 7 5 7 8 9 8
2 7 7 14 22 14 7 12 13 30 31 32 36 39 38 34 36 38 44 37 35 37 36 35 34 31 27 24 24 22 21 16 14 13 10 7 5 9 8 6 7 7 7 7 7 6 6 5 5
5 4 6 10 5 18 8 13 13 22 30 32 35 37 41 40 44 42 46 44 41 39 37 36 39 34 31 25 25 26 27 23 18 15 12 12 11 7 9 7 7 10 10 7 7 6 4 6 4
6 7 10 8 16 25 23 22 20 28 19 30 35 36 39 46 49 46 46 43 46 41 39 35 43 39 34 30 31 33 29 28 23 16 16 15 12 11 7 11 11 10 10 9 7 5 7 6 6
13 14 16 14 10 10 20 23 25 22 28 29 36 38 42 40 45 48 46 48 51 48 45 41 42 40 35 28 27 35 34 30 27 22 19 16 14 13 8 10 13 10 10 10 5 10 9 7 9
16 16 14 13 6 7 14 5 11 13 15 21 28 36 37 39 42 45 50 49 50 51 50 47 45 41 37 30 27 26 32 32 29 29 25 21 16 15 10 9 11 10 9 9 6 9 12 9 14
16 16 15 16 5 4 12 5 12 16 21 18 27 30 34 38 41 46 48 53 54 54 54 50 48 44 38 34 31 29 32 34 33 27 27 24 19 17 12 11 12 12 11 11 7 7 13 11 13
15 11 12 13 5 4 11 1 7 18 20 23 27 35 38 41 40 46 50 54 57 56 56 54 51 46 42 38 34 33 32 31 28 25 22 20 23 19 18 14 11 13 12 9 11 11 12 12 11
11 9 11 3 4 8 10 9 5 15 29 25 25 35 38 42 42 46 49 53 55 57 56 59 54 49 44 40 38 38 35 31 30 27 24 23 20 20 19 18 12 12 13 13 13 13 12 13 12
15 6 6 3 6 9 10 6 14 24 29 25 29 37 40 44 46 45 48 47 52 58 58 59 56 51 47 42 41 40 38 32 30 30 28 24 23 23 21 20 18 15 15 15 14 16 14 12 13
12 17 9 12 5 9 4 9 12 13 32 40 42 48 45 47 45 43 50 54 55 59 58 58 56 52 49 45 41 41 40 36 34 32 29 29 27 23 19 22 20 17 16 16 16 16 15 13 17
9 16 14 4 2 1 4 7 7 9 12 16 36 41 42 52 49 50 50 53 54 60 61 60 58 55 52 48 42 40 41 40 38 35 31 30 27 26 22 22 21 19 17 16 17 18 18 18 16
24 7 6 3 16 10 5 6 12 9 11 9 16 36 48 50 54 48 50 53 56 62 64 61 59 56 54 50 46 42 41 41 40 37 34 31 30 27 26 23 22 22 22 21 19 18 19 22 21
15 16 5 6 5 10 4 10 8 10 11 11 15 38 44 49 51 53 53 54 59 60 62 61 59 57 54 51 48 46 43 41 42 41 38 34 31 32 30 29 27 23 22 27 25 23 20 24 25
7 10 13 9 11 3 5 14 6 12 12 10 17 40 53 51 57 57 55 54 53 55 59 61 59 57 53 47 47 47 43 42 43 43 42 38 35 34 34 31 32 31 27 24 27 25 22 24 28

GFSSGP_850_spd_063.txt.gz
Wind_Speed
9 11 5 2 0 1 2 2 3 3 5 11 30 9 9 4 3 3 25 34 32 33 31 28 24 23 21 19 16 16 16 16 15 15 15 15 15 15 14 13 12 12 13 12 9 10 11 12 11
11 11 5 2 1 0 1 2 2 2 3 24 18 11 5 3 4 21 40 34 32 32 31 28 24 22 20 17 16 15 15 15 15 15 16 14 16 15 14 13 13 13 13 12 11 12 14 15 16
12 5 2 1 1 2 1 3 9 10 9 16 7 10 3 4 11 41 37 35 33 32 30 27 24 20 18 16 16 14 14 14 14 14 14 14 15 15 14 13 13 13 13 14 13 12 14 14 15
9 4 3 1 1 2 3 4 8 11 5 6 16 10 5 3 40 28 39 33 33 30 29 26 24 20 16 15 15 13 14 14 15 13 14 15 16 14 14 13 13 13 13 13 13 12 14 14 16
7 2 1 1 0 2 5 6 2 7 3 3 3 5 11 24 24 38 37 33 33 31 28 27 23 19 16 15 15 13 14 14 15 13 12 14 15 14 14 15 15 14 13 12 12 12 12 12 12
3 1 1 1 2 2 6 14 2 7 4 10 15 17 9 12 34 37 35 33 31 30 28 26 22 19 17 16 14 13 14 14 14 13 15 14 16 16 16 16 16 16 15 16 14 11 11 12 11
2 2 1 2 3 4 3 11 9 7 6 6 22 6 13 26 38 36 34 31 30 28 27 25 22 20 17 16 14 13 14 14 15 16 16 17 17 16 16 15 15 14 13 12 13 13 11 11 12
3 1 2 3 2 4 3 5 15 12 4 18 17 8 14 41 36 33 32 29 28 27 26 25 23 20 18 16 14 14 14 15 15 16 16 17 16 16 15 13 13 12 12 11 11 12 12 12 10
4 1 3 3 3 3 2 4 13 6 15 4 7 14 38 46 36 33 31 29 28 27 26 25 22 20 18 16 15 14 14 15 16 15 15 15 15 14 13 12 11 10 9 10 8 11 11 11 10
4 2 5 6 4 2 2 14 14 6 12 5 14 21 48 42 37 37 34 32 31 29 27 25 22 20 18 16 15 15 16 17 17 16 15 15 13 12 11 9 7 8 6 6 8 9 11 10 10
7 5 6 5 6 5 5 5 5 18 4 10 38 48 51 41 38 39 34 33 33 30 27 26 23 20 18 16 16 16 18 17 14 13 12 12 11 9 8 7 8 9 3 4 8 9 9 8 8
4 14 17 8 11 9 4 11 8 20 5 22 35 57 52 45 42 40 37 34 33 31 28 26 23 21 18 16 16 17 17 13 12 11 11 8 9 7 6 5 4 4 4 5 9 10 7 5 5
12 9 11 18 13 13 7 10 9 14 2 22 45 41 43 43 40 37 35 33 32 32 29 26 24 22 20 18 18 18 14 14 10 10 8 3 5 3 6 4 4 6 5 8 8 10 8 6 6
6 16 20 20 13 8 9 3 14 9 21 34 43 40 37 40 43 38 38 36 34 32 30 26 24 22 21 20 20 18 15 14 11 7 7 3 4 2 4 4 4 5 7 6 9 8 8 8 8
18 8 8 9 12 6 13 5 2 22 30 34 37 36 35 35 39 42 41 39 34 32 29 28 25 24 23 21 21 18 14 12 10 5 5 4 3 1 2 3 5 4 9 9 7 6 7 9 6
3 4 2 7 6 9 6 3 9 22 28 29 30 31 34 34 38 40 40 38 34 31 30 29 27 27 26 21 22 17 14 13 13 12 6 5 4 3 2 5 3 4 6 5 4 8 7 5 4
2 4 7 3 11 5 5 4 12 23 26 28 30 31 33 31 33 36 39 38 35 33 29 31 30 29 28 23 23 18 13 14 15 14 10 6 3 2 2 3 2 3 4 4 5 6 5 4 2
5 4 4 6 9 9 12 4 16 28 28 30 31 32 34 36 40 40 41 38 36 34 32 32 32 29 26 25 23 20 16 16 17 13 11 8 5 2 3 3 3 5 6 5 5 5 4 2 3
2 4 5 4 7 15 18 12 20 29 25 26 31 32 34 38 40 39 39 42 39 35 36 36 35 32 30 28 26 26 24 21 17 15 13 11 10 7 4 7 6 8 7 6 5 6 4 4 2
7 8 7 5 4 6 14 16 16 20 31 35 34 34 36 35 36 40 44 45 43 41 40 39 39 36 34 31 29 27 28 27 23 19 16 15 14 11 9 7 12 9 10 9 6 8 7 6 6
11 14 10 4 4 8 10 7 10 14 19 25 32 37 35 40 40 42 47 48 50 44 44 43 40 38 40 36 32 32 29 30 30 27 22 17 15 14 12 7 10 12 11 10 9 6 8 7 7
12 11 15 9 6 6 7 5 7 20 20 19 31 39 39 40 40 44 46 47 54 52 50 46 44 41 40 41 36 33 29 37 36 32 27 22 19 17 14 10 9 13 12 12 9 6 9 9 12
11 6 10 5 7 6 8 2 6 12 19 22 26 36 41 44 46 48 51 53 51 54 52 52 48 45 41 45 41 35 30 31 36 35 29 28 23 20 17 14 10 12 13 10 10 10 8 13 14
4 5 5 2 4 10 10 10 6 7 18 23 28 35 38 42 44 49 50 49 51 51 52 54 52 50 46 46 45 39 32 31 31 32 32 27 27 26 21 17 15 12 13 13 11 11 11 14 16
12 5 4 3 6 10 9 8 18 11 20 24 23 37 41 40 43 44 47 50 52 54 54 53 56 53 51 48 48 42 36 31 31 29 29 29 26 26 24 20 18 18 13 13 13 15 14 14 15
12 13 6 6 4 9 7 7 11 13 20 31 39 40 42 45 46 48 48 51 53 53 55 57 55 55 54 50 51 45 39 33 32 30 28 30 28 25 21 21 19 19 18 14 15 15 18 17 16
8 15 10 2 1 2 3 6 10 7 10 15 26 27 36 40 46 49 49 50 51 52 57 57 56 56 55 52 51 48 41 36 35 33 29 30 28 25 23 21 21 19 18 18 16 17 17 19 18
16 6 5 1 15 10 4 4 8 9 10 10 12 28 35 42 46 42 48 50 53 55 57 56 56 54 55 54 53 49 43 37 35 34 33 32 30 27 27 25 23 22 20 20 20 19 18 19 21
1 12 4 6 6 12 4 7 6 9 11 14 14 29 36 42 45 47 54 50 53 50 54 56 57 56 56 53 52 52 46 41 37 36 35 33 31 30 29 27 25 23 21 21 24 24 23 22 21
9 7 11 8 9 4 3 16 6 10 9 9 15 30 41 42 45 47 52 51 49 49 51 56 56 57 57 54 52 51 47 44 41 39 37 35 35 33 31 31 28 27 25 23 22 24 28 27 25

GFSSGP_850_spd_066.txt.gz
Wind_Speed
11 12 8 4 1 1 2 1 1 3 7 11 22 7 7 4 4 2 26 31 32 29 28 24 21 20 18 15 15 14 14 13 13 13 13 13 13 13 13 11 11 11 12 10 8 9 10 11 11
12 12 5 1 2 0 1 2 2 3 8 22 12 12 5 3 5 16 35 34 32 32 29 24 21 19 17 15 15 14 14 14 14 13 13 13 14 13 13 13 12 12 10 10 10 12 14 13 14
12 7 3 2 1 2 1 2 4 6 15 19 5 8 4 4 5 40 33 37 34 32 30 24 21 19 17 16 15 15 14 13 13 13 13 14 13 13 13 13 12 12 12 12 12 13 14 14 14
10 4 4 1 4 2 2 2 7 11 9 8 11 6 4 2 25 30 37 36 35 32 28 25 21 19 17 15 14 13 14 14 13 13 13 13 13 13 13 13 13 12 12 12 12 12 14 13 15
7 3 1 1 2 2 5 2 3 7 6 8 5 4 6 14 19 37 37 35 34 32 28 25 21 17 16 15 14 13 15 14 13 12 13 14 13 13 13 13 13 12 11 11 11 11 13 13 13
4 0 0 1 1 2 1 6 2 2 8 9 9 12 6 13 30 39 35 34 32 31 28 25 20 16 15 14 13 13 15 15 14 13 14 14 14 14 15 15 14 13 12 11 11 11 11 13 13
2 2 1 1 2 2 4 4 10 6 10 5 22 5 12 19 37 35 34 32 31 29 27 24 20 17 16 14 13 13 14 15 16 13 15 16 15 15 15 15 14 12 11 11 11 10 10 11 11
2 1 1 2 3 3 3 8 9 8 5 23 13 8 14 34 39 35 33 31 29 28 26 24 21 18 17 15 13 13 14 15 16 16 15 15 15 14 13 13 14 11 11 11 11 11 12 11 11
3 1 2 3 4 4 10 3 8 8 18 8 14 13 31 40 39 35 33 30 28 27 26 23 22 19 17 15 14 14 14 15 16 15 15 14 13 13 12 10 10 10 8 9 10 11 11 10 10
3 2 6 4 2 2 4 7 11 6 15 5 10 17 40 43 38 38 36 35 31 28 27 24 22 19 17 15 15 15 15 15 14 14 13 12 10 9 9 8 7 8 8 8 9 10 10 8 8
6 5 4 2 3 3 5 8 9 15 4 12 29 38 48 46 39 36 37 36 34 30 28 25 23 20 17 15 15 15 16 16 15 14 12 9 7 6 6 6 7 7 5 6 8 9 10 8 5
3 9 11 3 3 9 4 12 7 16 6 15 26 42 54 47 41 38 40 38 35 32 29 26 23 20 18 15 15 16 17 15 12 12 12 9 7 5 5 6 6 5 4 6 8 9 8 6 4
6 4 5 14 17 13 11 13 7 16 2 12 30 46 45 42 37 36 38 36 33 31 29 27 24 21 19 16 17 19 16 14 11 11 9 6 4 2 2 3 5 5 5 7 6 7 6 5 6
8 16 17 17 21 13 9 2 10 8 12 30 40 41 39 42 43 41 38 36 34 31 29 27 25 22 19 18 19 19 16 13 12 11 9 5 4 2 3 4 5 4 6 5 7 7 5 6 6
11 4 5 8 5 5 12 2 0 19 25 35 35 35 33 34 40 43 40 38 35 33 30 28 25 23 21 19 21 19 17 15 12 9 7 5 4 3 2 2 4 5 6 5 4 7 7 5 5
6 4 1 4 8 7 7 5 5 22 31 32 33 34 33 32 41 39 39 36 34 33 32 28 26 24 23 22 22 20 16 13 11 8 6 3 2 1 0 3 3 7 7 4 4 6 9 7 5
4 4 6 5 8 5 7 3 8 24 26 29 32 34 32 31 35 39 38 38 35 34 32 30 27 26 25 23 23 20 16 13 12 13 9 6 2 1 1 2 1 5 4 6 8 6 6 4 1
5 3 3 6 5 7 6 3 11 22 24 25 29 31 32 33 39 38 36 38 36 34 33 31 29 28 28 23 24 21 17 14 13 13 10 8 4 2 2 2 1 2 3 4 5 3 2 1 2
4 4 5 4 6 6 9 7 15 22 20 24 28 30 32 36 34 36 36 37 38 35 34 32 33 31 33 29 27 25 21 16 15 15 12 11 7 4 2 3 2 2 3 3 4 4 4 2 2
7 2 3 5 7 7 7 13 9 16 23 29 31 32 34 32 32 36 40 39 40 38 37 33 33 33 32 30 29 26 23 18 14 15 13 12 9 7 5 4 5 5 4 4 3 4 4 3 3
9 10 4 2 4 2 4 3 6 10 17 21 25 28 30 36 38 40 42 44 42 41 40 38 35 35 34 30 29 26 25 23 21 20 16 13 11 9 8 7 5 7 8 5 5 4 6 4 2
9 10 12 5 4 4 6 4 6 10 18 19 27 30 32 34 35 38 42 43 47 45 43 41 38 38 37 33 31 30 27 26 27 24 22 18 14 12 10 9 6 6 8 6 6 5 6 6 5
7 12 12 8 6 4 3 1 6 12 14 19 25 34 35 38 40 42 45 53 50 46 45 43 39 40 39 38 36 34 32 29 27 28 26 25 22 18 14 12 10 7 8 8 7 8 5 10 9
6 3 4 2 5 10 12 8 6 7 15 19 24 33 37 39 41 44 46 48 47 49 46 47 44 42 41 39 37 38 37 32 28 26 30 29 26 23 19 16 14 11 8 9 9 9 8 8 11
7 6 2 3 5 12 8 6 15 4 12 17 23 35 41 41 42 43 45 44 47 50 52 49 50 48 45 42 40 37 38 35 30 26 24 29 30 27 25 22 17 14 11 9 11 12 11 11 14
9 11 6 7 4 9 5 9 13 14 19 22 27 36 35 38 40 43 49 51 49 51 51 51 50 50 48 47 44 40 38 39 35 29 25 25 26 26 21 20 19 16 14 14 13 13 13 14 14
4 14 9 3 1 1 4 8 9 5 7 7 16 24 35 42 43 45 48 51 52 51 52 53 50 49 49 46 47 44 41 40 40 33 27 26 25 24 24 20 19 18 17 17 17 16 16 15 17
7 4 3 1 10 8 4 6 7 9 15 9 7 22 33 40 42 41 45 49 52 55 55 54 51 48 47 46 46 45 43 40 41 37 32 29 27 25 26 23 21 20 19 19 19 19 18 16 16
5 4 3 4 7 10 3 8 6 7 9 12 13 28 32 38 43 47 51 53 52 51 53 55 54 51 50 49 45 44 44 43 42 40 35 32 29 26 27 26 25 23 22 21 21 21 20 21 20
4 3 3 3 6 4 5 11 4 9 8 8 11 28 33 35 42 48 50 49 47 49 51 54 53 52 50 47 47 46 43 44 42 42 37 33 32 30 28 27 26 27 26 24 23 22 23 24 24

GFSSGP_850_spd_069.txt.gz
Wind_Speed
12 12 8 4 2 1 1 2 2 6 8 10 20 7 8 5 0 3 26 28 32 29 26 23 21 19 16 14 13 12 12 12 12 12 11 12 11 12 10 10 10 11 9 6 7 8 8 10 10
14 12 5 2 1 2 3 6 5 2 11 19 10 9 5 4 4 17 30 33 30 29 24 23 20 18 15 14 13 12 12 12 12 11 12 13 13 11 11 11 12 10 8 7 11 11 11 12 13
12 8 2 1 1 2 3 5 3 3 16 16 6 6 3 4 7 32 26 35 31 29 26 23 20 17 15 14 13 13 13 12 12 12 12 12 12 13 12 12 11 10 11 9 12 13 14 15 15
9 4 4 2 3 3 2 4 5 14 12 6 10 7 5 5 20 24 38 34 32 29 25 22 19 16 15 15 13 12 11 11 10 11 12 13 13 12 12 12 11 11 11 11 12 12 12 12 12
8 2 2 2 0 1 1 1 4 14 8 8 4 5 5 9 22 33 38 33 30 28 24 22 19 17 16 15 13 14 13 13 12 13 12 12 12 13 13 11 10 10 10 10 12 13 14 13 14
4 1 2 1 2 2 2 5 9 9 9 9 6 9 5 12 24 34 35 33 31 27 25 22 18 17 15 14 14 14 13 13 12 13 13 13 13 14 13 12 10 9 9 9 9 11 12 12 12
2 2 2 1 1 3 4 10 8 11 10 8 12 6 8 17 29 32 33 32 31 26 25 23 19 17 14 13 13 14 12 12 13 13 14 14 14 14 13 13 12 11 11 9 9 11 10 10 9
3 2 2 3 1 2 6 6 9 10 6 15 12 7 11 25 31 29 29 28 28 26 25 23 19 17 14 14 13 13 13 14 13 14 15 15 15 14 13 12 10 10 10 10 9 11 11 10 10
3 2 4 2 2 2 6 4 7 7 18 5 11 8 23 32 30 29 29 27 28 26 26 23 20 18 16 14 13 13 14 14 14 15 14 14 14 13 12 9 8 10 10 11 10 11 11 9 10
6 3 5 2 2 1 7 8 12 8 16 6 8 15 34 35 31 31 31 31 28 29 28 23 20 18 17 15 15 14 15 14 14 14 14 13 11 10 9 8 9 9 9 9 10 10 10 11 9
7 4 4 3 4 4 6 6 8 12 10 12 24 29 37 36 32 31 29 29 29 31 27 25 22 19 17 15 15 15 14 14 13 13 12 11 9 7 6 6 7 8 7 8 9 9 8 8 8
6 12 8 2 4 6 6 7 8 16 1 12 25 33 42 37 35 32 31 30 28 31 28 26 23 20 17 16 15 15 15 14 13 12 10 9 8 7 7 7 7 6 6 7 8 8 6 5 5
13 7 6 10 12 8 5 10 4 13 3 15 26 35 39 37 33 30 29 29 31 31 30 27 24 21 19 16 16 17 16 13 12 11 9 9 6 4 4 4 4 5 6 8 7 5 5 5 5
4 19 12 9 10 9 8 7 9 5 13 21 28 35 38 36 35 30 29 29 32 33 31 28 25 22 19 18 18 18 15 13 12 10 7 7 6 4 4 4 5 5 6 5 5 6 4 4 5
10 2 5 11 8 5 7 6 8 13 17 24 27 32 36 34 31 31 30 30 33 32 30 29 26 23 21 19 21 19 16 13 12 11 8 7 7 6 5 4 4 4 5 5 4 7 6 6 5
6 6 4 3 12 5 11 5 6 17 22 24 27 31 33 34 33 29 28 29 33 31 31 29 27 25 22 21 21 19 18 15 12 10 7 6 5 5 4 5 5 6 6 4 5 8 6 5 5
5 9 15 5 11 6 11 4 11 17 20 23 26 29 32 32 31 30 29 30 34 33 31 30 28 26 24 22 23 20 18 15 12 9 7 5 4 5 4 5 5 7 7 8 9 9 8 5 2
11 13 7 14 9 12 13 9 11 19 21 23 26 28 30 33 35 31 29 29 33 33 32 30 29 27 25 24 24 22 19 16 13 12 8 6 5 4 4 4 2 4 6 7 7 6 5 4 3
7 5 12 7 8 13 16 15 13 19 19 23 26 29 31 35 31 30 29 30 32 34 34 33 31 29 28 28 27 25 22 17 14 12 11 7 6 4 4 3 3 4 6 5 6 4 2 2 1
12 6 8 9 5 9 12 17 12 19 26 29 29 29 31 29 32 32 31 31 34 37 36 35 34 31 31 29 28 27 23 19 14 13 12 10 9 6 4 3 1 3 4 4 4 4 5 2 2
18 18 9 6 4 9 5 11 12 16 17 22 25 26 27 31 34 34 34 34 32 39 39 39 36 34 32 33 29 27 24 21 17 15 13 11 10 8 6 5 3 4 6 4 3 3 6 5 2
19 15 14 11 5 9 10 11 10 15 19 19 27 29 31 32 32 33 35 34 35 40 42 38 37 35 34 33 34 30 27 25 23 18 15 13 10 8 8 7 5 4 5 4 3 2 4 5 3
13 8 16 18 13 11 12 7 14 14 16 21 27 32 33 33 35 36 38 39 38 37 42 42 40 35 35 36 34 30 29 24 21 20 17 18 16 14 10 9 8 6 4 5 4 5 4 4 6
11 5 11 12 13 17 19 12 14 13 18 18 23 31 34 35 36 35 36 34 35 35 40 43 42 40 37 37 36 34 31 27 24 22 20 22 22 20 17 14 12 10 7 6 6 6 6 4 6
16 13 5 8 11 17 16 15 17 8 17 18 19 30 35 37 38 38 37 36 36 38 39 46 45 44 41 40 40 38 34 32 29 26 22 22 24 25 22 18 17 13 11 8 6 8 7 7 7
21 18 8 12 12 15 16 12 15 23 17 12 18 24 29 35 38 40 41 40 41 44 47 49 48 46 45 42 41 39 36 34 31 31 28 22 21 21 22 21 19 17 14 11 10 9 9 10 10
11 21 19 9 2 9 14 17 16 7 17 21 21 18 25 32 37 41 41 42 43 45 47 48 50 47 46 46 42 40 38 36 33 31 29 28 22 19 18 20 18 17 17 15 14 13 12 12 12
9 7 16 13 19 13 8 17 13 20 20 14 11 20 24 28 32 35 38 42 45 47 45 44 45 46 46 46 45 43 41 38 35 33 31 31 26 21 18 20 20 18 19 18 17 17 15 15 13
8 10 8 9 17 15 10 9 5 17 15 20 24 27 24 25 29 35 39 43 47 45 46 46 45 43 45 44 43 42 41 39 38 36 32 31 29 25 22 21 22 21 21 20 19 17 16 17 16
6 5 10 11 13 15 16 17 2 8 7 6 11 18 23 25 27 33 37 36 38 44 45 51 49 47 45 43 43 43 41 39 38 37 33 30 30 28 25 24 24 25 24 24 24 21 19 18 18

GFSSGP_850_spd_072.txt.gz
Wind_Speed
11 10 6 3 3 2 2 1 3 6 9 6 15 4 10 8 5 6 26 23 26 23 21 21 19 18 17 15 14 12 11 11 11 11 10 9 8 8 8 7 7 8 7 7 6 7 8 8 7
12 10 4 3 4 3 5 5 5 4 12 18 12 15 7 10 9 22 28 28 26 23 20 18 19 17 15 14 13 13 11 11 10 10 10 10 10 9 8 9 9 7 7 9 9 10 12 10 12
11 6 3 2 3 2 6 8 6 8 17 12 8 7 3 5 12 30 26 31 25 23 20 20 18 16 14 14 14 13 12 11 11 12 11 12 10 11 11 12 9 9 9 10 11 12 14 15 14
9 4 4 3 4 3 3 10 11 13 13 13 11 10 8 7 26 21 32 29 24 22 19 22 18 15 14 14 14 13 13 12 12 13 14 13 12 12 12 10 10 9 9 10 12 13 12 12 13
6 2 4 6 4 2 4 6 12 13 13 12 10 8 8 15 15 31 31 28 25 23 19 20 17 15 14 13 12 12 12 11 12 12 13 13 13 13 12 10 9 9 10 11 13 14 14 14 12
5 5 5 2 4 5 6 5 16 11 9 12 9 11 7 14 24 32 30 28 25 23 20 18 16 15 14 12 14 13 13 12 13 13 12 12 13 12 11 10 9 9 10 10 10 12 12 12 11
3 4 3 6 5 5 9 10 13 12 11 10 7 5 11 20 30 30 29 27 24 22 20 18 14 14 13 13 14 13 14 13 12 12 13 14 14 13 12 12 12 11 10 10 10 11 11 10 10
6 4 4 5 4 9 8 10 8 12 9 8 10 6 13 29 32 30 29 26 24 21 19 18 16 13 12 12 14 12 12 14 13 13 15 14 13 13 12 11 11 11 11 11 10 11 11 11 11
7 5 4 5 7 8 10 6 10 5 11 5 10 5 21 34 32 31 29 26 24 21 19 16 16 14 13 11 12 12 13 12 13 13 15 15 10 10 9 9 10 10 11 12 12 11 11 12 10
10 7 3 4 3 4 13 11 13 10 13 10 9 14 34 35 33 34 32 29 26 23 20 17 16 15 14 11 12 10 12 10 10 10 11 10 11 11 8 9 9 9 10 11 11 11 14 11 8
12 4 6 4 4 5 12 9 11 10 10 13 18 31 36 36 33 33 31 29 27 24 21 18 17 16 14 13 12 11 11 10 10 11 11 10 8 7 6 6 6 6 10 7 7 8 6 6 6
10 13 8 4 5 4 3 10 9 11 10 11 20 31 40 37 36 34 31 29 27 25 22 19 17 17 15 13 12 12 11 10 9 9 10 8 7 8 7 7 5 6 5 8 7 5 6 6 7
16 8 11 11 8 1 5 8 3 9 5 14 23 32 38 35 32 31 29 27 26 25 22 20 18 17 15 15 12 12 11 11 9 8 8 7 7 6 5 5 4 5 5 6 7 6 5 5 5
6 19 13 8 10 5 7 9 9 6 10 17 25 32 37 34 34 32 30 29 27 26 23 21 19 18 16 14 14 13 13 11 11 8 6 7 5 4 6 4 5 5 6 6 6 6 5 5 5
15 9 13 20 17 8 15 11 12 13 14 18 23 29 34 33 31 32 30 28 26 25 23 22 20 18 17 15 17 13 11 10 9 8 7 6 6 4 7 5 5 4 5 6 5 7 7 5 5
14 16 14 17 17 10 13 15 12 14 17 19 22 27 32 33 32 30 29 27 26 25 24 22 20 19 19 16 18 13 11 11 10 8 6 6 5 5 5 5 5 6 6 5 5 7 8 6 6
10 13 19 14 17 12 14 8 12 16 17 19 23 26 30 32 31 29 29 28 27 25 24 24 22 20 19 18 18 15 14 12 10 8 6 4 4 5 6 5 5 6 7 6 6 7 6 6 4
15 19 17 18 15 19 16 7 12 17 17 21 22 25 29 32 34 30 29 28 26 26 24 24 22 21 21 17 20 15 14 12 10 8 6 6 3 6 6 3 6 6 7 7 8 8 6 4 5
9 11 17 16 11 17 18 16 16 16 16 19 22 25 28 31 32 30 29 29 28 27 26 26 25 23 23 21 19 17 16 13 10 8 10 7 5 4 5 2 5 7 8 6 7 6 5 4 5
14 12 14 11 15 14 17 17 13 18 18 21 23 25 26 28 31 32 31 31 32 30 28 28 28 27 27 21 20 17 15 13 10 8 10 8 8 5 4 5 3 4 7 6 6 6 5 3 6
19 18 13 15 15 13 15 17 17 17 18 19 20 22 24 29 32 34 34 33 33 33 32 30 34 32 30 22 21 18 15 13 13 10 10 9 9 7 6 4 4 3 5 5 5 4 6 4 3
19 18 15 12 11 14 19 14 20 18 19 19 24 27 28 29 31 33 35 36 36 36 32 31 32 35 34 32 23 22 19 17 14 12 11 10 10 7 7 6 4 3 3 4 5 4 5 7 3
18 11 15 18 16 17 15 13 13 22 18 21 25 29 30 32 32 34 37 38 37 35 35 33 32 37 36 35 29 25 23 18 15 14 13 14 12 10 8 6 6 4 3 5 5 5 7 5 5
10 12 14 15 16 18 23 16 17 16 20 21 24 29 31 32 34 34 34 35 34 35 33 34 33 40 40 39 37 33 26 23 19 17 15 13 12 11 13 10 8 8 6 5 5 5 4 7 7
16 16 10 11 14 17 22 21 17 8 21 19 20 28 30 32 33 34 35 36 37 38 37 36 38 41 42 39 39 37 34 29 22 18 16 14 13 13 13 14 12 9 8 9 7 6 6 5 6
22 19 13 18 14 16 22 17 22 24 1 17 23 24 26 30 33 34 37 37 38 39 40 39 42 46 44 41 40 39 36 30 27 23 19 16 15 13 14 15 14 12 12 10 9 6 6 8 5
16 22 21 22 10 11 17 21 15 18 23 18 15 15 24 27 31 35 37 39 38 39 42 44 44 46 46 45 43 40 40 38 28 27 24 22 18 14 14 14 14 14 14 16 12 9 10 9 7
19 12 19 16 20 19 14 18 17 23 18 20 22 22 21 23 27 31 35 38 39 39 39 40 43 47 48 46 44 42 41 40 38 33 30 25 20 20 16 14 14 15 14 16 17 13 12 11 9
15 16 16 18 17 14 15 12 11 16 22 21 16 21 23 24 23 29 34 38 41 38 37 39 39 40 40 45 46 44 42 40 39 36 34 31 27 25 22 19 16 16 17 17 18 18 14 13 12
12 14 26 14 24 17 17 14 6 6 17 15 21 23 24 25 21 23 28 31 36 40 39 40 40 39 38 42 48 47 46 43 37 38 35 32 30 26 24 23 21 19 18 17 20 20 15 16 15

GFSSGP_850_spd_075.txt.gz
Wind_Speed
10 9 7 5 3 5 4 5 2 9 8 14 10 10 15 15 6 12 29 25 26 24 22 21 18 17 15 13 11 10 9 9 8 7 5 5 6 7 6 8 9 9 8 8 7 8 8 8 8
8 9 5 4 4 2 6 8 7 7 9 14 12 15 12 15 12 32 28 29 26 23 20 18 17 16 15 13 12 11 10 9 9 7 8 8 8 7 9 9 8 7 10 10 11 12 10 12 12
10 8 5 3 4 1 10 10 10 14 17 11 9 8 10 12 27 29 29 29 26 23 20 19 18 15 15 14 13 10 11 9 10 11 10 9 9 10 9 9 9 10 11 12 14 14 13 14 12
8 4 7 5 2 3 14 5 10 16 12 4 12 12 13 13 29 27 30 28 25 24 18 20 17 15 14 13 13 12 11 11 11 11 10 11 11 11 10 9 9 10 11 11 14 14 13 13 13
6 6 5 6 3 6 7 11 16 14 13 13 11 10 14 21 18 31 30 26 25 21 19 19 16 14 14 13 12 12 11 12 13 12 11 11 11 11 9 9 10 11 12 13 14 14 13 12 11
5 6 4 3 4 5 7 12 15 11 12 15 20 20 12 17 25 30 27 24 23 20 19 17 17 15 13 12 12 13 12 13 13 12 12 12 12 10 9 9 10 10 11 11 12 13 13 13 13
11 5 5 5 8 10 11 7 12 18 16 13 15 11 16 21 30 29 26 24 23 19 19 16 14 15 13 14 13 13 12 13 13 12 13 13 11 11 11 11 11 11 11 12 11 11 12 13 14
14 5 2 4 7 6 17 15 11 10 9 11 16 6 20 31 32 30 27 25 22 21 18 17 14 13 12 12 13 13 12 13 13 13 14 13 13 11 12 10 10 11 11 12 11 11 12 12 13
11 10 7 5 8 8 13 5 3 10 12 6 7 10 27 36 34 31 29 26 23 20 19 17 15 13 13 11 12 12 13 14 14 16 17 15 7 10 9 7 9 11 12 12 12 12 12 13 14
17 12 0 6 13 13 16 16 11 9 12 9 9 17 33 38 35 33 32 29 25 22 19 18 15 15 14 12 10 10 10 11 11 12 12 12 7 10 6 7 9 11 12 12 12 12 7 16 13
18 15 10 28 10 8 6 18 20 10 13 17 19 30 35 38 35 32 30 28 25 23 20 18 17 15 15 13 13 10 11 9 8 11 10 9 6 7 9 6 7 9 11 9 9 5 7 12 13
17 14 16 15 3 5 8 6 12 11 7 16 24 29 37 38 35 33 31 28 26 24 21 19 17 16 11 13 13 11 10 10 8 8 10 7 8 7 0 8 5 6 3 7 5 4 7 6 5
18 17 12 13 5 6 6 17 0 16 12 18 26 29 35 35 32 30 29 27 26 24 22 20 18 17 12 14 11 11 10 10 11 7 7 2 9 5 4 3 3 4 7 5 2 6 7 4 5
11 20 16 11 11 9 11 13 8 17 13 20 26 31 34 34 32 30 29 28 26 25 23 21 18 17 15 12 13 11 11 11 8 8 7 8 7 5 3 3 5 5 1 10 7 5 11 6 5
19 11 17 18 13 8 12 12 15 19 16 22 24 29 32 32 30 30 29 28 26 25 23 21 19 17 15 12 14 12 10 10 10 13 7 4 5 6 8 4 5 4 1 4 3 6 6 6 4
16 18 16 20 20 19 16 18 17 21 20 22 24 28 31 31 30 29 29 27 26 25 23 21 19 18 16 14 15 12 10 11 7 8 5 5 0 5 6 3 2 4 4 9 6 6 5 5 7
14 16 21 18 22 18 17 10 12 22 19 22 25 27 30 31 30 29 29 28 26 26 24 23 21 19 17 15 14 13 12 10 9 7 3 7 1 1 6 4 4 8 3 4 4 6 8 4 7
18 19 19 20 19 21 19 10 21 38 22 23 24 27 30 33 33 31 30 28 27 26 24 23 22 20 19 15 15 14 11 10 8 7 8 4 5 3 6 4 5 9 5 6 5 6 4 5 6
15 17 21 18 16 17 22 16 17 18 22 23 25 26 29 33 33 31 31 30 28 27 26 26 25 24 22 18 17 16 14 13 10 9 7 7 6 5 6 6 6 6 5 6 8 5 5 4 3
20 14 16 20 17 16 19 17 20 17 19 23 24 25 27 30 33 33 32 32 31 30 28 28 28 27 25 20 18 16 15 13 11 9 9 9 8 7 5 5 3 7 4 6 7 4 10 4 5
18 18 15 16 15 18 17 20 19 8 18 22 23 25 26 31 36 36 34 34 33 32 31 30 31 30 28 21 20 18 16 13 13 11 9 10 9 8 6 8 3 4 7 5 5 6 5 7 5
18 17 18 16 17 16 20 16 22 27 27 19 20 27 28 30 33 36 35 36 36 35 31 30 31 32 29 29 22 22 19 18 15 13 12 12 11 10 8 7 6 5 7 6 5 4 3 4 6
18 16 17 18 16 16 19 18 17 24 20 22 23 27 30 31 35 38 39 38 37 35 34 32 32 33 30 33 25 24 21 18 15 14 15 13 12 11 9 7 7 6 4 6 7 7 10 4 3
18 17 16 16 15 17 23 20 19 17 22 22 26 30 30 32 33 34 36 36 36 35 34 33 34 36 36 34 33 28 25 21 17 18 15 14 12 12 12 10 9 7 6 6 5 6 9 8 9
16 19 13 14 14 18 23 23 17 18 21 19 27 31 32 33 32 34 35 37 38 39 38 37 38 39 41 38 36 34 30 28 20 18 19 15 14 13 15 13 12 10 8 8 7 7 8 9 8
21 21 13 21 16 17 23 25 21 20 12 13 28 34 32 33 33 34 35 37 39 40 42 41 42 43 43 44 41 39 36 25 25 22 18 17 15 13 13 13 14 13 11 9 10 6 7 7 8
24 22 23 23 21 18 18 26 20 27 21 16 17 28 32 34 33 34 35 37 38 40 43 44 42 44 43 45 45 42 40 34 26 25 24 18 17 14 13 14 14 14 13 13 13 10 10 11 8
21 16 22 17 23 23 18 19 19 23 22 23 14 18 26 34 32 32 35 36 38 39 41 44 44 44 46 45 46 45 42 39 35 30 27 22 21 20 11 14 15 15 16 15 17 12 11 13 10
17 19 16 17 21 18 15 13 13 23 19 17 23 22 22 24 30 31 33 35 37 37 37 41 43 43 43 43 44 43 42 40 40 36 31 31 24 21 22 18 15 15 16 16 18 17 14 13 12
24 19 27 15 21 20 16 13 8 14 19 23 23 30 27 26 28 28 30 32 35 38 38 39 41 42 41 41 45 45 45 42 39 42 39 33 29 27 25 22 20 17 18 18 18 17 16 17 16

GFSSGP_850_spd_078.txt.gz
Wind_Speed
8 9 3 7 3 4 1 3 4 6 9 23 15 18 12 5 3 9 30 23 25 21 21 18 16 15 14 11 9 9 10 8 7 6 6 7 9 9 10 11 10 11 10 10 11 10 9 9 10
8 9 7 5 3 2 3 8 10 11 14 17 24 17 21 17 21 30 30 28 25 22 20 19 17 15 13 10 9 8 8 7 6 6 6 9 9 10 10 10 10 13 13 13 14 12 14 12 12
13 9 4 3 1 3 4 11 12 19 19 15 21 15 11 19 29 30 31 29 25 22 18 19 17 15 13 12 9 9 9 9 9 10 9 9 10 11 10 11 12 12 14 13 13 14 14 12 14
5 4 8 5 5 7 2 9 16 18 13 13 20 14 26 29 25 34 32 29 25 23 18 19 17 16 14 13 11 10 10 11 11 11 11 11 11 10 11 11 12 13 13 15 15 13 13 14 15
9 5 5 7 4 8 9 10 19 15 11 17 23 22 29 21 31 32 31 28 27 23 20 20 16 15 15 13 12 12 12 12 12 12 12 12 11 11 11 11 11 13 15 15 15 14 12 12 14
7 4 6 7 7 11 11 12 16 16 22 17 28 30 16 28 37 31 27 27 29 23 19 19 17 15 14 12 12 11 12 12 13 12 13 13 12 12 12 11 11 12 14 13 14 14 14 15 16
12 5 8 12 9 9 9 14 12 16 18 20 27 16 19 33 35 28 26 32 24 24 19 18 17 14 13 14 13 12 12 11 11 11 12 13 14 15 14 13 12 12 13 14 13 13 15 16 18
13 6 7 7 5 6 10 15 18 7 11 22 26 11 26 37 30 28 29 31 25 24 17 16 14 13 14 14 13 12 12 11 12 12 12 13 13 14 15 13 12 12 13 14 13 12 14 16 23
16 11 10 9 8 4 2 15 13 4 15 16 8 25 33 39 33 28 29 30 30 21 20 16 13 15 9 13 13 12 11 13 15 15 15 14 9 10 11 11 12 13 14 15 14 12 14 16 15
16 13 10 8 10 2 19 4 14 7 11 18 16 29 37 38 34 32 29 28 24 23 23 20 15 16 13 12 13 13 14 13 13 13 14 14 8 6 9 9 13 15 16 15 13 12 16 18 12
20 14 7 9 21 20 20 16 20 6 17 23 28 33 40 39 34 32 29 27 27 23 23 21 19 15 20 9 14 12 8 8 7 4 7 6 7 7 4 6 14 15 15 15 9 6 14 9 9
18 21 11 16 27 24 12 8 7 28 11 10 27 34 41 38 34 33 30 27 27 24 23 25 20 16 20 10 14 10 10 9 2 8 10 7 6 3 6 6 4 5 8 12 12 6 13 16 15
17 16 19 18 26 17 11 12 3 3 22 21 27 33 39 38 32 32 29 27 26 24 25 21 20 18 21 14 12 13 10 7 11 4 4 2 6 5 3 5 4 6 8 2 12 9 4 5 10
19 17 20 18 24 14 19 14 10 26 29 26 28 33 35 35 33 32 30 29 28 25 25 21 19 18 19 13 13 14 10 11 3 6 4 0 5 5 3 1 4 6 7 11 13 6 13 11 10
17 18 12 17 17 11 11 13 12 28 29 31 28 32 33 32 32 32 32 30 28 26 24 21 20 19 22 14 18 14 10 8 7 11 4 2 4 7 5 2 4 8 9 10 6 8 5 8 8
13 17 16 16 18 16 10 14 15 20 19 29 29 33 34 31 28 30 30 29 29 26 26 22 19 18 21 11 22 13 8 10 8 4 3 1 2 7 5 3 5 4 7 6 5 3 6 9 11
13 14 19 19 20 18 15 8 9 8 8 29 29 33 35 32 29 30 30 30 29 27 28 23 22 20 18 16 22 12 11 9 7 8 0 3 3 5 6 3 1 8 4 7 6 14 8 5 6
16 17 18 17 18 19 18 12 13 33 20 15 31 31 36 35 34 32 31 29 28 27 28 25 24 23 19 17 21 12 10 11 10 7 6 4 1 4 8 2 7 8 6 7 10 7 9 5 9
20 20 17 17 18 19 16 16 15 12 6 15 21 30 36 37 33 30 30 30 29 29 28 28 26 26 22 19 23 14 10 12 7 10 9 8 1 2 8 3 10 5 4 11 7 4 2 4 3
21 21 19 17 18 17 18 19 20 12 15 44 42 33 31 38 38 32 32 32 31 32 30 32 29 26 25 19 20 18 15 13 11 11 11 9 5 5 4 5 5 8 1 7 5 10 6 5 7
18 19 18 17 17 16 16 15 15 9 5 18 38 33 31 36 42 37 35 34 33 35 34 33 32 28 27 23 21 19 18 14 14 16 14 10 8 6 5 4 3 8 7 4 6 5 4 4 4
19 16 19 18 16 13 17 15 26 20 14 17 16 13 34 33 40 38 37 36 36 36 34 33 36 32 31 26 23 25 22 18 19 14 12 10 11 8 7 6 5 5 8 5 5 6 4 5 5
18 16 14 16 18 18 22 14 9 26 25 13 19 40 31 35 40 42 41 39 37 35 37 35 34 35 32 32 25 26 23 21 17 15 15 16 12 12 10 5 6 4 7 8 8 7 8 9 2
16 17 18 17 15 16 20 18 17 17 19 14 27 39 31 37 37 41 41 39 38 37 37 37 36 38 36 35 31 29 28 23 18 18 20 16 11 16 13 8 9 6 8 8 7 9 12 11 8
18 15 12 14 14 16 19 19 14 15 28 26 25 34 39 37 40 38 41 41 42 42 42 40 39 38 39 37 37 33 31 28 24 22 17 14 16 15 11 17 14 9 9 9 8 8 13 14 12
18 19 14 18 13 16 20 19 18 23 24 40 45 38 43 41 41 41 42 42 44 42 44 43 43 41 39 42 40 38 34 33 28 19 26 20 16 19 18 15 12 12 11 10 9 8 9 7 12
20 21 21 23 20 17 17 17 23 21 18 9 12 12 16 16 43 42 42 44 44 45 45 47 45 44 40 41 42 44 40 35 33 26 23 23 21 15 18 16 14 14 15 12 10 9 8 11 11
21 18 20 15 21 22 19 19 15 19 19 19 16 9 16 39 43 42 43 43 43 45 44 44 44 46 44 40 44 44 45 41 35 33 27 25 22 19 13 15 15 14 17 16 16 11 9 12 11
13 19 21 14 17 16 15 15 15 23 21 18 21 29 34 38 42 23 43 43 44 43 44 44 44 44 46 44 41 45 45 44 41 34 33 30 28 28 23 16 16 17 17 19 19 18 17 18 12
14 18 19 12 15 14 16 16 17 13 22 19 16 33 35 16 32 50 36 46 45 44 43 45 45 44 45 45 43 43 46 46 44 43 37 37 32 31 31 28 20 19 18 18 19 17 21 16 17

GFSSGP_850_spd_081.txt.gz
Wind_Speed
4 10 6 3 2 2 3 4 3 12 11 18 16 15 9 6 3 5 28 34 29 25 21 19 18 16 14 12 12 12 10 8 9 9 10 12 12 13 13 12 12 12 13 13 12 12 14 15 15
9 6 5 4 1 2 3 4 3 11 19 32 31 26 16 6 14 34 33 31 27 25 22 20 18 16 14 12 10 10 9 8 8 9 10 11 12 13 12 13 13 13 17 14 13 15 15 16 17
9 8 3 2 2 3 3 6 9 19 26 23 21 19 11 16 31 32 35 30 24 25 23 21 18 15 14 11 10 9 9 8 9 10 11 12 13 12 12 14 13 15 16 15 15 14 16 18 20
9 3 4 2 8 6 5 10 20 14 27 25 22 13 22 23 25 40 36 28 27 25 23 20 18 15 13 13 11 10 9 10 11 11 12 13 12 13 13 14 15 17 17 17 16 17 18 20 22
6 2 2 4 7 7 13 19 21 11 17 27 40 16 24 24 38 39 35 26 26 23 22 21 18 16 14 13 12 11 12 12 12 12 13 12 12 13 13 14 16 16 15 16 16 17 18 21 20
6 2 3 4 4 7 4 19 18 20 24 28 31 23 15 35 35 37 32 27 22 24 23 21 18 16 15 14 13 13 14 13 13 13 13 13 12 12 12 13 15 15 17 17 17 18 19 23 21
11 2 4 8 6 11 4 16 12 20 29 22 28 17 26 38 35 35 33 26 22 24 23 22 19 18 15 14 13 14 14 13 14 14 13 14 14 13 12 11 13 15 16 16 18 20 20 23 22
16 2 2 6 8 11 10 27 17 14 10 33 38 10 27 39 33 36 33 27 21 25 22 21 18 16 16 16 14 15 14 14 16 16 16 15 15 15 14 12 13 14 15 17 19 20 20 23 21
21 4 4 5 7 6 15 8 7 9 15 29 11 38 47 43 35 36 35 33 24 20 20 19 18 18 16 15 15 15 16 17 18 18 16 14 16 15 13 12 14 15 14 17 19 20 24 23 20
14 5 6 7 6 4 6 9 21 9 9 13 21 37 40 38 38 41 40 37 23 20 17 19 19 17 16 15 16 18 20 18 16 17 17 12 11 12 11 12 16 16 16 16 14 18 22 16 17
16 10 10 7 11 5 10 22 19 8 12 19 40 47 41 41 36 36 43 33 25 19 20 18 16 21 16 18 21 18 17 14 11 11 13 11 10 9 10 15 16 15 16 15 9 12 11 19 15
12 22 15 19 7 6 3 5 5 8 13 36 49 50 48 40 35 38 38 36 24 25 26 20 21 21 17 18 17 16 14 10 7 7 7 11 11 7 7 10 12 9 12 12 9 10 20 20 14
14 13 18 23 21 12 16 12 6 14 10 31 42 45 41 36 35 34 39 32 23 31 32 27 24 21 17 12 13 14 12 11 12 7 7 5 7 9 9 6 6 10 9 9 11 12 13 14 12
19 21 18 30 24 10 9 9 18 20 5 25 41 42 36 34 37 34 36 33 28 27 36 28 24 23 17 9 10 15 11 7 8 4 3 3 8 9 13 10 9 10 8 8 9 11 15 13 12
16 9 9 10 21 15 28 14 10 27 10 18 32 37 38 37 34 38 37 34 32 32 31 28 23 23 23 18 20 15 17 16 11 6 2 5 5 10 6 7 11 17 15 14 12 11 7 10 12
8 7 6 9 8 15 25 9 14 20 25 20 23 31 38 38 32 36 36 33 34 29 29 25 22 25 23 21 21 18 14 10 13 9 2 3 4 9 9 7 9 15 11 11 10 11 10 12 11
7 6 8 11 15 10 10 13 19 34 24 20 28 30 34 34 35 36 37 34 34 28 29 23 19 28 29 26 21 17 14 13 7 5 4 6 7 9 8 7 7 9 9 8 8 12 11 15 12
8 6 8 9 12 13 10 15 17 31 32 30 27 32 28 28 31 36 39 35 35 32 29 22 22 20 30 25 25 16 17 14 10 8 8 6 8 11 10 7 12 10 7 8 14 8 6 6 9
14 13 10 9 13 8 15 15 20 28 23 21 24 7 30 27 26 35 38 37 38 34 32 27 28 23 22 31 28 21 16 16 9 9 8 5 6 9 8 10 11 8 6 11 13 9 6 6 7
16 14 14 12 10 9 15 16 16 16 11 25 31 27 20 34 33 29 39 41 40 37 34 30 29 27 22 29 29 21 15 16 10 9 11 6 3 6 7 12 10 8 9 11 8 8 7 8 5
13 10 10 10 17 9 13 6 5 6 7 14 21 26 22 28 43 33 37 43 40 38 36 34 34 29 26 22 28 22 17 15 13 15 12 9 5 7 7 7 7 6 6 9 8 11 9 10 7
8 9 10 11 8 4 4 5 11 14 10 11 14 16 28 29 38 41 39 42 43 40 37 34 36 32 29 25 28 27 24 22 19 16 15 8 8 8 5 5 7 8 8 6 10 10 5 8 6
11 10 8 6 8 6 17 2 6 9 12 18 24 33 34 52 48 46 49 43 43 42 41 39 36 37 33 29 28 30 28 24 20 18 13 14 8 8 5 2 5 9 10 8 11 8 12 7 8
5 8 9 6 2 4 11 3 2 12 20 18 30 43 48 44 54 51 48 45 43 44 43 42 39 39 38 34 31 32 31 28 21 20 20 18 12 12 13 9 4 6 9 9 9 8 11 9 7
4 3 4 4 4 6 9 8 9 22 17 19 25 40 43 39 53 51 47 45 44 45 47 45 43 40 40 38 36 34 34 31 24 21 19 23 16 12 10 13 7 6 8 9 7 8 13 12 10
7 6 5 6 4 8 9 6 10 12 25 30 37 48 39 45 54 54 53 51 48 47 48 47 46 43 41 41 40 36 34 33 28 23 21 20 14 13 13 11 7 5 9 9 6 10 12 14 12
8 7 11 6 9 8 7 8 11 15 7 26 27 26 31 37 41 49 52 51 52 50 50 50 47 44 41 40 41 41 36 37 34 28 25 20 17 15 15 17 14 10 8 11 8 8 10 13 13
4 6 3 4 4 7 7 10 5 10 19 17 19 28 27 24 33 27 22 42 55 54 52 50 49 46 42 40 42 46 41 36 37 33 30 30 23 22 16 21 20 14 12 14 13 9 10 11 10
15 7 5 2 4 9 4 8 6 20 11 17 21 32 40 21 31 44 26 23 24 48 54 54 53 49 46 41 39 44 46 41 39 39 32 31 28 26 19 17 20 16 13 15 15 13 12 11 10
14 15 2 2 7 3 2 8 16 21 21 23 28 35 39 48 50 46 41 38 25 25 47 56 56 53 49 44 41 39 44 46 43 42 39 35 31 29 18 19 21 19 15 15 17 16 16 18 15

GFSSGP_850_spd_084.txt.gz
Wind_Speed
6 9 7 2 2 1 2 7 4 8 9 13 30 9 11 6 2 3 27 34 32 28 24 22 20 17 15 13 14 13 12 12 11 12 13 12 14 13 11 12 11 12 13 11 12 14 14 15 16
12 9 4 3 1 1 3 5 8 6 12 27 14 20 5 4 8 25 40 31 31 27 23 22 20 17 15 14 14 13 12 12 12 13 12 14 14 12 12 12 14 15 14 11 13 15 16 16 16
13 5 2 2 2 3 3 8 13 21 30 20 9 11 5 6 22 41 38 34 29 25 22 21 19 16 15 13 13 12 11 12 13 13 12 14 14 14 13 14 17 15 14 15 16 17 17 19 19
10 5 4 2 2 6 5 7 25 20 14 10 21 11 11 17 27 31 38 33 28 25 23 21 19 17 15 14 13 12 12 14 14 13 14 13 15 15 14 14 17 16 16 17 18 18 19 20 19
7 2 2 3 4 6 7 3 22 11 5 20 12 9 9 14 24 36 33 30 28 27 24 21 18 16 15 14 14 13 13 14 14 15 14 13 15 15 15 15 15 16 17 17 20 20 22 22 18
2 2 1 5 15 8 6 11 14 19 20 20 18 20 7 25 33 33 28 29 27 26 24 21 18 16 14 14 14 15 15 15 15 15 14 14 14 14 15 17 16 16 17 17 18 21 23 21 19
2 1 0 2 7 7 6 15 10 19 19 13 25 10 22 34 32 30 25 27 24 23 22 21 19 18 16 15 15 16 16 16 17 15 15 14 13 13 13 14 15 16 17 18 19 22 24 22 17
5 1 2 3 1 5 3 13 8 19 9 25 25 9 26 38 34 28 25 23 21 22 20 20 19 17 16 16 16 17 17 17 18 18 16 15 15 14 14 14 14 15 16 16 18 23 22 19 16
4 2 3 3 2 3 2 5 13 5 22 11 12 22 42 43 35 32 30 26 26 22 20 20 18 18 17 17 18 18 19 19 19 19 18 17 16 16 15 14 14 15 16 16 19 23 21 18 16
8 4 4 1 4 4 3 6 13 2 15 3 8 33 42 44 34 37 33 29 28 25 21 19 19 19 17 18 18 20 21 20 18 17 16 14 15 14 15 15 15 15 15 16 19 20 17 14 11
5 6 6 5 9 12 8 7 3 5 5 11 28 40 43 42 35 37 33 28 25 24 20 19 20 20 18 19 21 22 21 21 16 17 16 13 14 15 15 15 15 17 16 15 22 13 17 13 11
3 12 14 16 15 16 9 3 8 6 3 7 35 46 46 39 36 38 33 26 26 27 24 20 24 21 23 21 21 19 18 16 15 14 12 14 13 15 12 13 14 15 11 13 14 14 18 18 12
9 15 14 21 16 12 18 9 4 7 4 11 38 39 41 38 36 37 31 25 28 28 24 23 22 26 24 20 20 19 17 16 13 12 11 8 9 11 7 9 10 12 13 12 16 20 18 16 11
8 12 15 24 16 17 13 9 8 7 5 26 39 36 38 37 37 39 34 30 30 27 26 24 24 22 19 17 16 17 18 14 10 8 8 8 10 8 7 7 9 12 7 14 13 13 12 14 12
17 6 4 16 21 8 21 6 2 6 13 32 31 31 31 34 32 41 35 32 31 26 27 25 24 20 16 10 14 15 17 13 11 9 7 6 8 11 9 7 7 12 13 15 15 14 12 10 12
4 3 3 5 21 14 6 4 8 10 12 29 30 30 31 33 34 37 37 34 32 26 32 26 24 21 17 13 17 14 14 14 14 9 5 8 9 12 13 10 10 14 13 14 12 10 10 10 12
7 2 4 7 24 10 9 5 14 30 25 34 33 31 29 33 24 41 41 36 32 26 34 30 26 26 24 19 17 17 15 12 15 9 9 10 14 11 10 9 12 12 12 13 13 10 10 11 10
4 3 5 4 3 7 11 6 21 28 19 26 35 34 27 35 29 40 42 36 32 31 32 28 24 26 28 24 21 18 16 13 10 10 12 12 16 12 12 11 9 12 10 11 13 13 12 10 8
4 4 8 14 10 6 16 14 23 26 17 20 26 35 38 29 28 36 42 40 37 34 35 30 25 25 32 30 25 21 18 16 13 13 11 11 13 14 13 13 13 12 10 10 12 11 8 11 10
6 7 12 11 5 2 9 13 15 19 19 25 30 29 34 40 33 42 48 44 42 38 36 32 27 23 27 27 30 23 22 17 12 13 12 10 12 11 10 17 14 11 13 14 13 10 7 11 5
6 6 11 10 6 8 12 8 12 12 16 21 29 39 37 40 38 40 47 48 45 43 40 35 30 24 23 26 32 25 21 19 19 17 15 10 12 11 12 15 12 11 15 14 13 11 8 10 7
7 7 10 6 3 1 4 3 8 14 13 15 30 35 36 43 39 41 49 51 50 45 41 37 33 28 26 25 35 30 28 27 22 18 14 11 12 11 10 10 11 12 12 14 14 13 11 12 10
11 10 7 2 3 5 3 5 4 14 12 14 32 37 36 49 49 46 45 52 51 47 44 40 36 31 29 28 38 31 28 25 21 19 17 14 11 13 11 8 11 11 12 12 15 15 14 11 10
7 4 7 5 3 4 7 4 2 13 26 20 28 30 38 45 52 47 39 47 50 49 47 42 38 35 32 32 31 36 31 29 25 20 20 17 14 13 12 8 6 10 13 11 15 14 15 10 11
3 6 3 4 4 5 2 4 8 19 18 25 26 32 40 39 43 51 40 44 51 53 50 45 41 39 35 36 33 34 35 31 26 22 21 20 18 15 12 12 10 10 11 12 12 13 16 14 13
3 7 5 5 3 4 6 4 5 11 24 35 40 45 42 30 40 50 52 43 53 54 52 48 45 41 39 37 37 34 36 35 30 26 27 24 22 16 9 10 10 8 9 11 9 12 15 16 14
8 2 7 6 1 4 3 8 9 17 15 14 33 34 40 41 34 45 50 44 49 53 52 52 48 44 42 39 37 38 37 38 36 31 25 26 21 14 16 14 12 10 8 9 12 11 12 15 17
7 6 3 3 5 3 4 5 3 16 20 21 13 32 41 37 36 38 41 44 43 49 52 51 50 47 44 42 38 39 39 39 39 34 26 26 22 19 18 17 16 15 13 11 12 12 14 14 14
7 8 6 1 4 6 2 3 6 12 16 20 21 34 36 43 40 48 43 46 52 41 46 52 53 50 47 44 40 39 42 41 41 40 32 29 26 24 22 21 19 22 17 13 14 13 12 13 14
6 8 6 4 7 3 3 2 4 12 24 34 29 7 23 36 41 45 46 37 43 46 44 50 51 52 52 43 41 39 40 43 41 43 40 33 31 30 27 26 21 23 21 16 15 15 16 15 16

GFSSGP_850_spd_087.txt.gz
Wind_Speed
8 8 6 3 2 1 1 5 2 5 5 14 28 7 7 6 2 3 25 35 30 28 25 23 20 17 15 16 15 14 13 11 11 12 11 12 11 11 11 11 12 11 11 11 12 12 14 14 15
11 8 4 2 1 2 4 2 2 2 14 26 20 18 5 3 4 19 39 32 29 27 24 21 18 15 15 15 14 12 12 11 12 11 12 11 10 10 10 11 12 12 10 11 13 13 13 14 15
11 4 2 1 1 1 3 2 4 12 26 24 6 10 4 3 9 37 36 33 28 25 22 20 18 16 15 15 13 12 11 12 12 11 12 11 10 11 11 14 12 13 11 12 13 13 14 14 15
10 4 4 1 2 3 4 9 16 17 10 7 17 8 6 3 34 26 35 33 27 23 21 19 17 15 14 13 13 12 12 12 12 13 12 12 12 11 13 15 14 13 14 14 14 14 15 14 13
7 4 2 2 1 2 8 14 14 10 4 9 4 8 15 6 13 34 35 30 25 22 20 19 15 13 13 13 13 13 14 13 13 13 13 13 11 12 13 15 15 15 15 15 16 18 17 14 12
2 2 1 2 4 6 8 6 8 3 9 13 14 15 7 12 27 34 32 27 23 22 20 17 15 14 13 14 13 14 14 14 14 13 13 13 13 13 14 15 15 16 16 16 18 20 16 14 12
2 1 2 2 3 5 4 11 13 7 12 5 14 5 17 22 34 32 28 25 22 21 19 17 16 13 12 14 14 15 15 15 13 12 12 12 13 14 15 15 16 17 16 16 19 19 16 14 11
3 1 3 3 2 3 2 4 12 6 5 17 12 5 14 35 32 28 26 24 23 21 18 17 17 15 14 14 14 15 15 15 14 13 13 12 13 13 14 15 16 17 16 16 19 19 15 11 10
6 2 3 3 5 6 7 1 10 7 17 5 4 16 33 36 32 31 29 25 23 20 17 16 16 14 14 15 15 16 17 16 16 16 15 14 14 14 15 16 16 16 16 17 19 16 13 12 11
5 3 5 2 6 10 14 6 8 5 6 9 20 35 34 35 33 33 31 27 25 21 19 17 15 15 16 17 17 17 19 17 16 16 14 11 13 15 15 16 17 16 17 18 19 17 14 11 7
7 4 5 2 9 24 18 13 5 2 4 4 32 39 39 36 33 31 28 25 25 22 19 17 17 16 16 16 18 18 18 16 16 14 13 11 11 14 16 16 17 17 17 18 17 15 13 9 6
4 8 6 8 11 11 12 17 11 10 4 5 28 36 42 39 36 33 29 25 25 22 19 18 18 17 17 18 19 19 19 15 15 12 10 10 11 13 13 15 17 17 19 19 15 12 12 8 7
4 6 11 12 18 9 11 8 5 7 7 5 31 33 31 36 35 33 26 22 24 22 21 21 20 21 19 21 21 19 15 14 12 9 10 7 9 11 11 12 14 11 17 17 13 14 13 10 6
4 10 13 18 17 12 9 8 7 9 6 10 28 32 32 31 35 33 30 25 26 25 23 24 25 23 19 19 18 15 16 14 12 8 8 6 6 7 7 9 13 13 12 14 18 15 13 10 5
15 7 4 11 16 7 12 2 5 13 15 18 30 31 30 30 31 33 32 27 29 25 27 24 25 23 18 16 16 15 14 11 10 8 5 6 6 5 8 7 12 10 17 18 17 14 12 10 10
2 4 3 3 11 10 8 4 11 18 24 22 29 33 31 34 33 33 34 29 31 26 27 28 26 22 17 14 14 14 13 10 9 6 2 7 7 4 7 9 13 13 15 13 17 12 10 8 9
6 1 1 2 12 5 9 4 7 17 23 23 27 34 32 33 32 35 37 33 32 30 27 27 26 20 16 12 16 14 13 11 9 8 5 5 10 9 8 11 13 15 17 15 13 12 11 9 7
1 2 2 2 7 3 8 8 4 15 17 27 29 30 35 37 38 40 40 36 34 30 28 25 27 21 18 14 15 15 14 11 10 8 7 8 10 10 9 10 11 13 14 12 10 10 11 9 6
3 3 2 4 7 6 15 9 11 17 10 24 27 32 33 38 36 39 42 40 38 33 32 28 27 25 25 22 21 18 15 12 11 9 9 9 11 7 10 8 9 10 10 10 11 10 8 6 5
2 1 5 6 4 6 3 4 6 12 14 25 30 32 35 34 38 38 45 44 41 38 34 32 28 27 29 27 23 17 15 13 11 11 9 8 12 9 9 9 9 9 9 14 12 8 6 8 6
3 3 4 6 2 5 8 3 2 3 7 11 19 31 32 34 37 40 46 48 46 42 37 33 31 27 24 31 27 23 19 17 17 15 13 10 13 11 8 13 10 9 10 11 10 8 7 9 6
5 7 7 4 3 2 3 2 5 8 10 12 17 28 29 33 31 41 45 53 50 45 37 34 33 30 22 23 32 31 25 23 20 16 15 11 11 11 10 13 11 9 14 13 12 11 10 11 9
9 5 7 5 3 3 3 4 3 8 11 18 27 23 30 30 33 41 46 52 52 47 42 37 35 32 26 23 28 33 29 24 20 18 18 13 12 12 12 12 11 12 11 14 14 15 13 14 12
7 4 6 4 4 3 4 5 4 6 20 17 23 26 28 35 33 33 43 47 52 50 46 40 38 36 30 25 27 35 33 27 25 21 20 18 14 14 13 10 10 13 14 13 15 17 14 14 13
5 6 2 2 2 5 5 3 2 9 11 16 21 32 37 37 39 37 39 44 52 54 51 46 41 39 34 30 29 32 36 29 28 24 21 21 17 15 17 14 10 11 14 13 15 17 15 15 14
3 6 5 5 4 4 6 5 1 6 15 20 19 28 26 35 40 37 44 48 50 53 54 50 46 42 37 33 28 30 34 34 29 27 22 21 19 15 12 15 13 10 12 13 14 15 17 16 15
3 5 0 6 4 4 2 3 5 22 15 20 22 19 30 38 43 43 45 46 50 51 54 54 49 45 40 35 29 29 31 34 34 30 25 23 21 20 17 14 14 13 12 13 14 12 15 19 18
7 2 4 4 4 3 4 4 3 17 20 20 22 23 18 37 40 43 42 50 48 50 51 51 51 47 42 38 33 29 30 32 34 34 30 27 23 24 22 18 17 16 15 12 13 14 15 16 19
7 6 5 3 3 5 3 2 5 10 11 15 25 38 16 32 29 35 39 40 45 46 48 48 51 51 47 42 35 33 31 31 33 36 35 31 24 24 23 19 19 19 19 18 16 15 15 17 17
16 5 3 4 5 2 3 1 7 8 12 21 29 36 38 20 6 12 23 30 30 37 42 46 48 51 50 44 40 38 35 32 33 36 38 36 29 27 26 23 22 22 20 23 22 17 17 16 17

GFSSGP_850_spd_090.txt.gz
Wind_Speed
6 6 5 2 2 1 1 2 1 4 5 11 27 6 7 6 2 3 26 35 33 29 24 21 18 17 14 11 10 10 9 7 7 8 8 9 9 9 10 9 9 9 9 10 10 11 11 14 14
7 5 1 1 1 2 2 2 1 3 13 28 13 14 3 3 4 18 36 34 32 28 24 20 17 15 13 11 10 9 8 8 9 8 9 9 8 9 10 10 10 10 11 11 11 11 12 13 13
9 3 2 2 2 1 3 6 7 11 26 27 7 8 3 1 10 39 37 34 31 26 22 19 15 12 14 12 10 9 8 9 8 9 8 7 8 8 10 10 11 10 10 11 11 11 12 11 11
6 1 2 1 2 0 2 10 4 15 17 4 15 7 5 3 33 27 37 33 29 25 21 18 15 13 13 12 10 9 9 9 9 9 8 8 8 9 13 12 10 12 12 12 12 12 13 12 11
5 0 1 1 3 2 4 5 8 10 7 9 3 5 9 11 18 37 35 30 27 24 21 17 14 13 12 12 10 10 10 9 10 9 9 9 10 10 12 12 12 11 13 15 16 15 14 12 11
1 1 1 2 1 2 2 10 7 3 8 11 11 10 6 10 27 36 33 29 23 22 19 16 14 12 11 11 12 12 11 10 10 10 10 10 10 11 11 11 11 12 14 16 18 16 13 11 11
0 1 1 1 3 3 1 5 8 9 8 5 13 5 13 17 33 34 30 26 22 19 18 16 14 12 11 11 12 12 12 11 10 10 10 10 11 11 11 11 11 12 14 17 17 15 13 11 12
2 2 3 1 2 1 4 2 8 6 4 12 16 7 11 28 34 33 26 23 21 20 17 15 14 12 12 12 12 13 13 11 10 10 10 10 11 11 11 11 11 11 13 15 15 14 12 12 12
3 1 1 1 5 2 6 5 9 9 10 2 3 16 24 38 34 31 27 23 22 19 17 16 14 14 13 14 12 13 13 12 11 12 11 11 12 12 11 11 11 10 12 15 14 12 12 13 10
1 2 3 0 6 9 11 9 6 3 8 10 18 23 36 38 34 31 29 27 24 21 17 15 14 13 13 14 14 14 14 13 13 12 13 11 12 14 13 11 10 10 11 15 13 11 11 9 10
5 3 3 5 10 17 13 8 4 3 0 5 26 34 40 36 33 31 28 25 23 20 17 16 15 14 14 13 14 14 14 13 12 12 11 10 11 12 13 13 12 11 11 12 11 11 9 8 7
2 11 4 10 15 14 12 15 7 8 5 9 28 38 38 35 33 31 28 26 24 20 18 16 16 15 15 14 15 15 13 12 11 10 8 8 10 11 12 12 11 12 12 12 11 8 7 7 6
3 6 8 11 22 14 13 10 6 13 9 19 30 33 35 32 29 27 24 23 22 20 19 18 17 16 16 17 16 16 12 11 11 9 8 8 8 10 11 12 12 10 11 12 7 7 6 5 6
4 10 8 12 18 15 15 7 10 9 13 27 32 34 35 33 30 28 24 22 22 20 20 20 19 17 18 19 18 15 12 11 9 8 8 7 8 5 9 9 9 9 11 10 8 8 7 3 3
4 3 1 5 15 6 10 6 6 19 16 30 30 30 35 34 31 29 24 21 22 21 21 23 21 20 19 19 17 14 11 10 8 6 5 5 4 5 7 7 10 12 9 12 13 9 6 3 5
3 4 2 2 9 3 7 2 8 14 23 27 32 32 29 33 32 30 25 21 21 23 23 24 26 22 19 17 15 14 11 9 7 4 3 5 5 6 7 8 12 10 14 14 12 10 9 6 6
6 3 3 2 10 3 6 1 6 13 18 24 30 32 31 32 30 31 29 23 25 25 26 28 26 23 20 15 13 12 10 8 4 3 1 4 5 7 7 8 12 13 14 11 11 9 7 7 4
2 4 2 3 7 4 5 7 4 14 17 21 28 32 31 34 34 32 31 28 29 28 28 28 25 22 18 14 13 15 12 10 8 5 1 3 8 7 7 10 11 13 13 11 10 9 7 5 3
4 4 1 2 4 4 9 7 8 15 14 18 23 30 31 33 37 31 31 32 31 31 30 29 27 22 20 18 16 15 13 9 8 6 4 4 8 7 9 9 10 12 12 11 11 9 8 5 3
2 3 2 3 1 7 3 3 4 11 5 18 22 25 29 28 31 34 33 34 35 34 33 31 28 24 20 18 17 15 11 10 8 7 6 4 7 5 8 7 10 8 9 10 9 6 5 5 3
2 4 3 4 3 2 2 3 3 2 5 11 20 22 22 29 34 37 36 38 39 37 36 34 31 26 22 19 20 18 13 12 10 10 8 6 6 6 5 7 7 7 8 11 8 6 4 5 2
2 7 5 2 2 2 2 3 1 3 5 6 11 18 25 27 31 40 37 39 43 40 37 35 34 29 24 24 26 22 17 15 13 10 9 6 5 8 6 8 7 6 8 10 7 6 5 5 4
8 6 6 4 3 2 2 4 5 1 7 11 15 19 25 30 32 34 44 40 41 43 41 37 36 34 25 25 28 26 23 18 14 13 12 10 8 7 7 9 8 7 9 11 9 9 8 7 7
4 5 7 5 3 2 2 4 5 4 7 7 5 19 26 34 30 36 37 43 40 42 42 40 37 37 28 26 26 28 26 23 20 18 15 13 11 9 11 9 9 9 9 8 11 11 12 11 11
5 6 3 3 2 5 5 4 1 7 6 7 10 13 30 36 33 30 36 42 44 43 46 44 40 38 34 29 27 25 26 26 24 20 17 14 14 12 13 11 9 8 10 11 10 12 13 11 12
2 6 5 6 5 4 2 5 5 5 11 17 15 17 14 34 40 41 37 41 43 45 48 48 45 41 37 33 29 25 24 27 27 22 21 18 15 13 11 12 11 8 8 11 11 11 13 13 14
1 5 2 7 3 4 1 4 2 15 16 26 27 24 27 21 38 43 44 40 42 44 45 48 47 44 41 35 31 29 27 26 29 26 24 22 17 15 14 13 11 12 10 10 11 11 12 14 16
7 1 3 3 4 3 3 3 3 17 20 20 25 30 35 9 28 31 34 44 41 42 44 44 48 47 42 39 34 30 28 27 27 30 27 25 22 20 17 16 15 12 12 10 10 12 11 12 15
6 5 5 4 3 5 4 2 6 9 13 15 21 27 32 29 7 18 23 28 34 37 41 46 47 46 46 43 39 35 31 28 27 28 30 28 24 22 18 18 18 17 15 13 12 11 12 13 14
5 2 2 4 3 2 3 1 6 10 15 17 21 25 33 33 26 13 8 12 22 33 36 41 45 46 44 46 43 39 34 31 28 29 29 30 30 26 21 19 18 19 18 16 15 17 16 15 16

GFSSGP_850_spd_093.txt.gz
Wind_Speed
8 7 6 2 1 2 2 2 1 8 9 7 21 7 12 6 2 1 22 30 29 27 22 18 16 15 13 11 10 10 9 9 8 7 6 5 5 5 6 5 6 7 8 8 9 10 12 13 14
9 7 3 2 1 0 2 6 9 3 14 25 11 17 5 4 2 12 32 31 30 25 21 18 16 13 12 10 9 8 7 8 8 8 7 6 5 5 6 6 7 8 8 9 10 12 12 14 15
9 5 1 1 2 1 3 8 6 11 25 18 7 7 4 3 4 26 28 35 29 24 19 17 14 11 9 8 7 7 7 8 7 8 8 7 7 6 6 7 7 7 8 8 10 12 12 11 11
5 1 1 1 2 2 2 6 11 19 16 7 13 8 5 2 21 19 36 33 27 22 18 15 12 11 10 9 7 7 8 8 9 8 8 8 9 12 9 9 7 8 9 10 11 11 11 10 11
5 1 1 1 4 3 3 7 9 15 7 8 4 5 8 7 14 33 34 31 26 22 18 14 12 11 11 9 8 8 8 8 9 10 9 8 12 12 12 10 9 11 11 12 13 12 10 11 12
1 1 1 2 6 4 4 8 3 6 4 5 10 11 6 10 24 32 31 28 24 21 18 14 12 11 10 9 8 9 9 10 9 10 10 10 12 12 11 10 9 10 12 14 14 13 10 9 11
0 1 2 1 3 5 4 4 8 5 7 5 12 7 10 17 32 31 29 25 23 20 18 14 13 12 10 9 9 10 10 10 9 10 10 11 11 12 11 11 11 11 14 15 14 13 12 12 11
1 2 1 1 1 3 8 6 1 6 3 9 12 7 13 24 34 30 26 24 22 20 17 15 13 12 11 11 11 11 11 10 9 9 10 11 12 12 12 11 10 12 14 14 14 13 12 12 12
2 1 2 1 2 6 8 5 4 4 5 3 6 12 21 30 34 26 24 21 20 20 17 16 13 12 13 12 11 12 10 9 9 9 9 10 11 11 11 11 10 11 14 13 13 13 13 11 11
2 0 1 3 4 9 9 11 5 2 8 5 14 19 30 31 31 27 24 23 20 20 18 16 14 13 15 13 13 13 11 9 9 8 9 10 10 11 11 11 8 11 14 12 12 12 12 10 10
4 1 2 3 9 15 9 12 9 7 6 8 21 31 33 31 29 25 24 23 23 21 18 17 15 14 14 14 14 13 12 12 10 10 10 9 9 9 9 10 10 11 12 11 11 10 10 10 9
3 6 2 2 10 8 8 13 10 8 3 5 24 34 35 32 28 25 23 24 22 21 18 16 15 14 14 13 14 14 13 13 10 9 9 9 8 8 8 9 10 10 11 10 9 8 9 10 9
7 3 2 9 14 11 11 6 7 7 6 16 28 29 30 29 25 22 23 22 21 19 19 17 16 15 15 14 14 15 13 11 8 8 8 9 8 8 8 8 9 9 10 10 6 6 6 9 7
4 9 7 10 15 11 10 6 8 9 13 19 27 29 28 26 26 22 24 23 21 18 18 17 16 16 16 15 16 15 14 12 10 9 7 7 9 8 8 8 7 6 7 7 5 5 6 6 6
2 4 6 7 12 6 8 4 4 12 18 21 25 25 25 23 23 24 24 22 21 19 18 18 17 17 17 18 16 14 12 10 8 6 5 4 5 8 7 5 6 7 7 6 5 5 3 4 4
3 2 3 3 13 4 10 2 9 16 20 22 25 26 26 24 24 23 22 20 21 20 19 19 19 18 18 19 16 13 12 10 7 6 4 5 4 5 7 7 8 8 5 7 8 5 2 2 5
1 4 3 4 11 3 10 2 10 18 19 23 24 26 26 26 24 24 22 18 19 19 20 21 20 19 19 17 15 13 11 9 6 5 3 5 5 6 6 8 9 8 10 10 7 5 4 3 3
7 5 4 4 10 5 10 4 7 15 17 21 24 24 25 26 26 24 22 19 17 21 20 22 23 21 19 18 16 13 11 9 7 5 3 4 7 7 6 8 9 10 10 9 8 6 5 4 2
7 6 5 2 4 6 6 6 7 13 16 19 24 26 25 25 26 24 24 22 19 22 23 25 25 23 21 17 15 13 11 9 7 6 4 5 8 7 7 8 10 10 9 7 7 7 5 3 3
4 5 4 2 3 6 3 3 4 11 13 18 23 23 25 24 23 24 25 24 23 24 25 27 26 24 19 17 13 12 11 8 6 8 5 7 9 8 9 8 8 9 7 7 9 8 5 2 2
5 5 4 3 1 1 1 0 4 1 5 11 16 20 22 24 26 24 25 26 27 27 28 28 27 25 20 17 15 14 11 10 9 8 6 7 7 8 9 8 9 7 7 9 8 5 3 3 2
9 7 4 3 2 3 3 3 7 6 4 3 9 17 20 24 24 25 26 27 28 31 30 30 28 27 24 20 18 17 14 12 11 8 6 3 5 7 7 10 8 7 5 9 7 5 4 4 2
3 5 6 3 4 2 4 2 6 5 7 7 8 11 18 20 24 27 28 29 31 30 31 31 31 29 28 25 22 17 18 13 10 9 8 6 4 4 5 7 8 5 5 9 7 5 3 2 2
10 6 4 3 2 6 3 2 5 6 9 11 10 6 14 20 26 25 26 27 32 30 33 34 33 32 30 28 25 23 19 17 15 13 12 10 6 4 7 7 7 7 5 8 9 7 7 6 5
7 8 5 6 5 5 3 5 5 7 11 11 14 13 11 13 24 30 29 29 33 35 31 34 36 34 31 30 29 26 22 21 19 16 14 13 11 7 6 9 7 7 8 8 7 8 9 8 7
11 10 5 11 9 7 0 8 5 7 11 14 15 17 15 14 20 31 36 34 36 35 37 34 34 35 33 31 30 27 23 20 23 20 17 15 12 9 8 9 9 6 5 7 8 7 9 10 8
5 6 2 5 1 9 5 6 4 11 15 19 21 21 22 21 13 25 28 30 32 38 37 38 35 36 37 32 30 29 25 22 22 21 20 18 14 11 11 9 8 8 6 5 8 8 8 9 11
3 3 5 2 9 10 4 4 5 12 16 17 23 27 26 25 13 9 17 23 26 29 33 35 35 37 37 36 32 29 27 25 21 22 25 20 18 15 13 12 11 8 8 8 7 7 9 9 10
2 2 3 1 2 6 7 5 5 9 10 14 21 24 25 28 25 18 5 11 18 30 33 32 34 34 36 41 39 34 29 27 24 22 26 26 20 20 18 16 13 13 12 11 10 7 6 7 9
7 4 1 5 5 2 0 5 4 9 13 15 19 23 25 30 30 23 16 7 4 7 21 30 29 30 33 36 41 40 35 30 29 25 24 25 28 23 21 19 16 15 16 16 14 12 11 11 9

GFSSGP_850_spd_096.txt.gz
Wind_Speed
6 6 6 2 2 2 1 5 2 10 11 5 16 7 9 6 5 6 21 21 24 21 19 19 19 17 14 12 11 9 8 8 7 7 6 6 6 7 7 7 6 8 9 11 11 13 14 15 14
7 7 2 2 2 3 5 4 12 5 11 21 11 15 6 10 9 18 26 25 24 20 18 16 16 14 12 11 10 9 9 9 8 8 8 7 7 6 8 7 7 7 9 11 12 13 15 15 16
9 4 3 3 2 4 5 5 9 15 24 14 10 6 5 5 12 25 23 27 23 19 16 16 14 13 11 10 9 9 9 8 9 8 7 7 7 7 6 7 7 8 10 12 11 13 11 12 14
5 4 4 2 5 8 4 5 16 25 14 4 14 9 7 5 23 19 28 25 21 18 15 16 12 11 9 8 7 8 8 8 9 9 10 8 9 9 9 8 7 9 10 10 10 12 10 10 11
4 4 3 2 8 7 6 10 20 17 10 10 5 6 11 14 14 28 28 23 20 17 13 12 10 10 9 8 7 8 9 10 9 10 10 11 12 12 11 11 10 10 10 11 12 11 11 11 10
4 3 2 4 9 9 8 6 19 8 8 7 10 13 9 14 26 27 25 21 18 16 13 11 12 11 9 8 8 9 10 10 11 11 12 12 12 12 11 10 11 10 13 13 13 11 10 11 10
4 4 3 6 9 8 3 4 7 7 10 6 10 9 14 22 26 25 23 20 16 14 13 12 10 10 9 9 10 10 11 10 11 11 11 12 12 12 12 12 11 13 14 13 13 13 14 13 11
4 4 2 2 7 5 8 4 3 7 6 10 11 7 21 28 26 24 21 19 16 14 12 11 10 10 9 9 10 10 10 10 10 10 12 13 13 13 13 11 12 15 15 14 13 13 13 13 13
3 5 4 5 1 8 16 8 3 3 11 3 6 7 28 30 27 25 22 20 17 14 12 10 9 10 10 10 10 11 10 9 10 9 11 10 14 12 11 10 12 15 15 14 13 14 13 12 13
6 2 6 5 2 11 16 12 10 8 11 6 10 21 29 29 27 26 23 21 18 15 13 12 10 10 11 9 11 11 8 7 9 9 11 8 12 13 10 11 12 14 14 13 14 12 15 13 8
4 2 5 8 11 15 13 11 4 9 6 11 18 27 33 30 26 24 21 19 18 16 13 12 11 12 11 13 10 9 7 8 7 9 10 10 9 10 8 10 9 10 12 9 8 9 8 9 8
6 2 3 7 10 7 10 13 7 5 2 7 16 31 35 31 27 23 21 20 19 17 14 13 11 11 11 10 10 10 8 8 8 7 9 8 8 9 10 9 8 10 8 10 8 6 8 8 8
7 4 3 6 10 8 12 10 5 7 5 13 24 32 32 29 25 22 19 17 17 16 15 13 11 11 10 12 10 9 8 8 7 8 8 8 8 9 9 9 9 9 8 7 6 6 7 8 7
8 5 2 7 9 13 8 7 12 10 12 18 28 30 28 26 24 21 20 18 17 15 15 14 12 11 11 11 12 10 9 8 8 7 8 10 8 9 8 9 8 7 7 5 5 6 6 6 6
6 7 5 7 10 7 11 9 6 16 15 20 26 28 26 24 22 21 19 18 16 15 14 14 14 13 12 11 12 10 8 6 6 7 8 7 7 8 9 7 6 6 6 4 5 6 6 6 5
10 8 10 8 11 7 10 9 10 20 17 20 24 26 24 22 21 19 18 16 16 15 15 14 13 13 14 13 12 9 9 8 7 3 5 6 5 7 7 4 6 6 4 4 5 5 5 6 5
10 12 6 8 12 7 8 9 14 20 17 18 22 24 23 22 21 19 18 17 17 16 15 15 14 14 14 15 12 10 10 8 6 7 5 4 5 5 7 7 7 7 6 7 5 3 4 4 5
16 8 7 9 11 9 10 10 14 16 15 16 20 22 23 23 22 21 18 16 16 16 15 15 14 15 17 14 14 10 8 6 4 4 6 7 6 6 6 7 7 8 7 5 5 5 4 5 3
11 9 10 6 14 9 10 10 12 14 14 16 17 21 24 25 23 22 19 16 15 16 16 16 17 17 17 13 12 9 7 7 5 4 4 8 7 7 9 6 7 9 7 6 6 4 5 4 3
12 12 12 9 7 6 5 7 4 15 12 14 18 18 20 24 25 24 20 17 16 17 16 18 18 20 18 12 10 9 7 7 4 6 4 6 6 6 8 10 8 10 6 7 6 7 5 3 3
13 13 10 10 7 5 6 11 12 6 8 8 14 18 20 22 26 27 23 20 17 16 17 19 21 20 19 13 11 10 9 7 5 7 6 6 7 5 8 8 9 10 9 6 7 6 6 4 3
14 5 4 8 8 9 13 3 9 10 11 8 8 10 16 17 22 25 26 25 21 19 18 19 21 21 19 15 11 10 7 7 6 6 6 6 9 7 7 10 8 8 7 9 7 5 5 7 5
5 9 10 8 10 3 15 11 8 10 9 5 11 10 12 17 19 23 26 26 24 21 20 20 21 23 20 18 13 12 10 6 6 7 8 5 7 8 8 10 8 8 7 11 8 7 7 4 5
5 10 9 8 10 11 11 12 8 5 6 5 4 2 10 16 18 21 23 25 24 22 21 20 21 25 24 22 19 17 12 11 9 8 8 5 5 3 7 9 9 9 8 9 7 6 5 6 4
13 15 10 11 9 9 11 8 9 7 7 7 10 6 3 8 19 22 24 27 26 25 22 21 21 24 25 25 23 22 19 13 11 10 8 8 6 5 8 8 8 7 8 9 9 8 8 6 4
18 18 9 12 13 12 6 7 7 8 10 14 13 12 9 6 15 22 27 27 28 27 25 23 23 25 25 25 25 23 23 17 13 13 11 11 9 7 9 8 8 7 8 9 9 6 7 8 6
19 13 7 6 6 10 12 11 11 7 11 14 18 18 18 15 7 23 24 26 25 25 26 24 23 23 24 26 25 24 23 23 15 15 13 12 12 10 10 9 10 8 7 7 9 8 8 9 9
6 3 10 8 13 14 11 14 9 6 8 11 17 19 20 20 21 8 14 18 22 22 22 22 25 26 25 25 26 25 23 22 21 17 16 15 14 13 11 11 10 9 8 8 7 8 8 9 8
7 9 10 8 5 14 10 8 6 8 8 11 15 19 20 20 20 17 12 7 14 17 18 19 20 19 21 23 23 27 27 24 22 20 18 17 17 15 15 14 12 11 10 9 10 10 9 8 8
2 4 9 10 13 9 7 7 8 9 9 11 14 17 20 22 22 22 18 10 11 9 8 13 14 16 17 17 19 22 28 30 23 21 20 17 19 20 18 18 17 15 13 13 13 11 10 9 8

GFSSGP_850_spd_099.txt.gz
Wind_Speed
5 6 2 3 2 5 4 4 3 13 13 14 13 12 16 25 10 13 30 24 24 20 19 18 16 15 13 11 11 10 8 8 7 6 7 7 7 7 7 8 10 13 13 15 16 17 18 17 18
5 5 5 5 4 6 5 10 10 11 13 19 11 14 16 17 14 32 29 25 23 20 18 17 17 14 11 10 9 10 9 9 9 8 8 7 7 7 8 8 10 12 13 15 16 17 19 19 16
8 7 4 3 2 4 6 7 8 18 20 14 15 15 12 11 30 26 29 27 23 19 17 17 15 14 12 10 9 8 9 10 10 9 10 9 8 9 9 9 10 11 12 14 15 13 15 16 17
6 4 7 4 7 9 9 10 18 21 16 12 14 13 12 19 22 28 29 25 21 18 15 17 14 12 10 10 9 9 9 10 10 10 9 10 11 10 8 9 11 11 11 13 14 13 13 14 15
8 5 4 3 10 9 9 17 23 13 15 16 8 11 24 19 23 29 28 23 19 20 13 13 12 10 9 9 9 9 9 9 10 10 11 11 13 12 11 10 11 12 12 14 13 14 13 13 14
5 7 2 2 12 10 10 20 13 17 14 11 19 22 13 18 29 28 25 21 18 15 16 10 12 10 9 9 9 9 10 11 11 11 12 11 13 13 11 12 11 13 14 14 12 12 13 13 13
5 6 4 5 11 11 8 8 12 8 10 10 15 16 16 26 27 26 23 21 17 19 15 11 10 11 9 9 10 10 10 11 11 12 12 12 12 13 13 12 14 16 15 15 15 14 13 14 14
12 6 3 5 9 7 6 7 1 6 11 8 15 11 24 29 27 25 22 19 18 13 13 12 10 9 11 11 11 11 10 11 12 12 14 15 17 15 18 13 16 16 15 15 15 14 15 14 15
11 4 7 6 3 11 15 7 4 2 11 2 4 23 30 30 27 24 21 19 16 13 12 14 10 10 12 10 11 12 11 12 12 12 13 15 12 11 14 12 16 16 15 16 16 17 16 17 19
11 3 7 9 5 14 21 13 12 8 11 9 9 30 30 29 26 25 22 19 16 15 13 13 15 11 16 10 11 9 8 8 12 7 15 11 16 15 11 14 15 15 15 17 19 17 15 10 8
10 2 10 12 9 14 17 15 3 11 7 10 22 31 31 29 26 23 21 18 17 14 14 15 15 14 11 10 10 12 10 8 9 10 12 12 10 15 10 14 12 14 13 8 11 10 12 8 7
8 4 10 13 10 13 11 11 5 6 6 11 18 27 30 29 26 23 21 19 17 15 14 10 12 14 14 10 10 6 9 9 10 9 9 11 12 10 8 10 9 9 9 8 8 8 6 10 8
12 5 5 12 9 15 17 13 7 2 5 12 21 29 28 26 24 21 20 19 18 15 14 12 12 13 12 9 10 8 9 12 7 9 8 9 7 10 9 10 8 8 7 7 7 5 8 7 8
11 7 7 11 14 16 12 17 12 7 6 14 26 31 28 25 23 21 20 19 17 16 14 12 12 10 12 8 9 11 3 11 10 9 9 10 7 7 8 9 8 8 7 5 7 2 11 7 7
5 10 9 9 15 14 12 12 12 9 11 20 28 29 26 24 21 21 19 18 17 16 14 13 12 12 12 10 11 8 7 8 12 5 8 9 7 8 8 7 8 7 4 7 7 11 8 6 4
14 16 13 17 11 11 12 13 15 13 14 22 27 26 25 23 21 19 19 17 16 15 15 14 12 12 12 10 9 8 4 4 12 7 5 6 9 8 7 6 6 6 5 4 5 4 4 4 4
14 14 12 11 15 12 10 12 17 10 12 21 25 25 24 22 21 19 19 18 17 16 16 15 14 13 13 12 9 7 6 6 4 6 8 6 7 6 6 8 8 6 6 6 4 2 8 5 4
18 19 15 14 13 8 12 10 14 20 15 16 24 25 24 23 22 20 19 18 17 16 16 15 15 15 14 13 11 7 7 6 5 4 6 5 6 4 10 7 6 9 6 5 1 5 2 4 0
15 15 10 14 15 13 5 13 12 29 25 23 17 19 23 23 22 20 19 17 17 16 16 16 16 16 15 12 10 8 5 6 3 3 4 6 6 5 13 6 6 10 5 4 6 8 4 3 2
19 17 13 12 15 15 18 16 9 12 13 19 27 23 19 17 23 22 21 18 18 18 17 17 17 16 14 12 12 8 5 3 5 5 4 6 5 6 8 8 7 10 5 5 4 5 4 4 1
15 13 15 13 10 14 10 14 19 18 17 20 13 22 20 18 21 25 23 20 17 18 18 19 18 17 16 12 8 8 9 8 6 6 4 7 6 5 5 12 7 10 8 6 6 6 3 3 1
16 16 15 13 14 12 9 3 7 16 9 7 12 14 16 22 23 27 25 22 19 18 18 18 19 18 16 14 9 11 11 9 9 10 8 6 7 5 7 6 7 11 6 12 5 4 3 5 5
11 9 6 12 15 18 16 6 9 15 14 11 14 16 19 21 21 26 26 24 21 18 19 18 19 18 16 14 11 9 7 4 8 8 6 9 9 7 7 8 6 8 4 9 7 5 9 2 3
4 9 14 13 13 12 22 8 5 7 3 18 17 16 19 20 22 23 21 24 23 20 20 20 20 19 18 15 14 10 9 6 10 7 8 8 7 6 8 8 8 9 3 9 6 6 10 4 3
9 13 10 11 12 12 25 14 8 9 11 13 12 12 5 14 22 23 24 23 26 24 22 22 21 21 20 18 15 14 12 11 2 6 6 9 12 9 8 10 9 5 9 10 8 8 6 7 4
16 19 12 12 14 14 19 11 10 18 20 15 13 12 9 3 13 18 23 24 27 25 24 23 23 22 20 19 18 16 15 11 10 10 10 8 8 8 10 6 10 10 7 8 9 7 8 8 7
18 20 23 12 15 14 11 15 13 15 17 15 11 10 9 9 9 19 22 24 29 29 26 25 23 23 21 20 19 18 17 16 13 12 10 7 11 8 8 7 10 9 9 10 10 9 10 6 10
13 13 18 9 16 15 16 18 15 14 10 8 12 13 13 12 15 17 13 19 18 24 28 25 23 22 19 19 19 18 18 17 19 14 14 14 11 13 15 8 9 11 10 10 11 9 9 10 8
12 10 11 15 16 13 11 10 15 14 11 9 11 12 14 15 15 13 9 9 6 20 7 29 23 20 19 18 19 19 18 18 17 17 15 14 16 12 9 8 11 10 9 10 11 14 8 9 10
12 10 14 11 16 14 11 4 9 12 15 14 12 13 14 15 16 16 14 8 6 7 4 10 19 18 14 15 19 18 18 20 18 18 17 15 15 17 14 14 13 13 12 11 12 12 11 11 11

GFSSGP_850_spd_102.txt.gz
Wind_Speed
3 7 3 4 1 4 1 2 4 16 19 23 20 21 19 15 3 16 31 27 24 21 21 19 17 16 14 13 12 11 10 10 9 8 9 10 9 9 10 13 15 16 18 19 20 19 19 20 24
5 4 5 2 3 4 6 7 11 14 20 22 23 26 23 23 37 36 33 27 23 21 19 19 16 14 13 13 12 11 11 11 11 10 9 9 10 10 11 13 14 16 17 18 19 20 18 20 22
8 8 3 2 2 4 6 8 15 20 17 18 14 20 21 29 34 29 32 28 22 21 18 18 15 14 12 12 11 10 11 10 11 11 11 10 10 11 12 13 13 15 16 15 15 18 19 20 23
3 4 6 3 8 14 8 10 21 15 19 22 18 16 31 25 32 33 31 27 27 19 17 18 16 14 12 11 11 11 11 11 12 11 11 12 12 11 12 13 13 15 15 15 14 16 17 18 22
6 6 3 1 16 12 5 23 14 17 14 22 27 26 25 28 31 30 27 25 27 20 17 17 15 13 12 12 12 12 11 12 12 16 13 14 13 12 12 13 13 15 15 14 17 15 15 17 20
5 5 1 6 13 9 12 20 14 19 22 25 33 29 26 29 29 28 27 30 19 21 16 14 14 13 12 12 13 13 13 13 14 15 14 15 14 15 14 14 14 15 14 15 14 14 16 18 19
10 4 5 7 12 8 11 15 10 14 17 27 26 23 27 29 25 27 27 23 24 22 15 13 13 13 12 13 13 13 13 14 15 15 15 15 16 15 14 15 17 17 16 17 16 16 17 18 21
13 5 3 1 10 7 4 8 4 12 5 21 23 22 28 31 25 30 24 27 18 18 15 10 9 10 12 13 13 13 14 15 16 18 21 20 19 19 16 17 17 17 17 18 18 19 21 21 22
17 1 3 3 8 13 7 4 4 6 12 10 5 31 34 30 26 29 33 24 23 18 17 14 10 9 12 13 13 14 16 18 19 16 15 18 17 15 15 15 17 17 20 21 19 19 22 25 24
6 4 5 6 8 16 14 13 7 4 11 11 28 31 32 29 25 29 26 18 21 16 17 17 13 15 20 10 15 12 15 14 16 15 20 17 15 9 17 17 17 20 21 18 17 14 13 8 11
13 5 2 8 13 24 20 15 6 6 4 18 32 35 32 28 24 22 24 23 19 20 12 13 20 16 13 11 14 11 14 10 14 15 17 12 16 15 15 19 19 16 12 10 18 12 11 15 9
5 9 5 18 13 20 17 16 13 9 2 27 30 31 31 27 24 23 21 24 20 27 17 18 14 13 16 9 21 11 13 9 12 13 14 19 15 7 11 11 6 9 10 5 9 19 15 8 11
6 4 17 16 20 18 15 14 13 7 8 14 27 28 28 25 23 22 23 20 14 18 18 11 14 11 8 31 16 14 12 14 9 13 16 10 12 12 11 12 10 8 11 6 9 7 2 12 12
8 18 14 21 18 20 17 11 6 3 8 18 25 28 26 24 23 24 25 22 17 17 14 10 10 12 6 16 11 11 15 11 15 10 14 11 10 10 15 12 10 6 8 8 4 12 13 11 9
9 12 13 23 18 21 22 11 7 7 8 27 30 29 26 24 23 22 22 21 16 15 11 12 11 11 9 14 10 9 16 16 10 8 15 16 10 9 11 13 10 6 5 11 7 7 6 2 8
18 13 10 25 21 16 15 11 2 9 12 27 32 30 27 24 23 21 21 20 17 17 15 13 10 10 10 16 10 5 11 8 12 8 9 13 14 13 15 11 7 5 9 8 5 0 5 9 4
13 15 14 15 20 17 1 13 8 12 15 24 32 29 27 24 24 21 20 19 17 18 15 16 14 11 10 15 8 7 8 11 10 11 9 7 11 15 12 8 7 9 9 7 1 9 6 5 4
18 21 17 16 17 17 15 12 12 17 12 21 30 29 27 24 24 22 21 20 18 17 16 15 13 15 11 15 8 9 12 5 8 6 10 10 9 10 11 11 8 13 7 7 7 6 4 6 8
21 18 11 7 23 18 13 15 15 16 16 18 26 28 28 27 25 23 22 22 20 17 18 18 16 16 14 12 8 6 7 7 10 8 11 10 9 10 10 7 14 10 12 4 6 7 4 6 2
23 13 10 13 23 20 16 11 8 10 12 19 25 26 26 26 31 27 24 24 22 20 19 19 18 16 15 13 10 10 5 6 6 7 9 8 8 17 10 7 15 8 5 8 11 3 2 4 6
21 17 12 12 17 19 16 6 10 8 22 29 21 27 25 25 29 27 25 25 23 21 21 21 19 17 20 12 10 10 5 9 8 5 6 7 8 14 11 11 10 7 6 6 10 5 3 6 5
17 17 19 22 18 8 13 5 15 19 26 17 26 23 25 23 26 29 27 28 28 25 21 21 20 18 21 17 11 9 8 9 9 8 7 9 9 7 9 14 12 13 12 11 6 1 5 3 2
18 11 14 19 13 20 19 6 5 3 13 19 28 23 22 27 28 24 28 27 31 27 24 23 24 21 18 15 18 11 13 11 14 13 9 11 9 7 5 9 13 12 10 13 7 7 7 2 2
21 12 9 6 9 11 21 14 8 3 7 9 25 24 22 22 29 23 29 26 32 28 27 24 26 23 22 20 16 18 11 6 18 12 12 10 10 10 8 6 8 9 9 11 9 8 9 3 4
15 13 8 10 9 12 20 11 6 14 10 11 14 11 5 12 24 26 27 29 24 32 30 28 24 25 22 19 19 16 17 7 11 10 12 13 15 12 10 8 7 10 13 8 8 7 11 5 3
13 18 10 14 12 12 18 11 10 19 17 16 8 6 6 12 21 23 29 26 26 29 32 31 23 23 24 21 18 15 14 13 10 11 9 5 14 16 15 11 6 10 7 10 9 6 9 11 9
16 17 18 15 20 13 9 14 13 18 16 15 8 8 9 8 8 17 25 24 34 20 25 34 24 21 22 22 19 17 14 12 11 9 10 13 7 8 14 10 6 11 6 9 9 11 9 8 10
14 9 17 14 14 14 11 13 13 16 14 12 12 12 12 13 17 11 12 13 17 26 22 15 26 23 22 23 21 20 17 14 14 13 13 13 5 3 16 13 8 11 9 11 11 9 5 12 8
11 11 12 17 15 10 11 4 6 17 13 14 14 11 9 11 14 15 18 11 14 25 24 12 15 27 23 24 23 20 20 17 19 20 16 17 17 8 12 15 12 3 10 12 10 15 10 12 10
16 13 16 12 17 10 7 3 5 11 16 16 15 12 10 10 11 15 19 16 19 23 37 36 3 13 26 22 23 23 21 17 15 19 17 13 15 17 6 4 8 9 10 8 7 11 9 8 6

GFSSGP_850_spd_105.txt.gz
Wind_Speed
9 10 5 4 2 2 3 4 18 19 13 19 15 17 10 15 4 6 27 22 25 24 22 20 18 17 16 14 13 12 12 12 13 13 14 14 15 16 17 18 20 21 21 21 21 23 27 30 29
11 6 4 1 1 4 2 2 16 22 28 29 31 34 28 15 33 32 37 22 25 24 22 20 18 17 16 15 14 14 13 13 13 13 13 14 14 15 17 17 19 21 20 21 21 24 26 26 25
10 6 1 1 1 2 3 3 14 24 33 28 22 23 12 30 35 30 31 24 26 23 22 19 17 16 15 14 14 14 14 14 14 14 14 15 15 15 17 17 18 19 18 19 21 23 24 27 25
4 2 3 2 9 2 7 11 19 27 35 41 35 19 30 33 35 33 26 26 23 21 19 18 16 15 15 13 12 13 14 14 14 13 14 15 16 15 16 17 17 17 18 18 20 22 25 25 24
4 3 3 2 7 5 8 15 26 22 24 32 39 28 34 34 34 31 32 23 18 19 19 18 15 14 15 14 13 13 14 15 16 16 17 16 15 16 15 17 17 17 18 17 20 19 23 24 25
4 5 0 5 8 8 7 23 30 26 29 29 37 34 28 37 39 36 30 22 20 20 18 18 15 14 14 15 14 15 15 16 17 18 17 16 17 17 15 18 18 16 17 18 19 19 22 23 23
2 2 3 6 9 15 7 17 14 25 29 21 39 26 31 35 33 37 30 19 16 16 16 16 15 14 14 15 16 16 16 18 18 18 17 17 17 18 17 19 20 19 20 21 21 22 22 22 21
4 4 3 0 5 4 8 10 19 23 13 33 41 19 23 32 38 32 28 22 14 14 16 15 15 15 15 14 15 16 17 19 20 21 20 18 19 19 20 20 21 22 23 24 25 26 25 24 21
5 3 7 2 9 2 6 10 7 11 30 31 17 31 35 42 29 36 31 22 18 17 15 14 16 15 16 16 16 17 20 20 20 20 23 20 19 21 21 21 24 23 24 25 25 26 23 21 19
5 3 4 8 2 9 7 13 14 9 16 18 33 31 34 33 42 34 30 32 23 21 14 17 14 16 16 18 18 19 19 21 21 19 17 20 19 21 21 24 25 24 20 18 15 15 15 16 18
8 6 15 25 12 17 15 12 5 12 12 37 37 36 32 34 35 36 30 31 29 23 21 17 17 19 13 16 17 15 13 16 19 20 19 15 16 20 22 25 21 18 15 14 16 18 17 14 12
9 18 10 12 20 19 10 8 8 19 9 25 39 35 30 35 38 31 34 30 26 23 15 19 20 18 16 13 15 15 16 17 17 17 17 15 18 20 18 15 15 15 13 19 17 12 12 16 15
8 12 18 23 26 19 20 12 10 17 14 30 35 31 28 28 33 34 30 26 23 19 19 20 18 15 12 18 14 15 13 14 16 17 16 15 17 15 15 16 16 11 14 11 11 11 19 15 14
9 21 8 25 25 20 18 15 8 16 13 29 32 29 29 26 29 35 28 27 21 24 17 21 17 13 25 17 16 15 19 17 14 13 12 15 14 15 14 13 12 8 5 9 12 16 15 12 10
15 7 8 20 24 16 26 6 6 15 11 18 28 29 26 25 31 34 27 22 26 29 25 23 17 15 21 18 14 19 16 21 17 16 12 13 13 19 15 12 11 10 6 12 9 12 15 11 7
7 10 7 7 20 18 7 6 5 11 7 14 21 28 26 26 34 30 29 26 29 27 20 17 25 17 17 18 12 18 17 15 16 17 15 15 15 15 15 13 10 9 12 9 10 6 5 9 9
7 8 10 15 18 11 7 7 11 14 6 20 28 28 27 24 34 29 25 25 18 19 12 21 19 18 22 14 11 15 15 15 15 14 13 13 15 17 16 15 10 12 9 8 8 8 10 8 9
7 7 7 15 14 11 9 6 13 14 13 34 28 28 27 29 32 28 23 22 20 18 19 19 14 16 21 13 13 14 14 12 13 9 8 13 17 18 14 14 12 13 8 8 10 11 8 11 4
12 10 10 11 10 10 6 8 12 7 6 16 21 26 27 26 29 27 25 23 21 18 22 20 18 14 21 16 16 14 12 11 9 9 10 9 10 15 14 12 15 13 12 9 10 8 5 9 6
15 3 7 10 7 12 13 6 4 10 9 18 11 28 28 28 29 27 26 24 24 19 24 18 18 16 19 16 13 11 12 10 8 6 12 10 7 13 13 15 14 9 8 10 13 7 6 8 9
12 7 16 8 8 8 10 4 2 3 7 16 21 9 33 32 34 31 30 29 26 20 23 21 19 14 21 13 10 12 13 13 11 5 7 7 11 10 14 17 11 6 6 11 9 6 7 8 9
9 1 24 23 12 6 14 4 4 6 2 7 18 11 23 34 33 30 31 33 28 22 18 22 20 15 20 14 10 8 11 11 11 8 8 12 11 9 13 13 11 13 9 14 10 4 2 6 7
10 22 24 12 6 6 16 4 3 9 8 8 17 19 15 35 35 29 32 34 30 25 21 21 21 19 21 14 12 12 11 12 11 11 11 13 10 6 13 14 14 12 12 12 11 4 5 5 7
9 5 13 5 5 3 14 5 4 9 8 6 22 29 31 30 36 29 33 34 33 28 23 22 22 24 24 18 15 11 11 13 16 13 12 12 12 10 8 10 13 16 12 12 14 6 7 5 5
7 3 2 2 3 11 17 6 1 16 16 13 18 35 26 28 36 28 31 28 36 32 25 22 23 26 23 19 17 15 13 12 20 13 11 12 10 9 8 8 8 13 14 13 11 9 9 7 4
5 7 5 4 6 6 10 6 6 17 23 29 25 5 6 16 14 25 17 14 34 34 26 22 24 25 24 19 18 14 13 6 11 11 13 9 11 11 12 9 8 10 13 9 12 7 9 11 8
6 4 9 3 6 3 4 8 8 11 10 12 10 16 17 12 9 13 13 16 26 33 33 24 21 24 22 21 18 17 14 14 12 9 7 10 14 12 15 12 9 11 9 11 7 9 12 12 13
3 5 5 3 2 2 4 6 7 12 10 9 10 15 20 11 9 20 15 12 16 26 31 32 23 21 21 17 20 19 18 15 14 14 12 14 12 11 12 15 11 12 9 7 9 8 7 11 7
1 4 2 1 1 4 5 2 3 9 8 11 13 12 14 20 21 18 15 28 21 19 27 25 24 18 15 20 19 20 19 18 20 22 15 13 15 6 4 9 9 14 11 9 9 11 11 9 9
5 7 4 4 8 3 5 3 3 10 15 16 15 15 16 20 22 17 14 13 15 24 25 21 23 19 9 8 20 22 21 20 21 22 20 17 17 14 10 8 15 11 9 4 5 9 13 7 7

GFSSGP_850_spd_108.txt.gz
Wind_Speed
8 9 7 2 3 2 3 4 6 8 12 15 31 10 9 13 4 4 26 22 24 22 21 19 17 17 17 16 16 16 17 15 16 16 17 18 19 19 19 21 20 20 21 22 25 25 26 26 26
12 8 4 1 1 2 1 10 13 13 17 31 16 23 10 4 15 30 28 27 24 24 22 19 17 15 15 14 14 13 14 14 14 15 16 17 17 19 20 22 21 21 22 26 28 27 24 22 20
13 5 2 1 1 1 8 10 19 22 26 25 10 15 8 11 28 33 32 29 25 23 21 19 17 16 16 16 14 14 14 14 14 15 16 18 17 18 19 20 20 21 22 23 24 23 22 23 23
9 8 3 2 2 4 4 14 22 21 20 19 25 13 17 17 25 33 29 28 26 23 21 19 18 15 15 15 15 14 15 15 14 16 17 18 17 17 18 18 18 20 22 23 24 23 21 18 20
3 1 2 3 6 6 3 22 33 17 9 18 35 13 15 20 29 29 30 28 26 23 20 19 17 15 15 14 14 15 14 14 15 16 16 17 17 17 17 17 18 20 20 22 25 23 19 17 15
2 3 1 4 9 11 10 19 26 27 25 27 30 23 13 30 30 30 28 24 21 21 19 18 16 15 14 14 15 14 16 14 16 17 16 18 18 18 17 18 18 20 19 22 23 23 20 19 17
4 2 4 0 16 14 8 20 22 23 27 20 32 16 27 35 28 28 24 23 21 18 16 16 16 16 15 17 17 16 16 15 15 15 16 17 18 19 18 18 20 21 22 22 22 23 22 17 15
4 2 8 7 8 10 8 20 27 26 15 29 39 12 27 36 32 28 23 22 20 17 15 16 15 16 17 18 17 18 17 16 16 15 17 18 18 21 21 23 22 23 24 24 24 23 22 21 16
9 3 1 5 5 4 4 21 14 18 31 24 6 34 35 40 34 28 25 21 21 18 15 15 16 16 18 18 19 19 19 19 17 18 18 19 22 23 23 24 26 26 27 26 25 23 21 21 17
5 2 5 6 3 6 13 11 18 20 25 16 29 31 41 41 36 30 27 24 23 19 18 17 17 17 18 19 20 20 19 19 17 19 19 21 22 23 24 24 24 23 24 21 19 16 13 12 11
10 6 7 8 16 14 16 17 13 23 6 34 36 42 40 41 34 27 25 24 23 21 19 17 21 20 21 21 20 20 21 21 17 17 20 22 22 23 24 22 21 20 18 16 18 16 12 11 6
3 3 6 2 6 16 8 11 10 14 20 35 38 39 42 40 34 31 28 26 23 20 18 20 19 21 20 20 17 19 18 19 19 17 19 23 24 23 19 18 17 16 16 17 17 17 16 13 13
6 9 6 7 12 14 13 12 10 17 30 32 34 34 38 39 35 31 27 25 24 18 19 18 17 15 17 19 21 21 21 17 17 16 16 18 20 17 15 15 14 13 15 15 13 16 15 14 7
14 14 12 12 9 12 12 16 8 20 22 27 32 33 38 37 35 32 32 29 25 18 18 16 15 18 14 18 19 18 19 19 17 16 15 14 15 15 15 14 13 11 11 9 15 14 13 11 7
21 6 4 9 6 4 24 3 11 19 21 33 29 29 33 38 36 37 31 30 20 17 12 15 12 14 19 15 16 18 19 18 15 13 14 15 14 10 11 10 10 8 12 13 11 11 9 9 10
6 4 5 2 5 12 0 4 11 17 20 24 27 25 22 41 38 35 30 24 21 14 12 18 16 22 15 14 16 18 17 17 16 12 16 12 14 11 10 9 7 7 9 8 7 10 7 6 7
1 6 6 5 14 4 2 3 4 16 20 21 22 25 19 39 39 34 30 26 23 13 13 16 16 16 14 12 10 14 17 17 16 16 15 16 19 13 10 9 7 11 8 7 8 7 6 5 4
4 4 3 8 16 11 4 4 10 13 22 22 22 19 23 35 36 35 31 26 22 15 15 15 16 12 14 14 15 17 17 15 16 15 15 15 17 17 16 12 10 10 8 10 9 8 6 7 2
2 8 3 7 9 9 4 6 9 10 18 24 25 21 23 34 40 37 30 28 24 20 20 18 13 15 15 14 16 16 15 14 13 11 11 16 18 18 15 13 12 10 7 6 9 6 7 7 5
5 7 4 11 8 3 5 7 5 8 17 28 27 12 26 30 40 38 32 30 26 22 22 21 16 20 15 12 14 11 12 11 8 13 13 12 17 17 15 13 14 9 8 8 7 6 7 7 7
9 6 6 7 10 12 6 3 2 1 21 22 27 12 7 41 39 40 37 32 27 24 24 25 18 16 21 15 14 12 11 11 11 14 12 8 14 14 14 16 13 10 8 11 7 5 7 6 6
9 6 12 18 6 5 6 3 5 7 9 24 26 18 6 34 43 41 39 33 27 25 21 24 21 17 22 17 10 13 11 15 11 11 10 12 16 14 14 18 12 10 10 13 8 6 5 3 4
11 7 14 15 4 7 5 3 3 13 10 13 23 20 9 13 38 44 40 33 29 26 22 24 22 19 25 20 14 12 12 13 13 13 13 12 14 9 11 16 11 9 12 14 9 5 4 2 3
11 14 10 5 4 1 9 4 4 10 13 13 20 21 15 10 13 28 38 34 31 29 23 21 24 23 25 20 16 13 13 12 13 16 15 14 13 11 12 11 11 11 12 13 10 9 6 3 4
7 6 2 4 3 6 10 5 5 8 10 14 20 33 22 12 14 11 37 40 35 33 26 21 25 26 28 23 17 14 16 15 16 12 13 16 14 12 12 11 12 13 13 14 12 12 8 6 4
4 7 6 4 4 5 5 6 1 3 5 13 10 7 10 17 26 13 29 42 38 35 29 23 25 28 31 24 19 16 16 14 18 12 13 13 13 11 12 10 9 12 16 15 15 13 11 11 8
5 2 3 5 2 4 5 3 5 5 6 6 5 7 4 2 15 27 21 32 37 38 32 23 23 27 29 25 22 17 17 10 16 15 15 13 12 12 11 9 8 10 12 14 15 13 12 14 13
8 4 4 3 4 4 2 8 7 10 9 7 9 6 6 2 13 11 23 28 29 31 33 27 22 26 28 25 21 19 15 15 14 15 14 13 9 15 13 15 13 12 12 13 14 14 14 15 17
3 3 5 3 4 5 4 0 5 13 12 10 8 10 14 14 10 15 15 18 25 26 32 33 27 24 26 24 24 21 18 16 17 17 14 15 13 11 10 13 15 14 15 12 11 12 15 14 16
4 4 5 4 4 3 4 3 7 13 15 16 9 7 11 12 11 11 21 21 22 18 23 30 31 27 24 23 21 22 22 19 18 19 17 16 13 14 8 10 12 12 13 12 10 12 15 11 11

GFSSGP_850_spd_111.txt.gz
Wind_Speed
6 5 2 3 1 1 1 3 3 11 9 10 24 5 4 8 2 3 22 21 22 19 19 17 17 16 16 16 16 16 17 16 16 15 14 15 17 17 17 16 16 16 17 19 20 21 21 21 21
7 2 2 3 2 2 2 4 6 8 18 26 10 15 8 4 6 23 26 23 20 21 20 19 17 15 15 15 15 15 15 15 15 15 15 15 17 18 17 17 17 17 19 20 21 22 22 21 21
6 0 4 2 1 1 3 4 10 11 28 29 7 13 5 3 17 33 27 27 23 22 19 17 15 14 13 14 13 13 13 13 13 15 15 15 17 17 18 18 17 19 21 21 20 19 16 15 15
4 3 3 2 2 3 7 11 21 19 20 7 21 11 10 14 20 24 30 26 23 21 18 16 14 13 13 12 13 13 13 13 14 15 14 14 14 16 16 17 17 19 18 18 18 17 17 18 15
7 3 2 2 3 1 2 18 19 8 12 15 9 9 12 14 21 29 28 26 23 21 18 17 14 14 12 13 13 15 14 13 16 16 15 15 14 15 15 15 16 17 18 17 16 14 14 15 16
2 3 2 4 4 5 6 17 11 15 21 21 21 17 8 22 26 27 25 23 20 19 18 16 14 13 13 13 13 14 12 13 14 16 15 15 13 14 15 17 17 17 18 19 16 14 12 13 15
2 3 5 3 9 10 7 14 14 18 18 13 22 7 17 26 25 26 24 22 20 19 17 16 15 13 13 14 14 15 14 15 14 14 17 16 15 15 15 16 17 18 19 19 16 15 14 14 14
5 2 6 6 8 5 8 6 13 22 14 21 27 6 14 30 30 27 24 21 20 17 15 15 15 14 15 14 15 15 14 15 14 16 16 15 16 16 17 17 18 18 19 19 16 13 10 11 11
5 4 1 3 8 3 12 11 11 13 31 14 2 25 34 32 29 25 24 21 19 17 15 15 14 15 15 16 16 15 15 14 15 16 18 18 19 19 18 19 19 20 20 19 18 14 10 9 6
4 3 9 8 6 11 12 3 12 15 20 21 29 25 34 32 29 26 26 23 21 19 17 16 15 15 16 16 17 18 17 16 16 18 19 21 20 20 22 21 21 20 20 19 17 15 11 6 2
5 4 6 8 11 23 16 10 13 24 12 33 35 36 36 33 29 25 23 21 21 19 20 18 18 17 17 18 18 16 18 18 17 20 22 21 21 23 22 20 17 17 16 13 10 8 6 5 2
2 10 3 1 17 13 17 24 11 18 12 27 37 37 37 35 31 27 26 24 23 20 20 20 19 20 21 19 19 18 17 18 19 20 20 21 22 21 18 17 13 13 15 12 9 8 7 7 7
5 4 5 2 18 19 15 16 12 20 26 30 36 37 38 36 29 26 24 22 21 20 22 21 21 20 18 18 19 18 19 19 20 19 21 22 21 15 15 13 13 15 12 10 12 12 8 5 5
3 7 9 7 11 10 10 12 16 16 31 37 37 37 39 35 30 26 25 25 21 19 19 21 19 16 15 19 18 19 19 17 17 19 20 20 14 11 13 12 11 11 9 6 7 7 5 5 8
14 5 7 5 4 5 17 5 13 24 34 37 35 37 34 34 31 27 24 24 21 19 17 17 15 15 15 16 16 19 18 18 15 16 15 14 13 11 11 9 8 9 10 10 6 6 5 1 3
4 5 3 4 7 10 4 4 8 24 26 33 33 31 34 35 33 27 26 23 20 18 15 16 14 17 14 16 16 17 18 17 14 14 13 12 10 11 9 8 7 10 9 6 4 4 1 2 1
6 1 2 3 7 9 3 2 5 18 24 20 27 29 34 30 29 28 27 24 19 17 16 17 15 17 15 16 17 16 16 15 11 13 15 11 12 10 8 7 6 7 6 5 6 5 2 1 3
3 2 4 4 5 4 7 2 4 19 28 28 10 29 33 34 31 30 29 27 22 17 16 19 15 15 15 15 17 16 16 15 14 13 15 12 13 10 8 9 8 6 6 5 4 3 1 2 3
1 2 3 4 4 4 6 4 9 13 22 19 16 18 29 36 37 34 31 27 22 18 15 18 19 15 14 13 19 15 16 15 14 15 15 14 15 12 12 9 8 7 5 6 5 2 6 1 1
4 2 3 4 3 4 3 4 1 2 9 28 28 9 23 26 33 36 34 30 24 19 17 17 13 17 17 12 13 12 14 14 14 13 13 15 16 16 15 12 10 9 6 5 3 2 3 2 2
3 4 5 5 8 9 11 1 4 2 10 23 28 14 7 27 38 37 35 32 26 22 18 15 14 16 17 13 15 14 14 12 13 16 12 12 14 16 14 13 11 10 8 8 6 3 3 1 1
3 8 9 12 4 5 1 1 5 4 5 21 33 26 8 24 37 39 36 33 27 22 19 15 17 15 18 16 15 13 12 12 11 12 11 11 14 15 17 14 13 10 9 11 9 3 3 2 3
8 5 7 6 4 6 0 4 4 10 9 15 25 33 16 7 31 43 40 35 27 22 20 17 20 18 19 18 13 14 11 11 11 12 12 13 15 13 12 16 13 9 8 12 10 4 3 4 4
8 9 10 6 3 1 8 6 4 13 14 17 25 26 22 4 23 30 35 37 31 26 25 20 23 22 21 23 17 12 13 13 15 14 13 14 15 12 12 17 12 9 8 13 10 8 3 1 4
5 5 3 3 2 5 5 4 2 9 11 20 27 38 32 12 10 20 29 35 37 30 27 24 24 25 23 25 20 16 14 13 12 13 13 15 15 13 14 15 13 11 10 12 11 9 7 5 3
9 9 6 6 5 3 1 4 3 5 12 15 22 28 28 19 7 13 16 31 37 33 28 27 24 26 25 25 20 16 13 16 13 11 14 15 13 11 12 13 13 12 14 12 14 12 11 10 7
5 4 6 7 1 3 3 3 5 9 10 17 19 18 19 23 12 15 17 23 35 38 34 28 25 24 24 26 21 16 12 12 12 15 13 13 14 13 13 11 11 12 14 16 14 14 13 13 12
8 6 2 3 5 3 1 3 5 9 11 12 12 16 13 14 12 16 25 29 27 38 36 33 26 23 25 27 22 18 15 13 10 16 14 15 13 13 13 11 10 10 12 14 15 13 14 13 14
4 2 6 6 2 5 3 3 3 5 10 10 13 15 13 14 12 16 23 27 35 35 35 33 24 23 25 27 22 19 17 16 13 16 16 14 12 11 13 13 14 16 13 13 13 12 12 14 13
1 1 3 5 3 3 4 1 9 11 10 16 16 17 13 12 10 12 11 33 29 31 37 29 23 22 26 25 23 21 19 18 18 18 17 14 12 13 8 8 9 13 14 14 11 11 11 12 11

GFSSGP_850_spd_114.txt.gz
Wind_Speed
6 5 2 2 1 1 1 3 3 12 8 9 23 4 5 7 2 3 25 19 19 18 17 15 14 13 12 14 15 14 15 14 13 13 12 12 13 13 14 14 14 14 16 15 18 18 19 20 19
7 3 2 1 0 2 2 3 7 7 16 30 9 16 6 4 5 19 22 23 18 18 17 16 15 14 13 13 14 13 13 13 12 12 12 13 14 14 14 14 12 16 17 18 19 19 19 19 18
6 2 2 2 1 2 4 3 6 15 24 19 6 11 5 4 16 28 26 24 20 19 17 15 14 12 12 12 12 12 12 11 11 11 12 13 14 15 14 14 14 16 17 18 17 16 17 17 16
2 3 2 1 1 2 4 7 19 17 20 4 16 9 8 8 22 20 28 22 21 19 16 14 12 12 11 10 11 11 10 11 12 12 12 11 13 14 13 13 14 17 17 16 17 14 12 13 13
3 2 2 2 2 2 6 16 20 14 6 11 5 6 12 8 14 28 24 22 20 19 16 14 11 11 11 10 11 11 11 12 12 12 13 11 13 12 12 12 13 14 14 15 15 15 16 16 15
1 0 2 1 2 4 5 11 13 9 13 15 14 14 5 11 27 25 23 21 18 17 16 13 13 11 12 10 12 11 11 13 13 12 13 11 12 12 12 11 11 13 13 13 14 13 13 12 12
2 2 3 4 6 5 3 9 10 10 14 9 18 5 13 24 25 24 22 19 17 16 15 14 12 12 12 12 12 11 11 13 14 12 12 12 12 13 13 12 11 13 13 12 13 14 14 13 12
4 3 4 5 2 4 4 5 14 6 5 14 22 7 12 29 27 25 22 19 16 15 15 15 12 11 13 12 13 11 12 13 14 14 12 12 13 12 12 11 11 13 13 11 11 11 11 12 11
4 3 1 3 2 3 7 6 9 6 17 5 2 24 30 32 28 25 23 19 16 14 14 14 13 13 14 13 12 11 11 11 14 15 14 14 13 13 13 13 13 13 12 10 8 8 8 9 10
3 3 8 7 12 8 8 14 10 10 7 13 27 25 31 30 28 26 25 22 18 16 15 14 14 14 15 13 13 13 13 12 15 16 16 16 15 16 15 16 16 15 12 9 5 4 5 7 9
5 4 6 9 16 19 10 12 13 15 2 23 34 35 32 30 26 24 23 19 17 17 16 15 14 14 14 16 16 14 13 13 16 16 19 18 18 19 18 17 16 14 12 10 6 2 3 5 7
3 8 6 8 15 20 7 16 13 4 2 29 37 37 34 29 25 23 22 20 19 18 17 16 15 15 16 16 14 15 14 16 18 20 19 18 20 19 17 16 13 12 9 7 5 3 8 9 7
4 3 10 5 20 17 15 13 10 8 15 25 34 33 32 28 22 21 20 20 19 19 19 17 17 17 17 16 16 15 15 17 18 18 19 20 19 16 14 11 11 11 9 8 8 7 6 7 6
1 5 9 9 16 11 14 10 20 17 20 27 32 32 30 28 25 23 22 21 20 19 20 19 19 18 16 16 16 17 17 17 16 17 19 19 14 14 9 10 11 9 7 8 6 5 5 7 9
8 5 6 6 8 6 26 8 14 13 21 24 29 31 29 28 26 24 23 20 18 19 20 20 18 16 15 15 17 18 17 16 18 18 18 14 11 11 9 9 8 6 6 5 3 3 4 7 8
4 3 5 2 5 13 2 5 16 17 27 26 25 27 29 30 27 24 21 19 17 19 19 20 17 16 16 15 16 17 17 17 16 15 13 12 11 11 9 7 8 8 8 5 3 2 3 4 5
6 2 2 2 4 6 3 4 8 20 30 24 26 23 25 29 27 24 22 20 17 18 19 17 17 15 15 16 15 16 17 16 14 12 13 12 9 10 7 7 8 8 6 5 4 3 3 3 5
4 2 1 3 4 2 2 3 7 23 24 22 28 23 23 27 31 26 23 20 18 19 19 15 14 17 16 16 18 17 16 15 11 14 14 11 11 9 7 6 8 6 5 4 4 5 4 5 6
3 2 1 2 6 4 3 4 9 18 21 16 19 25 21 31 29 27 23 21 20 19 19 19 19 17 18 18 20 19 16 14 12 12 14 9 11 8 6 7 6 4 3 2 2 4 3 4 5
2 1 1 2 2 4 5 5 1 12 22 27 14 13 25 26 27 27 26 24 22 19 21 21 19 16 13 12 16 15 16 13 12 13 13 14 12 11 10 7 6 5 4 4 1 2 2 4 4
2 5 4 3 6 6 4 3 4 3 12 24 20 13 8 23 30 29 29 27 25 23 21 22 19 15 15 13 15 14 15 15 14 14 12 14 14 13 14 11 9 9 7 6 4 1 2 5 5
3 6 6 10 4 3 2 4 4 8 6 17 29 25 11 8 28 34 31 31 30 26 22 22 17 18 18 13 15 14 15 14 11 12 11 11 13 15 14 13 11 10 8 7 6 1 2 6 5
5 3 8 6 5 4 2 2 2 9 10 12 26 28 18 6 24 33 34 32 30 27 25 20 19 18 20 16 16 14 13 10 9 11 13 11 11 13 15 13 11 8 8 9 9 4 2 6 6
8 9 8 5 4 1 4 3 3 6 12 13 22 31 29 13 20 32 33 30 29 28 27 22 21 20 17 18 15 14 13 9 11 12 13 12 13 12 10 11 12 8 6 11 9 6 4 3 5
5 5 3 3 1 5 2 4 5 5 5 18 25 31 35 22 5 23 28 29 28 31 29 26 23 23 19 18 17 11 10 8 11 11 10 13 15 12 11 13 12 8 6 10 8 7 5 3 2
8 8 5 5 5 3 3 4 3 2 3 15 28 37 31 27 6 8 25 25 28 31 28 28 24 24 22 18 19 15 12 11 9 12 12 11 12 10 10 12 12 10 10 9 10 9 8 7 5
6 4 5 7 3 4 3 1 2 5 4 13 22 30 29 32 18 11 11 26 28 29 30 30 27 24 23 19 18 17 15 11 13 11 12 12 12 11 9 10 11 11 11 13 11 11 11 10 10
6 5 3 2 6 4 3 3 4 7 8 8 12 22 29 37 34 17 16 16 21 26 29 28 27 25 23 21 19 17 13 11 11 12 15 13 12 12 10 10 10 10 10 12 13 12 13 13 11
3 0 5 5 3 6 4 5 1 6 8 10 12 18 28 31 31 30 20 22 21 25 32 28 27 27 25 23 21 19 14 13 11 9 17 14 12 11 12 12 11 11 11 10 12 14 12 13 13
2 2 4 5 4 2 3 3 3 6 9 14 13 17 18 22 21 24 26 28 27 27 30 25 26 23 23 21 21 20 16 15 13 12 9 10 11 12 13 11 13 12 13 13 13 12 13 11 11

GFSSGP_850_spd_117.txt.gz
Wind_Speed
6 5 1 3 1 1 3 5 7 17 11 9 18 5 7 7 2 6 23 17 18 17 15 14 11 13 12 14 14 14 13 13 12 12 13 13 13 14 15 14 15 15 18 18 19 20 20 19 18
6 3 2 1 2 3 3 6 16 14 16 24 9 15 6 4 5 18 18 21 17 16 14 14 13 13 12 11 13 12 12 12 12 12 13 14 13 14 15 14 16 17 17 18 19 19 19 18 17
4 3 1 1 1 3 5 7 17 17 22 10 6 8 4 3 13 17 22 21 18 16 15 14 12 13 14 11 10 10 10 11 11 12 13 14 14 14 14 14 15 17 18 18 18 19 18 16 17
1 1 2 1 5 3 3 14 22 25 19 3 13 10 6 7 13 17 24 20 17 16 15 13 11 10 11 11 9 10 9 9 10 11 13 12 13 14 14 14 17 17 17 15 13 15 15 15 15
5 1 0 3 6 5 9 16 18 20 14 9 2 6 12 8 10 25 21 19 17 15 13 11 10 9 10 9 9 9 9 9 9 10 12 11 11 12 12 14 15 15 15 16 18 18 16 16 16
2 1 2 4 11 11 12 11 18 12 11 11 15 15 7 9 23 21 20 18 15 14 12 11 10 9 10 10 10 10 10 10 10 10 12 10 10 11 12 11 12 14 14 15 15 15 14 15 17
2 1 2 5 12 8 6 10 7 10 12 7 17 9 9 17 20 21 20 17 15 13 11 11 10 9 10 11 9 9 10 11 11 11 10 10 11 12 11 11 12 13 14 16 17 15 16 17 17
3 2 3 6 6 4 2 6 12 9 8 12 15 7 11 22 22 22 19 17 15 13 11 11 10 10 11 11 9 10 10 11 10 11 10 11 11 11 10 11 12 12 13 14 15 13 15 15 16
3 4 2 1 3 3 7 5 6 8 17 7 1 17 22 24 24 21 19 16 15 13 12 10 10 11 11 12 11 12 11 11 10 11 10 11 11 11 11 12 12 12 12 13 13 12 11 12 14
2 3 6 10 4 3 7 11 10 10 8 9 18 19 26 24 24 21 19 18 14 14 14 12 12 13 12 11 11 11 12 12 13 11 12 11 12 13 13 14 13 12 10 9 10 10 11 12 13
2 2 8 16 9 7 11 11 6 16 3 10 31 29 25 24 21 19 18 17 16 14 13 12 13 13 12 11 11 11 11 12 13 13 13 14 16 17 17 16 14 12 10 9 8 8 10 10 11
2 4 13 7 13 11 11 12 9 8 2 17 25 29 26 23 22 20 17 17 17 15 14 13 13 13 13 14 11 12 11 15 15 16 15 17 17 17 17 14 13 10 8 6 7 9 10 10 10
4 2 9 8 14 14 11 13 8 7 9 22 23 23 22 20 18 18 16 16 16 16 14 14 14 13 14 12 12 13 13 15 17 16 16 18 17 15 12 10 10 10 8 9 8 9 11 8 7
4 4 7 4 15 13 14 9 8 8 10 22 23 22 20 18 18 18 17 18 17 17 15 15 15 14 13 12 12 13 14 15 15 16 17 17 14 12 10 10 9 8 8 7 7 8 10 11 9
10 10 10 13 15 7 24 7 9 12 12 21 22 20 18 16 15 16 17 18 16 17 16 16 17 15 14 13 13 14 14 14 15 17 17 14 13 10 10 8 7 6 7 4 5 7 8 9 10
4 5 7 6 10 11 8 15 18 12 17 21 21 19 18 17 15 15 15 16 16 18 18 17 17 14 14 14 15 15 14 15 16 18 14 11 11 10 8 5 6 4 5 6 5 6 7 9 9
2 4 4 8 4 10 4 6 20 19 22 24 22 20 18 16 16 16 15 15 15 16 19 17 14 14 15 14 15 15 14 15 14 14 10 9 10 9 8 6 8 7 4 5 6 7 7 8 9
7 5 3 5 9 13 8 4 16 23 25 21 23 18 19 19 20 19 18 15 14 15 18 18 16 13 15 15 15 16 15 14 12 12 11 10 9 8 7 6 8 6 3 5 6 7 6 8 7
7 6 5 4 9 9 5 9 16 24 26 21 26 18 19 20 17 18 20 18 15 16 17 18 18 18 15 16 17 17 17 14 11 12 13 10 10 8 5 6 7 5 3 3 6 6 6 7 5
4 5 4 6 5 2 8 12 14 21 25 25 24 21 18 14 15 18 22 21 19 16 17 18 17 18 15 16 17 17 15 14 12 11 13 10 12 9 6 5 4 3 2 1 4 3 5 7 6
4 4 6 3 6 3 12 9 12 14 13 16 23 25 15 14 18 19 22 23 21 20 18 20 18 16 14 13 16 17 17 15 13 13 14 12 12 11 8 6 3 3 3 2 1 3 5 6 6
8 7 7 10 7 3 2 4 8 14 15 21 22 25 24 11 17 20 21 25 25 20 17 19 19 17 15 12 12 13 16 16 13 12 12 11 13 13 10 9 7 6 5 4 3 1 4 6 5
1 3 10 7 3 3 6 3 5 13 15 20 28 28 25 22 15 19 24 22 22 22 19 19 20 18 19 14 12 12 11 10 10 11 12 10 12 13 13 11 8 7 7 5 6 2 3 5 6
9 10 9 6 2 4 6 7 6 11 20 20 29 30 28 21 17 13 15 18 21 24 21 20 21 17 20 16 14 12 11 11 9 9 13 12 11 11 13 12 10 8 6 7 8 5 2 3 5
4 11 4 3 4 3 2 6 4 11 8 20 27 35 31 26 16 13 17 18 21 25 24 23 21 19 19 17 14 12 11 10 9 8 9 10 11 12 12 11 14 9 7 8 9 7 3 2 1
15 12 7 13 6 6 5 6 2 4 7 11 26 33 32 27 18 11 17 19 20 22 24 23 23 21 19 17 17 14 9 9 9 9 8 7 11 10 10 11 13 10 9 9 11 8 5 4 3
7 9 4 3 1 5 3 3 5 3 5 11 21 27 31 26 16 12 15 17 18 21 22 23 23 22 22 19 16 16 13 10 10 10 9 10 9 10 9 10 13 13 11 11 11 11 10 8 7
7 6 7 3 8 7 4 4 4 6 7 11 18 28 31 27 22 15 13 16 21 22 21 22 21 22 22 20 18 15 14 12 12 14 12 12 11 11 10 10 11 12 12 12 13 12 12 12 11
4 5 2 3 3 9 4 4 2 7 10 11 17 22 27 28 32 20 14 14 14 20 23 22 20 22 19 23 19 16 16 12 10 9 11 14 12 11 11 10 10 11 10 10 11 13 13 12 13
1 1 4 7 7 1 4 4 3 5 10 12 12 14 19 22 20 23 23 18 14 20 17 23 19 18 18 20 21 19 17 14 11 11 5 15 12 11 10 11 13 14 14 14 12 11 13 14 13

GFSSGP_850_spd_120.txt.gz
Wind_Speed
3 2 2 3 3 4 10 8 17 17 17 10 13 3 11 12 8 9 20 14 17 15 14 13 13 13 13 14 14 15 15 14 14 14 10 15 16 16 17 17 19 20 19 20 21 21 20 18 18
5 2 3 4 4 8 10 13 17 14 16 22 10 9 6 10 11 21 16 17 16 14 13 10 11 13 13 13 13 13 13 14 15 15 14 14 14 16 17 18 18 18 19 19 20 20 19 18 16
4 1 4 3 2 8 12 17 15 19 25 11 7 9 6 7 19 13 19 18 16 13 13 13 11 11 13 12 11 12 13 14 16 16 15 14 14 15 17 17 19 19 20 22 19 18 17 17 17
2 1 4 3 13 8 15 18 23 27 12 5 13 11 9 15 10 17 19 17 15 13 11 12 13 10 11 11 10 10 12 13 14 14 14 15 15 15 16 17 17 17 16 16 16 16 15 15 15
4 3 2 7 12 12 13 19 24 18 14 14 3 10 18 9 16 20 18 17 14 13 10 10 11 9 8 8 9 8 10 13 13 13 13 13 14 14 16 16 16 17 18 18 18 18 17 17 15
3 3 4 11 17 15 13 14 19 12 14 14 20 23 11 14 20 18 18 16 14 12 11 9 11 10 9 8 9 9 10 11 13 12 12 12 13 14 14 14 14 15 16 17 17 17 17 18 18
3 1 6 15 16 15 10 13 10 11 10 11 19 13 11 20 18 18 17 15 13 11 10 11 9 9 10 10 10 9 10 11 11 12 12 12 13 14 14 14 14 16 17 18 18 18 18 19 18
1 1 6 5 12 13 11 10 10 10 12 12 17 7 15 22 19 18 16 14 13 10 10 9 10 10 8 8 9 10 11 12 10 10 11 12 13 13 13 13 15 16 17 16 16 16 17 18 17
2 2 5 5 9 8 13 7 6 7 15 8 5 16 25 23 21 18 16 15 13 11 10 9 9 9 11 8 9 10 11 10 10 9 12 12 15 11 11 13 14 15 16 15 15 15 16 17 17
4 4 5 2 3 10 8 11 12 11 13 15 19 21 25 23 21 19 16 15 13 12 9 10 11 10 10 8 10 10 10 9 9 10 10 11 11 13 12 14 14 14 14 13 13 13 15 15 10
3 5 6 5 6 7 10 6 6 11 9 16 23 28 25 23 19 17 15 14 13 13 11 10 9 12 10 9 9 7 7 8 7 10 10 11 11 11 11 11 10 9 12 8 10 10 8 8 8
8 10 15 15 7 6 9 9 16 8 2 12 23 27 25 21 19 16 15 14 13 13 12 10 9 9 10 8 8 8 8 9 9 9 11 12 11 12 11 10 9 9 8 10 10 9 11 9 9
4 9 10 7 11 7 12 10 10 10 11 22 26 22 21 19 17 15 13 13 13 13 12 11 10 8 9 12 9 8 9 10 10 10 12 12 10 11 9 10 8 7 8 9 10 10 9 9 8
9 5 6 4 18 13 13 10 8 3 15 22 22 21 19 17 16 15 13 13 13 13 12 12 10 10 9 8 10 9 11 11 11 11 12 14 9 9 8 8 7 6 7 7 8 10 9 8 7
8 9 6 8 17 8 19 4 6 9 17 20 21 19 18 16 14 14 13 12 13 13 13 12 12 10 10 9 9 10 10 10 10 10 14 13 9 8 9 6 6 5 5 8 8 8 8 6 7
9 9 8 10 14 7 4 8 12 16 21 22 22 19 17 15 14 12 12 12 12 13 13 13 12 11 10 11 10 9 10 10 11 11 9 10 9 8 6 4 5 5 6 7 6 7 7 6 5
9 8 8 10 12 10 11 7 18 18 21 21 21 20 17 15 14 13 12 12 12 13 14 13 12 11 11 12 10 10 11 9 11 11 8 6 8 7 6 5 4 5 5 6 6 5 6 5 5
12 9 13 12 13 16 17 7 25 22 16 20 18 16 18 16 15 13 13 12 12 13 15 14 12 12 13 11 13 9 9 9 10 9 8 8 6 6 6 4 5 6 5 5 5 7 5 5 3
4 5 9 9 11 14 14 10 23 21 19 13 15 19 20 18 15 14 13 12 12 13 14 14 14 13 14 10 10 9 9 9 8 8 10 8 8 5 6 5 4 5 4 5 7 4 7 3 2
9 8 10 6 10 7 8 10 20 26 29 27 20 26 19 19 15 14 14 14 13 13 14 14 14 13 14 10 11 11 10 9 8 9 10 8 9 8 5 7 3 5 2 3 5 5 4 4 3
8 7 9 7 10 4 8 7 14 16 22 25 22 15 15 13 18 17 16 16 15 13 14 15 14 14 14 12 12 14 11 12 12 10 10 8 10 10 9 6 6 2 4 1 4 4 6 3 4
11 5 4 11 13 5 14 5 13 16 17 27 29 31 25 22 18 19 18 18 17 15 13 14 15 14 14 13 12 13 12 11 11 11 12 10 10 10 10 9 5 3 3 3 1 3 6 6 3
2 3 7 7 7 5 11 8 14 17 15 19 27 30 29 26 19 18 19 19 16 15 14 13 15 16 15 13 12 12 10 10 8 10 11 11 12 11 10 11 7 5 3 5 4 2 4 6 5
1 7 6 5 5 9 8 11 12 16 21 20 28 31 30 29 23 17 18 18 18 16 15 14 15 17 16 15 11 12 11 10 9 9 10 10 9 11 12 11 9 8 6 5 4 3 1 3 5
12 12 8 9 8 9 7 7 6 13 9 23 26 31 33 25 25 17 18 21 19 19 17 15 15 16 15 15 12 12 10 9 9 8 9 12 11 11 13 13 12 9 8 7 8 6 3 1 1
14 17 11 11 10 11 8 6 2 7 6 12 24 30 32 25 24 23 18 20 21 19 18 17 16 16 14 15 13 11 11 11 11 9 9 8 10 12 11 11 12 12 10 7 10 7 5 4 2
14 16 15 14 11 8 10 8 6 7 8 13 17 27 31 27 25 22 21 19 19 20 19 19 17 16 15 15 13 13 11 9 9 10 12 9 10 11 10 11 12 11 9 8 10 9 8 7 5
12 8 15 10 13 14 7 8 4 10 10 12 16 26 31 28 27 19 18 18 20 20 19 18 18 17 16 15 13 12 11 11 10 9 9 10 12 11 12 10 11 11 10 11 11 10 10 10 7
12 12 8 15 15 12 13 8 6 5 8 12 16 23 28 29 28 22 16 16 17 17 17 18 18 17 17 17 15 14 11 11 10 10 11 11 11 13 12 11 10 10 9 9 10 12 11 10 9
9 15 16 11 14 10 14 4 5 6 6 10 14 21 24 30 27 21 16 14 13 14 16 18 17 17 17 16 17 14 13 12 12 11 10 12 14 13 11 12 11 10 10 11 10 9 9 10 10

GFSSGP_850_spd_123.txt.gz
Wind_Speed
1 2 1 5 4 5 14 18 16 17 16 16 8 17 16 17 13 13 20 17 17 16 13 12 13 14 15 18 18 16 16 15 16 18 19 19 19 20 21 22 21 20 21 21 20 19 17 17 17
3 3 5 7 4 7 13 17 18 13 17 13 11 16 20 18 25 25 21 19 18 16 14 12 13 14 14 14 15 15 15 15 16 16 18 19 18 21 19 20 20 19 20 19 20 18 17 17 17
4 5 10 3 4 9 16 14 17 19 15 15 13 19 14 23 18 20 22 18 15 15 12 10 13 13 14 14 14 16 15 15 17 17 17 16 18 19 20 20 20 20 20 19 18 17 17 17 17
5 3 7 2 6 14 19 17 22 20 15 11 19 14 24 16 20 22 21 20 14 16 13 14 14 12 12 12 13 14 15 15 16 17 17 17 17 18 18 17 16 17 17 18 18 16 16 15 16
3 6 3 6 10 21 17 23 20 13 16 16 20 23 20 17 21 21 19 17 17 16 12 12 12 11 11 11 12 12 13 14 15 15 17 17 17 17 17 17 18 19 19 19 18 19 17 16 15
4 5 3 10 16 17 17 19 18 18 15 12 26 22 14 20 20 19 17 16 16 16 13 11 10 10 10 10 11 12 12 13 14 14 15 15 16 15 15 16 17 17 19 19 18 18 17 16 15
4 3 6 18 16 16 12 15 10 12 13 21 22 19 19 20 19 18 17 16 17 14 14 11 10 10 11 11 11 12 12 12 14 14 15 15 15 14 15 16 17 20 20 19 18 18 17 16 16
5 7 7 13 15 14 12 10 8 14 13 14 18 10 22 21 20 18 16 15 13 12 13 17 11 10 10 11 11 13 13 12 12 15 15 17 16 15 14 14 18 17 17 16 17 17 19 19 18
6 2 3 12 15 10 14 9 6 9 13 11 5 23 24 23 20 18 17 15 13 14 13 11 11 11 11 7 10 12 13 11 12 14 18 18 12 10 11 13 16 16 15 15 17 19 16 14 18
10 3 6 9 12 14 13 9 10 12 11 10 21 24 24 21 19 18 17 15 15 13 11 14 17 11 12 9 12 12 11 10 12 8 14 10 15 13 11 15 15 16 15 16 15 15 12 10 10
7 3 10 1 4 10 9 10 7 10 11 17 23 28 23 22 19 16 15 15 13 14 17 11 16 12 10 11 11 8 13 8 11 9 11 11 11 12 10 11 9 8 12 8 9 11 10 8 10
4 12 15 9 5 13 11 3 11 7 13 17 21 25 23 21 18 17 16 15 14 14 13 11 10 14 11 10 8 10 11 10 9 9 11 12 11 10 11 9 9 8 8 9 10 9 11 10 10
8 14 10 16 10 14 14 13 8 8 7 19 22 22 21 19 17 16 15 14 14 14 13 12 10 11 13 11 10 9 12 12 9 10 9 10 10 10 9 8 8 7 7 9 8 9 10 10 9
12 15 11 9 14 10 13 6 4 4 15 22 22 21 19 17 16 15 15 14 13 13 13 12 11 10 11 10 10 11 8 13 11 10 10 13 8 10 8 7 7 7 7 6 7 9 9 9 8
15 10 10 14 12 15 20 6 8 6 15 20 20 19 18 17 15 14 14 14 14 13 13 13 11 10 12 11 12 10 13 11 11 10 10 9 7 12 9 8 7 7 6 5 8 7 8 7 7
15 13 9 11 14 12 7 13 5 15 16 20 20 20 18 17 16 14 14 13 13 14 14 13 11 10 12 11 12 11 11 11 10 10 7 6 7 7 9 6 7 7 6 6 6 6 6 6 5
13 11 11 13 15 11 8 8 16 21 19 21 19 20 19 18 16 15 15 14 14 13 14 14 12 11 10 13 9 11 12 11 11 10 7 6 5 4 7 6 7 7 5 5 6 5 5 5 4
9 14 14 15 15 16 16 10 18 22 18 16 13 20 18 19 18 16 14 14 14 14 14 14 12 12 12 12 11 11 10 10 10 9 10 7 5 4 5 5 6 7 4 3 5 7 3 4 2
9 8 6 4 22 19 13 11 18 15 13 13 13 17 21 19 17 17 15 14 15 14 16 15 15 14 10 10 10 10 10 12 10 9 6 7 6 3 10 7 5 5 4 7 2 1 5 3 2
6 16 13 21 16 12 13 12 16 19 19 18 7 17 21 26 24 19 17 15 14 15 15 14 13 12 13 12 11 9 10 9 9 8 9 7 6 5 5 11 3 5 5 4 5 4 5 3 1
15 16 5 1 13 8 15 11 14 18 21 25 19 28 16 11 17 19 16 16 16 14 13 15 12 13 13 10 8 12 8 9 7 7 9 9 8 6 4 5 3 5 4 6 5 4 6 6 3
12 5 15 22 16 8 17 5 16 17 21 26 33 31 19 16 19 25 20 18 16 15 13 13 13 12 11 14 10 9 8 8 9 10 9 10 10 9 6 6 4 7 1 2 2 2 6 6 4
5 10 10 3 13 6 8 6 5 22 20 27 36 36 24 36 27 21 22 20 19 18 14 14 14 12 11 12 12 9 10 9 7 10 7 12 10 10 9 8 6 5 4 7 3 1 3 4 7
5 8 10 8 9 11 20 13 12 19 23 24 28 35 31 33 22 17 20 23 20 19 15 14 15 14 13 12 13 13 11 8 10 9 8 9 9 10 11 9 8 6 4 5 3 3 1 4 2
12 14 8 7 6 10 2 6 11 5 18 25 30 32 34 35 26 20 22 17 22 20 17 16 15 14 12 11 11 9 8 9 7 7 8 10 10 10 14 12 9 7 7 6 6 6 3 1 3
17 17 11 14 12 13 16 6 12 20 13 20 29 29 33 36 32 27 21 16 35 22 19 16 16 14 13 13 11 10 9 6 5 6 7 8 8 10 14 9 9 9 9 6 7 5 4 7 1
14 16 21 18 15 12 3 1 8 14 14 16 25 31 29 34 31 29 17 14 22 20 20 18 15 15 14 13 12 9 9 9 9 14 5 7 8 6 8 10 11 11 9 8 7 6 8 3 4
18 8 15 11 16 17 11 12 2 12 14 14 15 26 30 31 32 30 24 20 18 21 22 18 17 17 15 14 12 10 10 8 7 9 11 10 8 10 10 11 11 11 10 9 8 8 9 8 6
12 13 9 14 13 13 12 5 8 16 14 14 16 20 31 34 31 28 26 24 21 21 24 20 19 17 17 16 15 13 12 11 11 9 9 9 11 12 12 11 11 12 11 10 10 12 5 6 8
10 18 15 10 12 13 17 5 12 5 8 11 11 17 30 33 28 27 22 21 20 20 20 19 20 19 17 17 17 16 15 13 11 10 10 8 13 15 14 11 11 11 11 11 11 9 9 9 9